[[{"header":{"parameterUnit":"m.s-1","parameterCategory":1,"la1":31.0,"la2":29.5877,"lo1":-88.7671,"lo2":-86.6584,"dy":0.0162,"dx":0.0185,"nx":115,"ny":88,"refTime":"2023-09-23T00:00:00:Z","depth":0,"parameterNumber":2,"parameterNumberName":"U-component_of_WINDS"},"data":[0.0,0.0,0.0,0.0,0.0,0.0,0.0,0.0,0.0,0.0,0.0,0.0,0.0,0.0,0.0,0.0,0.0,0.0,0.0,0.0,0.0,0.0,0.0,0.0,0.0,0.0,0.0,0.0,0.0,0.0,0.0,0.0,0.0,0.0,0.0,0.0,0.0,0.0,0.0,0.0,0.0,0.0,0.0,0.0,0.0,0.0,0.0,0.0,0.0,0.0,0.0,0.0,0.0,0.0,0.0,0.0,0.0,0.0,0.0,0.0,0.0,0.0,0.0,0.0,0.0,0.0,0.0,0.0,0.0,0.0,0.0,0.0,0.0,0.0,0.0,0.0,0.0,0.0,0.0,0.0,0.0,0.0,0.0,0.0,0.0,0.0,0.0,0.0,0.0,0.0,0.0,0.0,0.0,0.0,0.0,0.0,0.0,0.0,0.0,0.0,0.0,0.0,0.0,0.0,0.0,0.0,0.0,0.0,0.0,0.0,0.0,0.0,0.0,0.0,0.0,0.0,0.0,0.0,0.0,0.0,0.0,0.0,0.0,0.0,0.0,0.0,0.0,0.0,0.0,0.0,0.0,0.0,0.0,0.0,0.0,0.0,0.0,0.0,0.0,0.0,0.0,0.0,0.0,0.0,0.0,0.0,0.0,0.0,0.0,0.0,0.0,0.0,0.0,0.0,0.0,0.0,0.0,0.0,0.0,0.0,0.0,0.0,0.0,0.0,0.0,0.0,0.0,0.0,0.0,0.0,0.0,0.0,0.0,0.0,0.0,0.0,0.0,0.0,0.0,0.0,0.0,0.0,0.0,0.0,0.0,0.0,0.0,0.0,0.0,0.0,0.0,0.0,0.0,0.0,0.0,0.0,0.0,0.0,0.0,0.0,0.0,0.0,0.0,0.0,0.0,0.0,0.0,0.0,0.0,0.0,0.0,0.0,0.0,0.0,0.0,0.0,0.0,0.0,0.0,0.0,0.0,0.0,0.0,0.0,0.0,0.0,0.0,0.0,0.0,0.0,0.0,0.0,0.0,0.0,0.0,0.0,0.0,0.0,0.0,0.0,0.0,0.0,0.0,0.0,0.0,0.0,0.0,0.0,0.0,0.0,0.0,0.0,0.0,0.0,0.0,0.0,0.0,0.0,0.0,0.0,0.0,0.0,0.0,0.0,0.0,0.0,0.0,0.0,0.0,0.0,0.0,0.0,0.0,0.0,0.0,0.0,0.0,0.0,0.0,0.0,0.0,0.0,0.0,0.0,0.0,0.0,0.0,0.0,0.0,0.0,0.0,0.0,0.0,0.0,0.0,0.0,0.0,0.0,0.0,0.0,0.0,0.0,0.0,0.0,0.0,0.0,0.0,0.0,0.0,0.0,0.0,0.0,0.0,0.0,0.0,0.0,0.0,0.0,0.0,0.0,0.0,0.0,0.0,0.0,0.0,0.0,0.0,0.0,0.0,0.0,0.0,0.0,0.0,0.0,0.0,0.0,0.0,0.0,0.0,0.0,0.0,0.0,0.0,0.0,0.0,0.0,0.0,0.0,0.0,0.0,0.0,0.0,0.0,0.0,0.0,0.0,0.0,0.0,0.0,0.0,0.0,0.0,0.0,0.0,0.0,0.0,0.0,0.0,0.0,0.0,0.0,0.0,0.0,0.0,0.0,0.0,0.0,0.0,0.0,0.0,0.0,0.0,0.0,0.0,0.0,0.0,0.0,0.0,0.0,0.0,0.0,0.0,0.0,0.0,0.0,0.0,0.0,0.0,0.0,0.0,0.0,0.0,0.0,0.0,0.0,0.0,0.0,0.0,0.0,0.0,0.0,0.0,0.0,0.0,0.0,0.0,0.0,0.0,0.0,0.0,0.0,0.0,0.0,0.0,0.0,0.0,0.0,0.0,0.0,0.0,0.0,0.0,0.0,0.0,0.0,0.0,0.0,0.0,0.0,0.0,0.0,0.0,0.0,0.0,0.0,0.0,0.0,0.0,0.0,0.0,0.0,0.0,0.0,0.0,0.0,0.0,0.0,0.0,0.0,0.0,0.0,0.0,0.0,0.0,0.0,0.0,0.0,0.0,0.0,0.0,0.0,0.0,0.0,0.0,0.0,0.0,0.0,0.0,0.0,0.0,0.0,0.0,0.0,0.0,0.0,0.0,0.0,0.0,0.0,0.0,0.0,0.0,0.0,0.0,0.0,0.0,0.0,0.0,0.0,0.0,0.0,0.0,0.0,0.0,0.0,0.0,0.0,0.0,0.0,0.0,0.0,0.0,0.0,0.0,0.0,0.0,0.0,0.0,0.0,0.0,0.0,0.0,0.0,0.0,0.0,0.0,0.0,0.0,0.0,0.0,0.0,0.0,0.0,0.0,0.0,0.0,0.0,0.0,0.0,0.0,0.0,0.0,0.0,0.0,0.0,0.0,0.0,0.0,0.0,0.0,0.0,0.0,0.0,0.0,0.0,0.0,0.0,0.0,0.0,0.0,0.0,0.0,0.0,0.0,0.0,0.0,0.0,0.0,0.0,0.0,0.0,0.0,0.0,0.0,0.0,0.0,0.0,0.0,0.0,0.0,0.0,0.0,0.0,0.0,0.0,0.0,0.0,0.0,0.0,0.0,0.0,0.0,0.0,0.0,0.0,0.0,0.0,0.0,0.0,0.0,0.0,0.0,0.0,0.0,0.0,0.0,0.0,0.0,0.0,0.0,0.0,0.0,0.0,0.0,0.0,0.0,0.0,0.0,0.0,0.0,0.0,0.0,0.0,0.0,0.0,0.0,0.0,0.0,0.0,0.0,0.0,0.0,0.0,0.0,0.0,0.0,0.0,0.0,0.0,0.0,0.0,0.0,0.0,0.0,0.0,0.0,0.0,0.0,0.0,0.0,0.0,0.0,0.0,0.0,0.0,0.0,0.0,0.0,0.0,0.0,0.0,0.0,0.0,0.0,0.0,0.0,0.0,0.0,0.0,0.0,0.0,0.0,0.0,0.0,0.0,0.0,0.0,0.0,0.0,0.0,0.0,0.0,0.0,0.0,0.0,0.0,0.0,0.0,0.0,0.0,0.0,0.0,0.0,0.0,0.0,0.0,0.0,0.0,0.0,0.0,0.0,0.0,0.0,0.0,0.0,0.0,0.0,0.0,0.0,0.0,0.0,0.0,0.0,0.0,0.0,0.0,0.0,0.0,0.0,0.0,0.0,0.0,0.0,0.0,0.0,0.0,0.0,0.0,0.0,0.0,0.0,0.0,0.0,0.0,0.0,0.0,0.0,0.0,0.0,0.0,0.0,0.0,0.0,0.0,0.0,0.0,0.0,0.0,0.0,0.0,0.0,0.0,0.0,0.0,0.0,0.0,0.0,0.0,0.0,0.0,0.0,0.0,0.0,0.0,0.0,0.0,0.0,0.0,0.0,0.0,0.0,0.0,0.0,0.0,0.0,0.0,0.0,0.0,0.0,0.0,0.0,0.0,0.0,0.0,0.0,0.0,0.0,0.0,0.0,0.0,0.0,0.0,0.0,0.0,0.0,0.0,0.0,0.0,0.0,0.0,0.0,0.0,0.0,0.0,0.0,0.0,0.0,0.0,0.0,0.0,0.0,0.0,0.0,0.0,0.0,0.0,0.0,0.0,0.0,0.0,0.0,0.0,0.0,0.0,0.0,0.0,0.0,0.0,0.0,0.0,0.0,0.0,0.0,0.0,0.0,0.0,0.0,0.0,0.0,0.0,0.0,0.0,0.0,0.0,0.0,0.0,0.0,0.0,0.0,0.0,0.0,0.0,0.0,0.0,0.0,0.0,0.0,0.0,0.0,0.0,0.0,0.0,0.0,0.0,0.0,0.0,0.0,0.0,0.0,0.0,0.0,0.0,0.0,0.0,0.0,0.0,0.0,0.0,0.0,0.0,0.0,0.0,0.0,0.0,0.0,0.0,0.0,0.0,0.0,0.0,0.0,0.0,0.0,0.0,0.0,0.0,0.0,0.0,0.0,0.0,0.0,0.0,0.0,0.0,0.0,0.0,0.0,0.0,0.0,0.0,0.0,0.0,0.0,0.0,0.0,0.0,0.0,0.0,0.0,0.0,0.0,0.0,0.0,0.0,0.0,0.0,0.0,0.0,0.0,0.0,0.0,0.0,0.0,0.0,0.0,0.0,0.0,0.0,0.0,0.0,0.0,0.0,0.0,0.0,0.0,0.0,0.0,0.0,0.0,0.0,0.0,0.0,0.0,0.0,0.0,0.0,0.0,0.0,0.0,0.0,0.0,0.0,0.0,0.0,0.0,0.0,-1.7392,0.0,0.0,0.0,0.0,0.0,0.0,0.0,0.0,0.0,0.0,0.0,0.0,0.0,0.0,0.0,0.0,0.0,0.0,0.0,0.0,0.0,0.0,0.0,0.0,0.0,0.0,0.0,0.0,0.0,0.0,0.0,0.0,0.0,0.0,0.0,0.0,0.0,0.0,0.0,0.0,0.0,0.0,0.0,0.0,0.0,0.0,0.0,0.0,0.0,0.0,0.0,0.0,0.0,0.0,0.0,0.0,0.0,0.0,0.0,0.0,0.0,0.0,0.0,0.0,0.0,0.0,0.0,0.0,0.0,0.0,0.0,0.0,0.0,0.0,0.0,0.0,0.0,0.0,0.0,0.0,0.0,0.0,0.0,0.0,0.0,0.0,0.0,0.0,0.0,0.0,0.0,0.0,0.0,0.0,0.0,0.0,0.0,0.0,0.0,0.0,0.0,0.0,0.0,0.0,0.0,0.0,0.0,0.0,0.0,0.0,-1.7704,-1.7048,-1.7687,-1.7894,-1.7595,0.0,0.0,0.0,0.0,0.0,0.0,0.0,0.0,0.0,0.0,0.0,0.0,0.0,0.0,0.0,0.0,0.0,0.0,0.0,0.0,0.0,0.0,0.0,0.0,0.0,0.0,0.0,0.0,0.0,0.0,0.0,0.0,0.0,0.0,0.0,0.0,0.0,0.0,0.0,0.0,0.0,0.0,0.0,0.0,0.0,0.0,0.0,0.0,0.0,0.0,0.0,0.0,0.0,0.0,0.0,0.0,0.0,0.0,0.0,0.0,0.0,0.0,0.0,0.0,0.0,0.0,0.0,0.0,0.0,0.0,0.0,0.0,0.0,0.0,0.0,0.0,0.0,0.0,0.0,0.0,0.0,0.0,0.0,0.0,0.0,0.0,0.0,0.0,0.0,0.0,0.0,0.0,0.0,0.0,0.0,0.0,0.0,0.0,0.0,0.0,0.0,0.0,0.0,0.0,0.0,0.0,0.0,0.0,0.0,0.0,0.0,0.0,-1.7946,-1.8265,-1.8059,0.0,0.0,0.0,0.0,0.0,0.0,0.0,0.0,0.0,0.0,0.0,0.0,0.0,0.0,0.0,0.0,0.0,0.0,0.0,0.0,0.0,0.0,0.0,0.0,0.0,0.0,0.0,0.0,0.0,0.0,0.0,0.0,0.0,0.0,0.0,0.0,0.0,0.0,0.0,0.0,0.0,0.0,0.0,0.0,0.0,0.0,0.0,0.0,0.0,0.0,0.0,0.0,0.0,0.0,0.0,0.0,0.0,0.0,0.0,0.0,0.0,0.0,0.0,0.0,0.0,0.0,0.0,0.0,0.0,0.0,0.0,0.0,0.0,0.0,0.0,0.0,0.0,0.0,0.0,0.0,0.0,0.0,0.0,0.0,0.0,0.0,0.0,0.0,0.0,0.0,0.0,0.0,0.0,0.0,0.0,0.0,0.0,0.0,0.0,0.0,0.0,0.0,0.0,0.0,0.0,0.0,0.0,0.0,0.0,0.0,-1.7658,-1.8243,-1.8603,0.0,-1.877,0.0,0.0,0.0,0.0,0.0,0.0,0.0,0.0,0.0,0.0,0.0,0.0,0.0,0.0,0.0,0.0,0.0,0.0,0.0,0.0,0.0,0.0,0.0,0.0,0.0,0.0,0.0,0.0,0.0,0.0,0.0,0.0,0.0,0.0,0.0,0.0,0.0,0.0,0.0,0.0,0.0,0.0,0.0,0.0,0.0,0.0,0.0,0.0,0.0,0.0,0.0,0.0,0.0,0.0,0.0,0.0,0.0,0.0,0.0,0.0,0.0,0.0,0.0,0.0,0.0,0.0,0.0,0.0,0.0,0.0,0.0,0.0,0.0,0.0,0.0,0.0,0.0,0.0,0.0,0.0,0.0,0.0,0.0,0.0,0.0,0.0,0.0,0.0,0.0,0.0,0.0,0.0,0.0,0.0,0.0,0.0,0.0,0.0,0.0,0.0,0.0,0.0,0.0,0.0,0.0,0.0,0.0,0.0,0.0,0.0,-1.7968,-1.7749,-1.8228,-1.8415,0.0,0.0,0.0,0.0,0.0,0.0,0.0,0.0,0.0,0.0,0.0,0.0,0.0,0.0,0.0,0.0,0.0,0.0,0.0,0.0,0.0,0.0,0.0,0.0,0.0,0.0,0.0,0.0,0.0,0.0,0.0,0.0,0.0,0.0,0.0,0.0,0.0,0.0,0.0,0.0,0.0,0.0,0.0,0.0,0.0,0.0,0.0,0.0,0.0,0.0,0.0,0.0,0.0,0.0,0.0,0.0,0.0,0.0,0.0,0.0,0.0,0.0,0.0,0.0,0.0,0.0,0.0,0.0,0.0,0.0,0.0,0.0,0.0,0.0,0.0,0.0,0.0,0.0,0.0,0.0,0.0,0.0,0.0,0.0,0.0,0.0,0.0,0.0,0.0,0.0,0.0,0.0,0.0,0.0,0.0,0.0,0.0,0.0,0.0,0.0,0.0,0.0,0.0,0.0,0.0,0.0,0.0,0.0,0.0,0.0,-1.8076,-1.7999,-1.7562,-1.7764,-1.7897,-1.7883,0.0,0.0,0.0,0.0,0.0,0.0,0.0,0.0,0.0,0.0,0.0,0.0,0.0,0.0,0.0,0.0,0.0,0.0,0.0,0.0,0.0,0.0,0.0,0.0,0.0,0.0,0.0,0.0,0.0,0.0,0.0,0.0,0.0,0.0,0.0,0.0,0.0,0.0,0.0,0.0,0.0,0.0,0.0,0.0,0.0,0.0,0.0,0.0,0.0,0.0,0.0,0.0,0.0,0.0,0.0,0.0,0.0,0.0,0.0,0.0,0.0,0.0,0.0,0.0,0.0,0.0,0.0,0.0,0.0,0.0,0.0,0.0,0.0,0.0,0.0,0.0,0.0,0.0,0.0,0.0,0.0,0.0,0.0,0.0,0.0,0.0,0.0,0.0,0.0,0.0,0.0,0.0,0.0,0.0,0.0,0.0,0.0,0.0,0.0,0.0,0.0,0.0,0.0,0.0,0.0,0.0,0.0,0.0,-1.8699,-1.7854,-1.7585,-1.8027,-1.745,-1.7426,0.0,0.0,0.0,0.0,0.0,0.0,0.0,0.0,0.0,0.0,0.0,0.0,0.0,0.0,0.0,0.0,0.0,0.0,0.0,0.0,0.0,0.0,0.0,0.0,0.0,0.0,0.0,0.0,0.0,0.0,0.0,0.0,0.0,0.0,0.0,0.0,0.0,0.0,0.0,0.0,0.0,0.0,0.0,0.0,0.0,0.0,0.0,0.0,0.0,0.0,0.0,0.0,0.0,0.0,0.0,0.0,0.0,0.0,0.0,0.0,0.0,0.0,0.0,0.0,0.0,0.0,0.0,0.0,0.0,0.0,0.0,0.0,0.0,0.0,0.0,0.0,0.0,0.0,0.0,0.0,0.0,0.0,0.0,0.0,0.0,0.0,0.0,0.0,0.0,0.0,0.0,0.0,0.0,0.0,0.0,0.0,0.0,0.0,0.0,0.0,0.0,0.0,0.0,0.0,0.0,0.0,0.0,0.0,0.0,-1.7163,-1.6665,-1.6936,-1.7945,-1.709,-1.6959,0.0,0.0,0.0,0.0,0.0,0.0,0.0,0.0,0.0,0.0,0.0,0.0,0.0,0.0,0.0,0.0,0.0,0.0,0.0,0.0,0.0,0.0,0.0,0.0,0.0,0.0,0.0,0.0,0.0,0.0,0.0,0.0,0.0,0.0,0.0,0.0,0.0,0.0,0.0,0.0,0.0,0.0,0.0,0.0,0.0,0.0,0.0,0.0,0.0,0.0,0.0,0.0,0.0,0.0,0.0,0.0,0.0,0.0,0.0,0.0,0.0,0.0,0.0,0.0,0.0,0.0,0.0,0.0,0.0,0.0,0.0,0.0,0.0,0.0,0.0,0.0,0.0,0.0,0.0,0.0,0.0,0.0,0.0,0.0,0.0,0.0,0.0,0.0,0.0,0.0,0.0,0.0,0.0,0.0,0.0,0.0,0.0,0.0,0.0,0.0,0.0,0.0,0.0,0.0,0.0,0.0,0.0,0.0,0.0,-1.6572,0.0,-1.6864,-1.7435,-1.6855,-1.6707,0.0,0.0,0.0,0.0,0.0,0.0,0.0,0.0,0.0,0.0,0.0,0.0,0.0,0.0,0.0,0.0,0.0,0.0,0.0,0.0,0.0,0.0,0.0,0.0,0.0,0.0,0.0,0.0,0.0,0.0,0.0,0.0,0.0,0.0,0.0,0.0,0.0,0.0,0.0,0.0,0.0,0.0,0.0,0.0,0.0,0.0,0.0,0.0,0.0,0.0,0.0,0.0,0.0,0.0,0.0,0.0,0.0,0.0,0.0,0.0,0.0,0.0,0.0,0.0,0.0,0.0,0.0,0.0,0.0,0.0,0.0,0.0,0.0,0.0,0.0,0.0,0.0,0.0,0.0,0.0,0.0,0.0,0.0,0.0,0.0,0.0,0.0,0.0,0.0,0.0,0.0,0.0,0.0,0.0,0.0,0.0,0.0,0.0,0.0,0.0,0.0,0.0,0.0,0.0,0.0,0.0,0.0,0.0,-1.6248,-1.7206,-1.7624,-1.7389,-1.6548,-1.6766,-1.6732,0.0,0.0,0.0,0.0,0.0,0.0,0.0,0.0,0.0,0.0,0.0,0.0,0.0,0.0,0.0,0.0,0.0,0.0,0.0,0.0,0.0,0.0,0.0,0.0,0.0,0.0,0.0,0.0,0.0,0.0,0.0,0.0,0.0,0.0,0.0,0.0,0.0,0.0,0.0,0.0,0.0,0.0,0.0,0.0,0.0,0.0,0.0,0.0,0.0,0.0,0.0,0.0,0.0,0.0,0.0,0.0,0.0,0.0,0.0,0.0,0.0,0.0,0.0,0.0,0.0,0.0,0.0,0.0,0.0,0.0,0.0,0.0,0.0,0.0,0.0,0.0,0.0,0.0,0.0,0.0,0.0,0.0,0.0,0.0,0.0,0.0,0.0,0.0,0.0,0.0,0.0,0.0,0.0,0.0,0.0,0.0,0.0,0.0,0.0,0.0,0.0,0.0,0.0,0.0,0.0,0.0,0.0,0.0,0.0,-1.579,-1.6782,-1.7284,-1.7118,-1.696,-1.7263,0.0,0.0,0.0,0.0,0.0,0.0,0.0,0.0,0.0,0.0,0.0,0.0,0.0,0.0,0.0,0.0,0.0,0.0,0.0,0.0,0.0,0.0,0.0,0.0,0.0,0.0,0.0,0.0,0.0,0.0,0.0,0.0,0.0,0.0,0.0,0.0,0.0,0.0,0.0,0.0,0.0,0.0,0.0,0.0,0.0,0.0,0.0,0.0,0.0,0.0,0.0,0.0,0.0,0.0,0.0,0.0,0.0,0.0,0.0,0.0,0.0,0.0,0.0,0.0,0.0,0.0,0.0,0.0,0.0,0.0,0.0,0.0,0.0,0.0,0.0,0.0,0.0,0.0,0.0,0.0,0.0,0.0,0.0,0.0,0.0,0.0,0.0,0.0,0.0,0.0,0.0,0.0,0.0,0.0,0.0,0.0,0.0,0.0,0.0,0.0,0.0,0.0,0.0,0.0,0.0,0.0,0.0,0.0,0.0,-1.6431,-1.7907,-1.8631,-1.8331,-1.8181,-1.827,-1.8617,0.0,0.0,0.0,0.0,0.0,0.0,0.0,0.0,0.0,0.0,0.0,0.0,0.0,0.0,0.0,0.0,0.0,0.0,0.0,0.0,0.0,0.0,0.0,0.0,0.0,0.0,0.0,0.0,0.0,0.0,0.0,0.0,0.0,0.0,0.0,0.0,0.0,0.0,0.0,0.0,0.0,0.0,0.0,0.0,0.0,0.0,0.0,0.0,0.0,0.0,0.0,0.0,0.0,0.0,0.0,0.0,0.0,0.0,0.0,0.0,0.0,0.0,0.0,0.0,0.0,0.0,0.0,0.0,0.0,0.0,0.0,0.0,0.0,0.0,0.0,0.0,0.0,0.0,0.0,0.0,0.0,0.0,0.0,0.0,0.0,0.0,0.0,0.0,0.0,0.0,0.0,0.0,0.0,0.0,0.0,0.0,0.0,0.0,0.0,0.0,0.0,0.0,0.0,0.0,0.0,0.0,0.0,0.0,-1.8645,-2.0672,-2.1171,-2.0005,-2.0081,-1.9678,0.0,0.0,0.0,0.0,0.0,0.0,0.0,0.0,0.0,0.0,0.0,0.0,0.0,0.0,0.0,0.0,0.0,0.0,0.0,0.0,0.0,0.0,0.0,0.0,0.0,0.0,0.0,0.0,0.0,0.0,0.0,0.0,0.0,0.0,0.0,0.0,0.0,0.0,0.0,0.0,0.0,0.0,0.0,0.0,0.0,0.0,0.0,0.0,0.0,0.0,0.0,0.0,0.0,0.0,0.0,0.0,0.0,0.0,0.0,0.0,0.0,0.0,0.0,0.0,0.0,0.0,0.0,0.0,0.0,0.0,0.0,0.0,0.0,0.0,0.0,0.0,0.0,0.0,0.0,0.0,0.0,0.0,0.0,0.0,0.0,0.0,0.0,0.0,0.0,0.0,0.0,0.0,0.0,0.0,0.0,0.0,0.0,0.0,0.0,0.0,0.0,0.0,0.0,0.0,0.0,0.0,0.0,0.0,0.0,-2.1608,-2.2904,-2.2788,-2.1155,-2.1059,-2.0974,0.0,0.0,0.0,0.0,0.0,0.0,0.0,0.0,0.0,0.0,0.0,0.0,0.0,0.0,0.0,0.0,0.0,0.0,0.0,0.0,0.0,0.0,0.0,0.0,0.0,0.0,0.0,0.0,0.0,0.0,0.0,0.0,0.0,0.0,0.0,0.0,0.0,0.0,0.0,0.0,0.0,0.0,0.0,0.0,0.0,0.0,0.0,0.0,0.0,0.0,0.0,0.0,0.0,0.0,0.0,0.0,0.0,0.0,0.0,0.0,0.0,0.0,0.0,0.0,0.0,0.0,0.0,0.0,0.0,0.0,0.0,0.0,0.0,0.0,0.0,0.0,0.0,0.0,0.0,0.0,0.0,0.0,0.0,0.0,0.0,0.0,0.0,0.0,0.0,0.0,0.0,0.0,0.0,0.0,0.0,0.0,0.0,0.0,0.0,0.0,0.0,0.0,0.0,0.0,0.0,0.0,0.0,0.0,-2.1593,-2.2774,-2.412,-2.4256,-2.316,-2.2399,-2.1903,0.0,0.0,0.0,0.0,0.0,0.0,0.0,0.0,0.0,0.0,0.0,0.0,0.0,0.0,0.0,0.0,0.0,0.0,0.0,0.0,0.0,0.0,0.0,0.0,0.0,0.0,0.0,0.0,0.0,0.0,0.0,0.0,0.0,0.0,0.0,0.0,0.0,0.0,0.0,0.0,0.0,0.0,0.0,0.0,0.0,0.0,0.0,0.0,0.0,0.0,0.0,0.0,0.0,0.0,0.0,0.0,0.0,0.0,0.0,0.0,0.0,0.0,0.0,0.0,0.0,0.0,0.0,0.0,0.0,0.0,0.0,0.0,0.0,0.0,0.0,0.0,0.0,0.0,0.0,0.0,0.0,0.0,0.0,0.0,0.0,0.0,0.0,0.0,0.0,0.0,0.0,0.0,0.0,0.0,0.0,0.0,0.0,0.0,0.0,0.0,0.0,0.0,0.0,0.0,0.0,0.0,0.0,0.0,-2.1799,-2.3026,-2.4641,-2.5455,-2.5338,-2.3769,-2.2552,0.0,0.0,0.0,0.0,0.0,0.0,0.0,0.0,0.0,0.0,0.0,0.0,0.0,0.0,0.0,0.0,0.0,0.0,0.0,0.0,0.0,0.0,0.0,0.0,0.0,0.0,0.0,0.0,0.0,0.0,0.0,0.0,0.0,0.0,0.0,0.0,0.0,0.0,0.0,0.0,0.0,0.0,0.0,0.0,0.0,0.0,0.0,0.0,0.0,0.0,0.0,0.0,0.0,0.0,0.0,0.0,0.0,0.0,0.0,0.0,0.0,0.0,0.0,0.0,0.0,0.0,0.0,0.0,0.0,0.0,0.0,0.0,0.0,0.0,0.0,0.0,0.0,0.0,0.0,0.0,0.0,0.0,0.0,0.0,0.0,0.0,0.0,0.0,0.0,0.0,0.0,0.0,0.0,0.0,0.0,0.0,0.0,0.0,0.0,0.0,0.0,0.0,0.0,0.0,0.0,0.0,0.0,0.0,-2.2204,-2.3871,-2.497,-2.5454,-2.5392,-2.3787,-2.2846,0.0,0.0,0.0,0.0,0.0,0.0,0.0,0.0,0.0,0.0,0.0,0.0,0.0,0.0,0.0,0.0,0.0,0.0,0.0,0.0,0.0,0.0,0.0,0.0,0.0,0.0,0.0,0.0,0.0,0.0,0.0,0.0,0.0,0.0,0.0,0.0,0.0,0.0,0.0,0.0,0.0,0.0,0.0,0.0,0.0,0.0,0.0,0.0,-2.4084,0.0,0.0,0.0,0.0,0.0,0.0,0.0,0.0,0.0,0.0,0.0,0.0,0.0,0.0,0.0,0.0,0.0,0.0,0.0,0.0,0.0,0.0,0.0,0.0,0.0,0.0,0.0,0.0,0.0,0.0,0.0,0.0,0.0,0.0,0.0,0.0,0.0,0.0,0.0,0.0,0.0,0.0,0.0,0.0,0.0,0.0,0.0,0.0,0.0,0.0,0.0,0.0,0.0,0.0,0.0,0.0,0.0,0.0,0.0,-2.2305,-2.408,-2.4967,-2.5348,-2.5168,-2.3999,-2.3193,0.0,0.0,0.0,0.0,0.0,0.0,0.0,0.0,0.0,0.0,0.0,0.0,0.0,0.0,0.0,0.0,0.0,0.0,0.0,0.0,0.0,0.0,0.0,0.0,0.0,0.0,0.0,0.0,0.0,0.0,0.0,0.0,0.0,0.0,0.0,0.0,0.0,0.0,0.0,0.0,0.0,0.0,0.0,0.0,0.0,0.0,0.0,0.0,0.0,0.0,0.0,0.0,0.0,0.0,0.0,0.0,0.0,0.0,0.0,0.0,0.0,0.0,0.0,0.0,0.0,0.0,0.0,0.0,0.0,0.0,0.0,0.0,0.0,0.0,0.0,0.0,0.0,0.0,0.0,0.0,0.0,0.0,0.0,0.0,0.0,0.0,0.0,0.0,0.0,0.0,0.0,0.0,0.0,0.0,0.0,0.0,0.0,0.0,0.0,0.0,0.0,0.0,0.0,0.0,0.0,0.0,0.0,-2.1348,-2.2219,-2.4211,-2.4908,-2.5168,-2.4991,-2.4193,-2.3478,-2.284,0.0,0.0,0.0,0.0,0.0,0.0,0.0,0.0,0.0,0.0,0.0,0.0,0.0,0.0,0.0,0.0,0.0,0.0,0.0,0.0,0.0,0.0,0.0,0.0,0.0,0.0,0.0,0.0,0.0,0.0,0.0,0.0,0.0,0.0,0.0,0.0,0.0,0.0,-2.0539,-2.2024,0.0,0.0,0.0,0.0,0.0,0.0,0.0,0.0,-2.5111,0.0,0.0,0.0,0.0,0.0,0.0,0.0,0.0,0.0,0.0,0.0,0.0,0.0,0.0,0.0,0.0,0.0,0.0,0.0,0.0,0.0,0.0,0.0,0.0,0.0,0.0,0.0,0.0,0.0,0.0,0.0,0.0,0.0,0.0,0.0,0.0,0.0,0.0,0.0,0.0,0.0,0.0,0.0,0.0,0.0,0.0,0.0,0.0,0.0,0.0,0.0,0.0,0.0,0.0,0.0,0.0,-2.258,-2.1222,-2.1986,-2.5,-2.5064,-2.5028,-2.4966,-2.4062,-2.3246,-2.2576,0.0,0.0,0.0,0.0,0.0,0.0,0.0,0.0,0.0,0.0,0.0,0.0,0.0,0.0,0.0,0.0,0.0,0.0,0.0,0.0,0.0,0.0,0.0,0.0,0.0,0.0,0.0,0.0,0.0,0.0,0.0,0.0,0.0,0.0,0.0,0.0,0.0,0.0,0.0,-2.2608,-2.3779,0.0,0.0,0.0,0.0,0.0,0.0,0.0,0.0,-2.4883,0.0,0.0,0.0,0.0,0.0,0.0,0.0,0.0,0.0,0.0,0.0,0.0,0.0,0.0,0.0,0.0,0.0,0.0,0.0,0.0,0.0,0.0,0.0,0.0,0.0,0.0,0.0,0.0,0.0,0.0,0.0,0.0,0.0,0.0,0.0,0.0,0.0,0.0,0.0,0.0,0.0,0.0,0.0,0.0,0.0,0.0,0.0,0.0,0.0,0.0,0.0,0.0,0.0,0.0,0.0,-2.249,-2.222,-2.2956,-2.4954,-2.4936,-2.485,-2.4714,-2.3437,-2.2569,0.0,0.0,0.0,0.0,0.0,0.0,0.0,0.0,0.0,0.0,0.0,0.0,0.0,0.0,0.0,0.0,0.0,0.0,0.0,0.0,0.0,0.0,0.0,0.0,0.0,0.0,0.0,0.0,0.0,0.0,0.0,0.0,0.0,0.0,0.0,0.0,0.0,0.0,0.0,0.0,-2.3291,-2.3944,-2.4319,0.0,0.0,0.0,0.0,0.0,0.0,-2.4797,-2.476,0.0,0.0,0.0,0.0,0.0,0.0,0.0,0.0,0.0,0.0,0.0,0.0,0.0,0.0,0.0,0.0,0.0,0.0,0.0,0.0,0.0,0.0,0.0,0.0,0.0,0.0,0.0,0.0,0.0,0.0,0.0,0.0,0.0,0.0,0.0,0.0,0.0,0.0,0.0,0.0,0.0,0.0,0.0,0.0,0.0,0.0,0.0,0.0,0.0,0.0,0.0,0.0,0.0,0.0,0.0,-2.2478,-2.2995,-2.3778,-2.474,-2.476,-2.4662,-2.4474,-2.2781,-2.1911,0.0,0.0,0.0,0.0,0.0,0.0,0.0,0.0,0.0,0.0,0.0,0.0,0.0,0.0,0.0,0.0,0.0,0.0,0.0,0.0,0.0,0.0,0.0,0.0,0.0,0.0,0.0,0.0,0.0,0.0,0.0,0.0,0.0,0.0,0.0,0.0,0.0,0.0,0.0,0.0,0.0,-2.4151,-2.4584,-2.4697,0.0,0.0,0.0,0.0,-2.4326,-2.4412,0.0,0.0,0.0,0.0,0.0,0.0,0.0,0.0,0.0,0.0,0.0,0.0,0.0,0.0,0.0,0.0,0.0,0.0,0.0,0.0,0.0,0.0,0.0,0.0,0.0,0.0,0.0,0.0,0.0,0.0,0.0,0.0,0.0,0.0,0.0,0.0,0.0,0.0,0.0,0.0,0.0,0.0,0.0,0.0,0.0,0.0,0.0,0.0,0.0,0.0,0.0,0.0,0.0,0.0,0.0,0.0,-2.2502,-2.2479,-2.3196,-2.4702,-2.4623,-2.451,-2.4485,-2.2538,-2.1641,0.0,0.0,0.0,0.0,0.0,0.0,0.0,0.0,0.0,0.0,0.0,0.0,0.0,0.0,0.0,0.0,0.0,0.0,0.0,0.0,0.0,0.0,0.0,0.0,0.0,0.0,0.0,0.0,0.0,0.0,0.0,0.0,0.0,0.0,0.0,0.0,0.0,0.0,0.0,0.0,0.0,-2.4543,-2.4155,-2.4335,-2.4395,0.0,0.0,-2.3979,-2.3668,-2.3491,0.0,0.0,0.0,0.0,0.0,0.0,0.0,0.0,0.0,0.0,0.0,0.0,0.0,0.0,0.0,0.0,0.0,0.0,0.0,0.0,0.0,0.0,0.0,0.0,0.0,0.0,0.0,0.0,0.0,0.0,0.0,0.0,0.0,0.0,0.0,0.0,0.0,0.0,0.0,0.0,0.0,0.0,0.0,0.0,0.0,0.0,0.0,0.0,0.0,0.0,0.0,0.0,0.0,0.0,0.0,-2.1531,-2.2243,-2.3,-2.3715,-2.4415,-2.4375,-2.4229,-2.4059,-2.1879,-2.1016,0.0,0.0,0.0,0.0,0.0,0.0,0.0,0.0,0.0,0.0,0.0,0.0,0.0,0.0,0.0,0.0,0.0,0.0,0.0,0.0,0.0,0.0,0.0,0.0,0.0,0.0,0.0,0.0,0.0,0.0,0.0,0.0,0.0,0.0,0.0,0.0,0.0,0.0,0.0,0.0,0.0,0.0,-2.3895,-2.3945,0.0,0.0,0.0,-2.3715,-2.3381,0.0,0.0,0.0,0.0,0.0,0.0,0.0,0.0,0.0,0.0,0.0,0.0,0.0,0.0,0.0,0.0,0.0,0.0,0.0,0.0,0.0,0.0,0.0,0.0,0.0,0.0,0.0,0.0,0.0,0.0,0.0,0.0,0.0,0.0,0.0,0.0,0.0,0.0,0.0,0.0,0.0,0.0,0.0,0.0,0.0,0.0,0.0,0.0,0.0,0.0,0.0,0.0,0.0,0.0,0.0,0.0,0.0,-2.1895,-2.3309,-2.4026,-2.3966,-2.3947,-2.3827,-2.3541,-2.1601,0.0,0.0,0.0,0.0,0.0,0.0,0.0,0.0,0.0,0.0,0.0,0.0,0.0,0.0,0.0,0.0,0.0,0.0,0.0,0.0,0.0,0.0,0.0,0.0,0.0,0.0,0.0,-1.9105,0.0,0.0,0.0,0.0,0.0,0.0,0.0,0.0,0.0,0.0,0.0,0.0,0.0,0.0,-2.3852,-2.3504,-2.3533,-2.3444,0.0,0.0,-2.3335,-2.3026,-2.2982,-2.3019,0.0,0.0,0.0,0.0,0.0,0.0,0.0,0.0,0.0,0.0,0.0,0.0,0.0,0.0,0.0,0.0,0.0,0.0,0.0,0.0,0.0,0.0,0.0,0.0,0.0,0.0,0.0,0.0,0.0,0.0,0.0,0.0,0.0,0.0,0.0,0.0,0.0,0.0,0.0,0.0,0.0,0.0,0.0,0.0,0.0,0.0,0.0,0.0,0.0,0.0,0.0,0.0,0.0,0.0,0.0,-2.1596,-2.2994,-2.3588,-2.3271,-2.3259,-2.3247,-2.3224,-2.2089,-2.1313,0.0,0.0,0.0,0.0,0.0,0.0,0.0,0.0,0.0,0.0,0.0,0.0,0.0,0.0,0.0,0.0,0.0,0.0,0.0,0.0,0.0,0.0,0.0,0.0,0.0,0.0,0.0,0.0,0.0,0.0,0.0,0.0,0.0,0.0,0.0,0.0,0.0,0.0,0.0,0.0,0.0,-2.3684,-2.288,-2.3045,-2.3014,0.0,0.0,-2.2678,-2.2402,-2.2363,-2.2453,-2.2699,0.0,0.0,0.0,0.0,0.0,0.0,0.0,0.0,0.0,0.0,0.0,0.0,0.0,0.0,0.0,0.0,0.0,0.0,0.0,0.0,0.0,0.0,0.0,0.0,0.0,0.0,0.0,0.0,0.0,0.0,0.0,0.0,0.0,0.0,0.0,0.0,0.0,0.0,0.0,0.0,0.0,0.0,0.0,0.0,0.0,0.0,0.0,0.0,0.0,0.0,0.0,0.0,0.0,-2.1332,-2.1396,-2.2697,-2.3317,-2.32,-2.3189,-2.3105,-2.2898,-2.2042,-2.1181,0.0,0.0,0.0,0.0,0.0,0.0,0.0,0.0,0.0,0.0,0.0,0.0,0.0,0.0,0.0,0.0,0.0,0.0,0.0,0.0,0.0,0.0,0.0,0.0,0.0,0.0,0.0,0.0,-2.0511,-2.0972,-2.1912,0.0,0.0,0.0,0.0,0.0,0.0,0.0,0.0,0.0,0.0,-2.3076,-2.2742,-2.281,0.0,0.0,-2.2541,-2.2612,-2.2349,-2.2313,-2.2335,-2.2422,-2.2497,0.0,0.0,0.0,0.0,0.0,0.0,0.0,0.0,0.0,0.0,0.0,0.0,0.0,0.0,0.0,0.0,0.0,0.0,0.0,0.0,0.0,0.0,0.0,0.0,0.0,0.0,0.0,0.0,0.0,0.0,0.0,0.0,0.0,0.0,0.0,0.0,0.0,0.0,0.0,0.0,0.0,0.0,0.0,0.0,0.0,0.0,0.0,0.0,0.0,0.0,0.0,0.0,-2.094,-2.1049,-2.2364,-2.2996,-2.2915,-2.2933,-2.2802,-2.2569,-2.2074,-2.1268,0.0,0.0,0.0,0.0,0.0,0.0,0.0,0.0,0.0,0.0,0.0,0.0,0.0,0.0,0.0,0.0,0.0,0.0,0.0,0.0,0.0,0.0,0.0,0.0,0.0,0.0,0.0,0.0,-2.1064,-2.1498,-2.2279,0.0,0.0,0.0,0.0,0.0,0.0,0.0,0.0,0.0,0.0,-2.2686,-2.2586,-2.2573,-2.2531,-2.2321,-2.245,-2.2514,-2.2321,-2.2313,-2.2313,-2.2313,0.0,0.0,0.0,0.0,0.0,0.0,0.0,0.0,0.0,0.0,0.0,0.0,0.0,0.0,0.0,0.0,0.0,0.0,0.0,0.0,0.0,0.0,0.0,0.0,0.0,0.0,0.0,0.0,0.0,0.0,-1.7743,0.0,0.0,0.0,0.0,0.0,0.0,0.0,0.0,0.0,0.0,0.0,0.0,0.0,0.0,0.0,0.0,0.0,0.0,0.0,0.0,0.0,0.0,-2.0736,-2.0431,-2.192,-2.256,-2.2321,-2.2324,-2.2324,-2.2279,-2.2293,-2.1689,-2.0508,0.0,0.0,0.0,0.0,0.0,0.0,0.0,0.0,0.0,0.0,0.0,0.0,0.0,0.0,0.0,0.0,0.0,0.0,0.0,0.0,0.0,0.0,0.0,0.0,0.0,0.0,-1.9542,-2.0508,-2.1311,0.0,0.0,0.0,0.0,0.0,0.0,0.0,0.0,0.0,0.0,-2.2708,-2.2599,-2.2332,-2.231,-2.2324,-2.2313,-2.231,-2.231,-2.2313,-2.2313,-2.2313,0.0,0.0,0.0,0.0,0.0,0.0,0.0,0.0,0.0,0.0,0.0,0.0,0.0,0.0,0.0,0.0,0.0,0.0,0.0,0.0,0.0,0.0,0.0,0.0,0.0,0.0,0.0,-1.8387,-1.8447,0.0,0.0,0.0,0.0,0.0,0.0,0.0,0.0,0.0,0.0,0.0,-1.7846,-1.7666,0.0,0.0,0.0,0.0,0.0,0.0,0.0,0.0,0.0,0.0,0.0,0.0,-2.0194,-2.0073,-2.1288,-2.1788,-2.1462,-2.1431,-2.1431,-2.1431,-2.1447,-2.1028,-2.0134,0.0,0.0,0.0,0.0,0.0,0.0,0.0,0.0,0.0,0.0,0.0,0.0,0.0,0.0,0.0,0.0,0.0,0.0,0.0,0.0,0.0,0.0,0.0,0.0,0.0,-2.0472,0.0,0.0,0.0,0.0,0.0,0.0,0.0,0.0,0.0,0.0,0.0,-2.2085,-2.1974,-2.2254,-2.2402,-2.2324,-2.2313,-2.2313,0.0,0.0,0.0,0.0,0.0,0.0,0.0,0.0,0.0,0.0,0.0,0.0,0.0,0.0,-2.2611,-2.2598,-2.2598,-2.266,-2.2853,0.0,0.0,0.0,0.0,0.0,0.0,0.0,0.0,0.0,0.0,0.0,0.0,0.0,0.0,-1.8302,0.0,-1.8167,0.0,0.0,0.0,0.0,0.0,0.0,0.0,0.0,-1.803,-1.8219,-1.8371,-1.8162,-1.8162,0.0,-1.838,-1.8827,0.0,0.0,0.0,0.0,0.0,0.0,0.0,0.0,-2.0243,-1.9904,-2.0986,-2.1399,-2.1039,-2.1007,-2.1007,-2.1007,-2.0845,-2.0526,-2.0036,-1.906,-1.8607,0.0,0.0,0.0,0.0,0.0,0.0,0.0,0.0,0.0,0.0,0.0,0.0,0.0,0.0,0.0,0.0,0.0,0.0,0.0,0.0,0.0,0.0,0.0,-2.0682,0.0,0.0,0.0,0.0,0.0,0.0,0.0,0.0,0.0,-2.1828,-2.1625,-2.1461,-2.1582,-2.1869,-2.212,-2.2282,0.0,0.0,0.0,0.0,0.0,0.0,0.0,-2.2313,-2.2313,-2.2313,-2.2429,-2.2762,-2.2747,-2.2699,-2.2682,0.0,0.0,-2.2313,-2.2313,-2.2363,-2.2541,-2.2546,-2.2612,-2.2845,-2.2883,-2.2883,0.0,0.0,0.0,0.0,0.0,0.0,0.0,0.0,-1.8072,-1.8086,0.0,-1.8078,0.0,0.0,0.0,0.0,0.0,-1.8642,0.0,0.0,-1.8627,-1.9207,-1.9615,-1.9031,-1.9061,-1.9615,-1.9049,-1.9273,-2.0173,-1.9295,0.0,0.0,0.0,0.0,0.0,0.0,-2.0746,-1.9937,-2.098,-2.1353,-2.0975,-2.0943,-2.0958,-2.0926,-2.0516,-2.0297,-2.0249,-1.9578,-1.9346,-1.9666,-1.939,0.0,0.0,0.0,0.0,0.0,0.0,0.0,0.0,0.0,0.0,0.0,0.0,0.0,0.0,0.0,0.0,0.0,0.0,0.0,0.0,-2.0297,0.0,0.0,0.0,0.0,0.0,0.0,0.0,0.0,0.0,0.0,-2.1445,-2.1213,-2.1118,-2.1491,0.0,0.0,0.0,0.0,-2.2254,-2.2254,-2.2254,-2.2254,-2.2254,-2.2254,-2.2254,-2.2237,0.0,0.0,-2.3522,-2.346,-2.3249,-2.3281,-2.2676,-2.2282,-2.2251,-2.2282,-2.231,-2.231,-2.2324,-2.2327,-2.2327,-2.238,-2.2349,-1.7973,0.0,0.0,0.0,0.0,-1.8341,-1.823,-1.8072,-1.7686,-1.7747,-1.8086,-1.7706,0.0,0.0,0.0,0.0,0.0,0.0,-1.9357,-1.9194,-1.9386,-1.9548,-1.9693,-1.9513,-1.9513,-1.9675,-1.9513,-1.9566,-1.9844,-1.9582,-1.9772,-2.0368,0.0,0.0,0.0,0.0,-1.9997,-1.9498,-2.0238,-2.0499,-2.0085,-2.0085,-2.0052,-2.0067,-1.996,-1.9889,-1.9859,-1.9657,-1.9604,-1.9678,-1.9602,0.0,0.0,0.0,0.0,0.0,0.0,0.0,0.0,0.0,0.0,0.0,0.0,0.0,0.0,0.0,0.0,0.0,0.0,0.0,-1.9892,-2.0124,-2.0141,0.0,0.0,0.0,0.0,0.0,0.0,0.0,0.0,0.0,-2.06,-2.0583,-2.0534,0.0,0.0,-2.1197,-2.1338,-2.1369,-2.1369,-2.1369,-2.1385,0.0,0.0,-2.1369,-2.1369,-2.1369,-2.1385,-2.1483,-2.176,-2.1743,-2.1678,-2.1726,-2.173,-2.1794,-2.1823,-2.2092,-2.2282,-2.2313,-2.2313,-2.2313,-2.2313,-2.2313,-2.2313,-1.7167,-1.7504,-1.7913,-1.7967,-1.7787,-1.7787,-1.7666,-1.7456,-1.7118,-1.718,-1.7442,-1.7105,-1.7381,-1.8112,-1.8554,0.0,0.0,0.0,-1.9584,-1.9387,-1.9617,-1.9723,-1.9723,-1.9723,-1.9723,-1.9723,-1.9723,-1.9723,-1.9723,-1.9723,-1.9962,-2.0465,0.0,0.0,-1.984,-2.0162,-2.0034,-1.9455,-1.9994,-2.0106,-1.9726,-1.9723,-1.9723,-1.9723,-1.9723,-1.9723,-1.9723,-1.9723,-1.9723,-1.9723,-1.9723,-1.9603,0.0,0.0,0.0,0.0,0.0,0.0,0.0,0.0,0.0,0.0,0.0,-1.9723,0.0,0.0,0.0,0.0,-1.9723,-1.9723,-1.9723,-1.9927,0.0,0.0,0.0,0.0,0.0,0.0,0.0,-2.0035,-1.9839,-1.98,-2.0035,-2.0054,-2.0124,-2.028,-2.055,-2.0797,-2.0975,0.0,-2.1007,-2.1007,-2.1007,-2.1007,-2.1007,-2.1007,-2.0991,-2.099,-2.1247,-2.1551,-2.1787,-2.163,-2.1552,-2.1744,-2.1728,-2.1597,-2.1597,-2.1972,-2.2313,-2.2313,-2.2313,-2.2313,-2.2313,-2.2313,-2.2313,-1.6513,-1.6607,-1.7565,-1.7686,-1.725,-1.7305,-1.7013,-1.6573,-1.6586,-1.6573,-1.6552,-1.6509,-1.7034,-1.8013,-1.908,0.0,-1.8874,-1.9387,-1.9387,-1.8987,-1.9424,-1.9639,-1.969,-1.9723,-1.9723,-1.9723,-1.9723,-1.9723,-1.9723,-1.9723,-1.9723,-1.9726,-2.0072,-2.0054,-1.9749,-2.0482,-2.0514,-1.9711,-2.0054,-2.0072,-1.9726,-1.9723,-1.9723,-1.9723,-1.9723,-1.9723,-1.9723,-1.9723,-1.9675,-1.9639,-1.9639,-1.9387,-1.8874,0.0,0.0,0.0,0.0,0.0,0.0,0.0,0.0,0.0,0.0,0.0,0.0,0.0,0.0,0.0,-1.9723,0.0,-1.9723,-1.9723,0.0,0.0,0.0,-1.9723,-1.9723,-1.9723,-1.9723,-1.9723,0.0,0.0,-1.9723,0.0,-1.9854,-2.021,-2.0246,-2.0416,-2.0829,-2.0878,-2.0894,-2.0861,-2.0894,-2.0878,-2.0812,-2.0813,-2.0798,-2.0831,-2.1456,-2.196,-2.2445,-2.2196,-2.2155,-2.2482,-2.2086,-2.1553,-2.1552,-2.1945,-2.2313,-2.2313,-2.2313,-2.2313,-2.2313,-2.2313,-2.2313,-1.6513,-1.6522,-1.6774,-1.6795,-1.671,-1.7105,-1.7229,-1.7105,-1.7105,-1.7105,-1.7084,-1.668,-1.6659,-1.693,-1.8007,-1.8419,-1.8322,-1.8822,-1.9258,-1.9479,-1.9225,-1.9299,-1.969,-1.9723,-1.9723,-1.9723,-1.9723,-1.9723,-1.9723,-1.9723,-1.9723,-1.9708,-1.98,-1.9782,-1.9726,-1.9892,-1.9892,-1.9723,-1.9785,-1.98,-1.9708,-1.9723,-1.9723,-1.9723,-1.9723,-1.9723,-1.9723,-1.9723,-1.9512,-1.9099,-1.908,-1.8855,-1.8341,-1.8302,0.0,0.0,0.0,0.0,0.0,0.0,0.0,0.0,0.0,-1.9723,-1.9723,0.0,-1.9723,0.0,-1.9723,-1.9723,-1.9723,-1.9723,0.0,0.0,-1.9723,-1.9723,-1.9723,-1.9723,-1.9723,-1.9723,-1.9723,-1.9723,-1.9723,-1.9723,-1.9744,-1.9854,-1.9854,-1.9874,-1.9997,-1.9997,-2.0015,-2.0032,-2.0032,-2.0015,-2.0032,-1.9997,-2.0019,-2.0006,-2.0174,-2.0322,-2.0487,-2.0398,-2.0322,-2.0528,-2.0899,-2.1103,-2.1134,-2.1766,-2.2254,-2.2313,-2.2313,-2.2313,-2.2313,-2.2313,-2.2313,-1.6513,-1.6513,-1.6513,-1.6513,-1.6509,-1.6816,-1.6951,-1.693,-1.6942,-1.693,-1.6942,-1.6866,-1.6845,-1.6909,-1.7747,-1.823,-1.8458,-1.8516,-1.8822,-1.9299,-1.9024,-1.9062,-1.9369,-1.9584,-1.9723,-1.9723,-1.9723,-1.9723,-1.9723,-1.9723,-1.9723,-1.9723,-1.9723,-1.9723,-1.9723,-1.9723,-1.9723,-1.9723,-1.9723,-1.9723,-1.9723,-1.9723,-1.9723,-1.9723,-1.9723,-1.9603,-1.935,-1.9336,-1.908,-1.8593,-1.8535,-1.8288,-1.7787,-1.7747,-1.7565,0.0,0.0,0.0,0.0,0.0,0.0,0.0,0.0,0.0,0.0,0.0,-1.9723,-1.9723,-1.9723,-1.9723,-1.9723,-1.9723,-1.9723,-1.9723,-1.9723,-1.9723,-1.9723,-1.9723,-1.9723,-1.9723,-1.9723,-1.9723,-1.9723,-1.9723,-1.9723,-1.9723,-1.9723,-1.9723,-1.9723,-1.9723,-1.9723,-1.9723,-1.9723,-1.9723,-1.9723,-1.9723,-1.9723,-1.9723,-1.9723,-1.9804,-2.0077,-1.99,-1.9798,-2.0104,-2.0443,-2.0698,-2.0715,-2.1229,-2.1751,-2.1913,-2.184,-2.1871,-2.2225,-2.2313,-2.2313,-1.6672,-1.6713,-1.6638,-1.6613,-1.66,-1.6525,-1.6513,-1.6513,-1.6513,-1.6513,-1.6531,-1.6993,-1.7201,-1.7242,-1.7767,-1.8249,-1.865,-1.8224,-1.8283,-1.8798,-1.8741,-1.8727,-1.8803,-1.9277,-1.9515,-1.9603,-1.953,-1.9515,-1.9617,-1.953,-1.9479,-1.9497,-1.9479,-1.9497,-1.9493,-1.9512,-1.9566,-1.9708,-1.9723,-1.9723,-1.9708,-1.9621,-1.9603,-1.9584,-1.9548,-1.9262,-1.8836,-1.8798,-1.8554,-1.8046,-1.7973,-1.7767,-1.7229,-1.7209,-1.6993,0.0,-1.6513,0.0,0.0,0.0,0.0,0.0,0.0,0.0,0.0,-1.9479,-1.9515,-1.9584,-1.9603,-1.9636,-1.9675,-1.9723,-1.9723,-1.9723,-1.9723,-1.9723,-1.9723,-1.9723,-1.9723,-1.9723,-1.9723,-1.9723,-1.9723,-1.9723,-1.9723,-1.9723,-1.9723,-1.9723,-1.9723,-1.9723,-1.9723,-1.9723,-1.9723,-1.9723,-1.9723,-1.9723,-1.9723,-1.9723,-1.9723,-1.99,-2.0418,-2.0062,-1.9869,-2.037,-2.0401,-2.033,-2.0282,-2.0715,-2.1118,-2.146,-2.1291,-2.1338,-2.208,-2.2304,-2.2302,-1.7476,-1.7817,-1.7413,-1.7234,-1.7174,-1.6701,-1.6513,-1.6513,-1.6513,-1.6513,-1.65,-1.6616,-1.6659,-1.6701,-1.7209,-1.7517,-1.7585,-1.7504,-1.7747,-1.823,-1.7807,-1.7847,-1.823,-1.8361,-1.8631,-1.9006,-1.8593,-1.8631,-1.9043,-1.8612,-1.84,-1.84,-1.84,-1.84,-1.84,0.0,0.0,0.0,-1.9723,-1.9723,-1.969,-1.9262,-1.9058,-1.9043,-1.8631,0.0,-1.8263,-1.8249,-1.7993,-1.7483,-1.7442,0.0,0.0,0.0,0.0,0.0,0.0,0.0,0.0,0.0,0.0,0.0,-1.821,-1.8419,-1.8419,-1.84,-1.8574,-1.9006,-1.9043,-1.9225,-1.9672,-1.9723,-1.9723,-1.9723,-1.9708,-1.9723,-1.9723,-1.969,-1.9723,-1.9723,-1.9723,-1.9723,-1.9738,-1.9723,-1.9723,-1.9753,-1.9723,-1.9723,-1.9723,-1.9723,-1.9723,-1.9723,-1.9723,-1.9723,-1.9723,-1.9723,-1.9723,-1.9723,-1.9723,-1.9771,-1.9867,-1.9852,-1.9723,-1.9932,-2.0126,-2.0297,-2.0297,-2.0698,-2.0975,-2.1102,-2.1023,-2.126,-2.2109,-2.2293,-2.2321,-1.7813,0.0,-1.7813,-1.779,0.0,-1.7476,-1.735,-1.7313,-1.6738,-1.6513,-1.6513,-1.6513,-1.6513,-1.6509,-1.6795,-1.7055,-1.7305,-1.7034,-1.7188,-1.7686,-1.7422,-1.7422,-1.7727,-1.7973,-1.8263,-1.8496,-1.823,-1.8243,-1.8477,-1.823,-1.8092,-1.8092,-1.8092,-1.8092,-1.8092,-1.8092,-1.838,-1.8893,-1.8912,-1.8912,-1.8912,-1.865,-1.853,-1.8496,0.0,0.0,0.0,0.0,0.0,0.0,0.0,0.0,0.0,0.0,0.0,-1.6513,-1.6513,-1.6616,-1.6888,-1.6888,-1.7013,-1.7291,-1.7312,-1.7544,-1.8052,-1.8092,-1.8224,-1.8477,-1.8516,-1.8722,-1.9225,-1.9062,-1.902,-1.9244,-1.9062,-1.8912,-1.893,-1.9151,-1.9299,-1.9317,-1.9548,-1.9813,-2.0139,-1.9887,-1.9854,-2.0109,-1.9884,-1.969,-1.9723,-1.9723,-1.9723,-1.9723,-1.9723,-1.9723,-1.9723,-1.9723,-1.9723,-1.9723,-1.9723,-1.9723,-1.9723,-1.9723,-1.9723,-1.9726,-1.9874,-2.0,-2.0017,-2.0208,-2.0414,-2.0582,-2.0514,-2.0665,-2.1462,-2.1999,-2.2204,-1.8279,-1.8026,-1.8342,-1.8493,-1.848,-1.8292,-1.8204,-1.8141,0.0,0.0,0.0,-1.6789,-1.6789,-1.6789,-1.671,-1.6935,-1.7418,-1.6892,-1.6884,-1.7337,-1.7316,-1.7264,-1.718,-1.7713,-1.7963,-1.7981,-1.7976,-1.7976,-1.7967,-1.7867,-1.7827,-1.7841,-1.7936,-1.8045,-1.8106,-1.7916,-1.7882,-1.7977,-1.8048,-1.8092,-1.8092,-1.7993,-1.7953,-1.7953,-1.7867,-1.7605,-1.7167,-1.7146,-1.6951,-1.6543,-1.6513,-1.6513,-1.6513,-1.66,-1.6672,-1.6651,-1.6751,-1.6738,-1.6663,-1.6651,-1.6622,-1.6513,-1.6513,-1.6909,-1.7874,-1.7874,-1.7867,-1.7947,-1.7967,-1.8185,-1.8708,-1.8361,-1.8305,-1.8845,-1.8509,-1.8299,-1.841,-1.8776,-1.9064,-1.8984,-1.9265,-1.9712,-2.0062,-1.9674,-1.9668,-2.0139,-1.9823,-1.9621,-1.969,-1.9723,-1.9723,-1.9723,-1.9723,-1.9723,-1.9723,-1.9723,-1.9723,-1.9723,-1.9723,-1.9723,-1.9723,-1.9723,-1.9723,-1.9723,-1.9723,-1.9726,-1.9708,-1.9762,-1.9818,-2.0141,-1.9929,-1.9925,-2.063,-2.1375,-2.1817,-1.9824,-2.0189,-1.9761,-1.9572,-1.9497,-1.8593,-1.8204,-1.8191,-1.8017,-1.7965,-1.7965,-1.7978,-1.7978,-1.794,-1.7476,-1.7559,-1.8031,-1.7521,-1.7307,-1.7384,-1.7397,-1.7096,-1.6654,-1.7209,-1.7463,-1.7419,-1.7467,-1.7476,-1.7385,-1.6976,-1.671,-1.6808,-1.7241,-1.7734,-1.8058,-1.7206,-1.6986,-1.7479,-1.7894,-1.8092,-1.8072,-1.7646,-1.7415,-1.7381,-1.6972,-1.6689,-1.6637,-1.6616,-1.6573,-1.6522,-1.6513,-1.6513,-1.6513,-1.6986,-1.7285,-1.7287,-1.7702,-1.7765,-1.7313,-1.7262,-1.7049,-1.6563,-1.6513,-1.6774,-1.7333,-1.6993,-1.6921,-1.7353,-1.7441,-1.7626,-1.8125,-1.812,-1.828,-1.8803,-1.8824,-1.8968,-1.9371,-1.9533,-1.9376,-1.8934,-1.8961,-1.8833,-1.87,-1.8517,-1.8616,-1.9022,-1.915,-1.9169,-1.9493,-1.9723,-1.9723,-1.9723,-1.9723,-1.9723,-1.9723,-1.9723,-1.9723,-1.9723,-1.9723,-1.9723,-1.9723,-1.9723,-1.9723,-1.9723,-1.9723,-1.9723,-1.9723,-1.9723,-1.9729,-1.9836,-1.9762,-1.98,-1.998,-2.0392,-2.086,-2.0264,-2.0277,-2.0564,-2.0566,-2.0239,-1.9409,-1.907,-1.907,-1.907,-1.8719,-1.8216,-1.8204,-1.8204,-1.8179,-1.794,-1.7965,-1.8179,-1.7662,-1.7574,-1.7802,-1.7536,-1.74,-1.7463,-1.7689,-1.7814,-1.7798,-1.7814,-1.7814,-1.7763,-1.7526,-1.7426,-1.7428,-1.7702,-1.7965,-1.8154,-1.7666,-1.7551,-1.7825,-1.7424,-1.7229,-1.7229,-1.6993,-1.6866,-1.6845,-1.6616,-1.6513,-1.6513,-1.6513,-1.6513,-1.6513,-1.6513,-1.6638,-1.6974,-1.7237,-1.7536,-1.7815,-1.8066,-1.8091,-1.784,-1.7827,-1.7714,-1.7463,-1.7438,-1.7516,-1.776,-1.6992,-1.6755,-1.7294,-1.7355,-1.7557,-1.8081,-1.7885,-1.7927,-1.8457,-1.8269,-1.8337,-1.8809,-1.8933,-1.8814,-1.8575,-1.8488,-1.8514,-1.865,-1.8333,-1.8337,-1.8838,-1.875,-1.8607,-1.8831,-1.8855,-1.9062,-1.9566,-1.9723,-1.9723,-1.9723,-1.9723,-1.9723,-1.9723,-1.9723,-1.9723,-1.9723,-1.9723,-1.9723,-1.9723,-1.9723,-1.9723,-1.9723,-1.9723,-1.9723,-1.9723,-1.9723,-1.9723,-1.9762,-2.0002,-2.0516,-2.0616,-2.0275,-2.1255,-2.1292,-2.0666,-2.0214,-1.9924,-1.9811,-1.9786,-1.9334,-1.8631,-1.8555,-1.8568,-1.8555,-1.8418,-1.8431,-1.848,-1.8003,-1.799,-1.8293,-1.7953,-1.7915,-1.8204,-1.8329,-1.8329,-1.8242,-1.8329,-1.8342,-1.8216,-1.8204,-1.8267,-1.8355,-1.8243,-1.8329,-1.8543,-1.8317,-1.8267,-1.8293,-1.74,-1.6814,-1.6688,-1.6563,-1.6513,-1.6513,-1.65,-1.6513,-1.6513,-1.6626,-1.6722,-1.6735,-1.6835,-1.7099,-1.7539,-1.7689,-1.794,-1.8318,-1.8505,-1.8505,-1.8392,-1.8279,-1.8204,-1.8204,-1.8204,-1.8191,-1.8105,-1.7413,-1.7074,-1.7488,-1.7609,-1.7778,-1.8067,-1.7868,-1.7806,-1.828,-1.8037,-1.8035,-1.8327,-1.8372,-1.8308,-1.8231,-1.8156,-1.8341,-1.8669,-1.8437,-1.8404,-1.8815,-1.8604,-1.8307,-1.8279,-1.8196,-1.8516,-1.9188,-1.9515,-1.9584,-1.9654,-1.9723,-1.9723,-1.9723,-1.9723,-1.9723,-1.9723,-1.9723,-1.9723,-1.9723,-1.9723,-1.9723,-1.9723,-1.9723,-1.9723,-1.9723,-1.9723,-1.9723,-1.9726,-1.9912,-2.0296,-2.1368,-2.1418,-2.1958,-2.1631,-2.0742,-2.0629,-2.0314,-1.9874,-1.9811,-1.9761,-1.9623,-1.9648,-1.961,-1.9585,-1.9133,-1.9158,-1.9547,-1.9083,-1.8857,-1.8907,-1.887,-1.8619,-1.8329,-1.8694,-1.8657,-1.8355,-1.8694,-1.8694,-1.8304,-1.8243,-1.8444,-1.8807,-1.8444,-1.8706,-1.9409,-1.8694,-1.8444,-1.8907,-1.8343,-1.7802,-1.7322,-1.6763,-1.6513,-1.6513,-1.6525,-1.6513,-1.6575,-1.7024,-1.73,-1.7338,-1.7765,-1.8066,-1.8166,-1.8593,-1.887,-1.8933,-1.9384,-1.9434,-1.8958,-1.8469,-1.8242,-1.8204,-1.8254,-1.8267,-1.8254,-1.8129,-1.8066,-1.8154,-1.8154,-1.8163,-1.8187,-1.8152,-1.8328,-1.8765,-1.8818,-1.8882,-1.8895,-1.8932,-1.8754,-1.8273,-1.8223,-1.823,-1.8305,-1.8242,-1.8418,-1.8847,-1.8782,-1.8629,-1.861,-1.829,-1.8242,-1.8784,-1.8949,-1.9169,-1.9548,-1.9723,-1.9723,-1.9723,-1.9723,-1.9723,-1.9723,-1.9723,-1.9723,-1.9723,-1.9723,-1.9723,-1.9723,-1.9723,-1.9723,-1.9723,-1.9723,-1.9723,-1.9723,-1.9762,-1.9965,-2.1481,-2.1543,-2.2083,-2.187,-2.1182,-2.083,-2.0742,-2.0778,-2.0478,-2.0327,-2.0289,-1.9987,-1.9798,-1.9786,-1.9547,-1.961,-1.9761,-1.9233,-1.9183,-1.9409,-1.9146,-1.9033,-1.9171,-1.9346,-1.9346,-1.9171,-1.9384,-1.9371,-1.9183,-1.9145,-1.9258,-1.9447,-1.9246,-1.9384,-1.9748,-1.9371,-1.9246,-1.9459,-1.8933,-1.8544,-1.8293,-1.7792,-1.7491,-1.7526,-1.7513,-1.7513,-1.7516,-1.7729,-1.7865,-1.7877,-1.8091,-1.8331,-1.8644,-1.8882,-1.9146,-1.9459,-1.9647,-1.9723,-1.9497,-1.9271,-1.9158,-1.9145,-1.9158,-1.9145,-1.9145,-1.9145,-1.9158,-1.912,-1.8869,-1.8657,-1.8669,-1.8669,-1.8757,-1.897,-1.9008,-1.9121,-1.9459,-1.9171,-1.8895,-1.8669,-1.8405,-1.8204,-1.8204,-1.8204,-1.8298,-1.8508,-1.8504,-1.8522,-1.8483,-1.8039,-1.7956,-1.8289,-1.8207,-1.8505,-1.9384,-1.9723,-1.969,-1.969,-1.9723,-1.9723,-1.9672,-1.9723,-1.9723,-1.9723,-1.9723,-1.9723,-1.9723,-1.9723,-1.9723,-1.9723,-1.9723,-1.9723,-1.9723,-1.9723,-1.98,-2.1481,-2.1594,-2.2234,-2.2221,-2.1681,-2.132,-2.1282,-2.1446,-2.1094,-2.0918,-2.088,-2.0439,-2.0175,-2.0024,-1.9874,-1.9798,-1.9748,-1.9384,-1.9434,-1.9736,-1.9409,-1.9409,-1.9773,-1.9798,-1.9798,-1.9798,-1.9786,-1.9798,-1.9798,-1.9798,-1.9798,-1.9798,-1.9798,-1.9798,-1.9798,-1.9798,-1.9798,-1.9761,-1.9396,-1.9221,-1.9146,-1.8647,-1.83,-1.8218,-1.8204,-1.8204,-1.8204,-1.8342,-1.843,-1.843,-1.8555,-1.8819,-1.9183,-1.9208,-1.9384,-1.9748,-1.9798,-1.9798,-1.9798,-1.9798,-1.9798,-1.9798,-1.9798,-1.9798,-1.9798,-1.9798,-1.9798,-1.9748,-1.9447,-1.9208,-1.9208,-1.9208,-1.9208,-1.9221,-1.9208,-1.9384,-1.951,-1.9196,-1.9008,-1.897,-1.8669,-1.8493,-1.8606,-1.8681,-1.8743,-1.8755,-1.858,-1.843,-1.8355,-1.8035,-1.7801,-1.8118,-1.7827,-1.8045,-1.9045,-1.9188,-1.9262,-1.9317,-1.9295,-1.9424,-1.9497,-1.9566,-1.9723,-1.9723,-1.9723,-1.9723,-1.9723,-1.9723,-1.9723,-1.9723,-1.9723,-1.9723,-1.9723,-1.9723,-1.9723,-2.1481,-2.1656,-2.2606,-2.2706,-2.223,-2.2138,-2.1888,-2.1425,-2.1384,-2.14,-2.1331,-2.1284,-2.1064,-2.0536,-1.9955,-1.9785,-1.9798,-1.9697,-1.9671,-1.9721,-1.9697,-1.9747,-1.9798,-1.9798,-1.9798,-1.9798,-1.9798,-1.9773,-1.9773,-1.9747,-1.9798,-1.9747,-1.9669,-1.9747,-1.9669,-1.9669,-1.9773,-1.9631,-1.9581,-1.9658,-1.9607,-1.8974,-1.8452,-1.82,-1.8182,-1.816,-1.8233,-1.867,-1.8921,-1.8945,-1.9308,-1.9633,-1.9697,-1.9697,-1.9709,-1.9773,-1.9773,-1.9798,-1.9798,-1.9798,-1.9798,-1.9798,-1.9747,-1.9798,-1.9798,-1.9721,-1.9721,-1.9798,-1.9748,-1.971,-1.971,-1.9673,-1.9698,-1.971,-1.9736,-1.956,-1.9133,-1.9146,-1.902,-1.9045,-1.9008,-1.9096,-1.9597,-1.9736,-1.9623,-1.9522,-1.9271,-1.897,-1.8882,-1.8518,-1.8249,-1.8198,-1.8144,-1.815,-1.8192,-1.8419,-1.8361,-1.8438,-1.8784,-1.893,-1.9132,-1.9281,-1.9493,-1.9672,-1.9603,-1.9603,-1.9672,-1.9723,-1.9723,-1.9723,-1.9723,-1.9723,-1.9723,-1.9723,-1.9723,-2.202,-2.2046,-2.2435,-2.2167,-2.151,-2.1468,-2.1242,-2.0883,-2.0507,-2.0356,-2.0286,-1.9988,-1.9732,-1.9546,-1.9315,-1.9443,-1.9733,-1.9319,-1.9097,-1.9097,-1.9097,-1.9097,-1.915,-1.9553,-1.9798,-1.9798,-1.9798,-1.9553,-1.9059,-1.8635,-1.8394,-1.8394,-1.8382,-1.8382,-1.8394,-1.8382,-1.8394,-1.8394,-1.8409,-1.8394,-1.8409,-1.814,-1.7955,-1.7827,-1.783,-1.7804,-1.7792,-1.8005,-1.8098,-1.8098,-1.83,-1.8382,-1.8447,-1.8847,-1.9085,-1.915,-1.9527,-1.9798,-1.9798,-1.9798,-1.9798,-1.9773,-1.9333,-1.9307,-1.9618,-1.9397,-1.9281,-1.9669,-1.9798,-1.9798,-1.9798,-1.9798,-1.9798,-1.9798,-1.9798,-1.9736,-1.9559,-1.9497,-1.9497,-1.9522,-1.9522,-1.961,-1.971,-1.9798,-1.9798,-1.9786,-1.9635,-1.9497,-1.9409,-1.907,-1.8691,-1.8568,-1.8137,-1.7666,-1.764,-1.7963,-1.8106,-1.8145,-1.8322,-1.838,-1.8496,-1.8593,-1.876,-1.9207,-1.9262,-1.9442,-1.953,-1.9723,-1.9723,-1.9723,-1.9723,-1.9723,-1.9723,-1.9723,-1.9723,-2.1895,-2.194,-2.1795,-2.1486,-2.1082,-2.1063,-2.0885,-2.0579,-2.0293,-2.0115,-1.9937,-1.9624,-1.934,-1.9196,-1.9144,-1.9239,-1.9449,-1.8967,-1.872,-1.8569,-1.8557,-1.8503,-1.8432,-1.8859,-1.9097,-1.9107,-1.9252,-1.9057,-1.8608,-1.8193,-1.8047,-1.8058,-1.8019,-1.793,-1.7857,-1.7824,-1.7784,-1.765,-1.7605,-1.7605,-1.7578,-1.7357,-1.7257,-1.7202,-1.7024,-1.7163,-1.755,-1.7605,-1.7605,-1.7605,-1.7605,-1.7605,-1.766,-1.807,-1.8328,-1.8421,-1.8794,-1.9097,-1.9097,-1.9097,-1.9059,-1.9071,-1.8688,-1.8581,-1.9018,-1.8859,-1.8992,-1.9345,-1.9695,-1.9747,-1.9501,-1.9449,-1.954,-1.9721,-1.9798,-1.9798,-1.9798,-1.9798,-1.9786,-1.9773,-1.9761,-1.9786,-1.9798,-1.9798,-1.9798,-1.9798,-1.9798,-1.9798,-1.9736,-1.9535,-1.9158,-1.8983,-1.8454,-1.8023,-1.7786,-1.7883,-1.762,-1.7575,-1.7767,-1.7827,-1.7887,-1.7947,-1.819,-1.865,-1.8987,-1.9207,-1.9424,-1.9636,-1.9672,-1.9654,-1.9723,-1.9723,-1.9723,-1.9723,-1.9675,-2.114,-2.1261,-2.0815,-2.0913,-2.1052,-2.103,-2.0896,-2.0509,-2.0742,-2.0544,-2.0281,-2.0385,-1.9841,-1.966,-1.9427,-1.9335,-1.8928,-1.8802,-1.8585,-1.8302,-1.8298,-1.8092,-1.7762,-1.79,-1.7983,-1.7967,-1.8159,-1.8326,-1.832,-1.842,-1.8539,-1.8725,-1.8569,-1.8291,-1.8211,-1.8012,-1.7906,-1.754,-1.7401,-1.744,-1.7495,-1.6838,-1.6482,-1.6425,-1.5892,-1.6189,-1.7446,-1.7479,-1.7413,-1.744,-1.7473,-1.7573,-1.7534,-1.7612,-1.7639,-1.7661,-1.7683,-1.7688,-1.7715,-1.777,-1.7852,-1.7877,-1.7705,-1.7739,-1.8009,-1.8302,-1.8575,-1.8741,-1.9176,-1.9423,-1.8821,-1.8688,-1.8965,-1.9631,-1.9657,-1.9669,-1.9798,-1.9798,-1.9798,-1.9798,-1.9798,-1.9798,-1.9798,-1.9798,-1.9798,-1.9798,-1.9798,-1.9798,-1.9798,-1.9723,-1.9547,-1.9196,-1.8845,-1.8519,-1.8154,-1.7775,-1.7257,-1.6891,-1.7125,-1.7291,-1.7374,-1.7463,-1.7827,-1.8249,-1.8593,-1.8822,-1.9006,-1.9188,-1.9295,-1.9314,-1.9475,-1.9471,-1.9352,-1.9271,-1.951,-2.135,-2.1642,-2.1565,-2.0994,-2.0356,-2.03,-1.991,-1.924,-1.9094,-1.9247,-1.9522,-1.9087,-1.8825,-1.8886,-1.8683,-1.8459,-1.8261,-1.8273,-1.8142,-1.8002,-1.7945,-1.788,-1.783,-1.8222,-1.8485,-1.843,-1.8089,-1.7965,-1.7887,-1.7626,-1.7378,-1.7378,-1.743,-1.7317,-1.7267,-1.693,-1.6694,-1.6562,-1.6226,-1.6073,-1.6073,-1.5902,-1.5758,-1.5719,-1.5497,-1.5781,-1.6502,-1.6246,-1.6083,-1.6171,-1.6408,-1.6685,-1.6949,-1.7189,-1.7341,-1.7356,-1.7506,-1.7605,-1.7605,-1.7611,-1.7712,-1.7889,-1.7618,-1.7618,-1.7921,-1.7814,-1.7812,-1.7931,-1.8167,-1.814,-1.8015,-1.7934,-1.8259,-1.8965,-1.9044,-1.9254,-1.9579,-1.9721,-1.9798,-1.9798,-1.9798,-1.9798,-1.9773,-1.9747,-1.9747,-1.9747,-1.9773,-1.9798,-1.9798,-1.9798,-1.9786,-1.9572,-1.9284,-1.9033,-1.8707,-1.8343,-1.7867,-1.7363,-1.7266,-1.714,-1.7127,-1.7055,-1.7422,-1.7847,-1.8185,-1.8438,-1.8631,-1.8727,-1.8817,-1.8741,-1.8669,-1.8649,-1.8644,-1.8863,-1.9185,-2.1053,-2.1133,-2.0984,-2.055,-1.993,-1.9895,-1.9494,-1.8913,-1.8769,-1.8945,-1.9157,-1.8766,-1.849,-1.8568,-1.8516,-1.8291,-1.8047,-1.8154,-1.8097,-1.7853,-1.7715,-1.7561,-1.7471,-1.7821,-1.8097,-1.8048,-1.7791,-1.7664,-1.7621,-1.7377,-1.7217,-1.7207,-1.7174,-1.7119,-1.6953,-1.6543,-1.6339,-1.625,-1.5909,-1.5732,-1.5839,-1.5898,-1.5868,-1.5878,-1.5898,-1.6045,-1.6269,-1.6045,-1.5878,-1.5917,-1.6182,-1.6455,-1.667,-1.6759,-1.6777,-1.6835,-1.6932,-1.702,-1.7049,-1.7135,-1.7392,-1.7539,-1.7264,-1.7173,-1.7541,-1.7299,-1.7307,-1.7427,-1.7568,-1.7495,-1.7246,-1.7174,-1.7479,-1.8069,-1.8255,-1.8486,-1.89,-1.898,-1.8953,-1.89,-1.8927,-1.8992,-1.898,-1.9281,-1.9371,-1.9385,-1.9631,-1.9798,-1.9798,-1.9798,-1.9798,-1.9773,-1.9572,-1.9371,-1.9284,-1.8945,-1.8544,-1.8066,-1.7657,-1.7381,-1.7171,-1.6841,-1.6921,-1.7476,-1.7887,-1.8185,-1.838,-1.8288,-1.8322,-1.8112,-1.8007,-1.8213,-1.8408,-1.8739,-1.9029,-2.0317,-1.9911,-1.9568,-1.9691,-1.9899,-1.9909,-1.9693,-1.9414,-1.96,-1.96,-1.9424,-1.9275,-1.9053,-1.8841,-1.9053,-1.8789,-1.8247,-1.8496,-1.8486,-1.8144,-1.7845,-1.7524,-1.712,-1.7167,-1.7209,-1.7123,-1.7386,-1.7478,-1.7553,-1.7748,-1.8008,-1.79,-1.7861,-1.7803,-1.7402,-1.695,-1.6736,-1.6709,-1.6328,-1.6299,-1.659,-1.6629,-1.6629,-1.6609,-1.6599,-1.6638,-1.6716,-1.6746,-1.6746,-1.6736,-1.6748,-1.6775,-1.6748,-1.6387,-1.6353,-1.6363,-1.6204,-1.6246,-1.6273,-1.6614,-1.6849,-1.6959,-1.6947,-1.6746,-1.6949,-1.7155,-1.7202,-1.7184,-1.7277,-1.7166,-1.6651,-1.653,-1.6785,-1.7137,-1.7641,-1.7823,-1.7672,-1.7715,-1.7879,-1.7797,-1.7633,-1.7633,-1.7825,-1.8328,-1.8596,-1.8874,-1.9307,-1.9553,-1.9798,-1.9798,-1.9798,-1.9748,-1.966,-1.9648,-1.9535,-1.9384,-1.902,-1.8807,-1.8253,-1.7687,-1.7209,-1.6807,-1.6543,-1.7076,-1.7497,-1.7807,-1.7887,-1.7727,-1.7706,-1.7626,-1.7727,-1.7983,-1.8109,-1.8257,-1.8502,-1.993,-2.0361,-2.0312,-2.0117,-1.9932,-1.9912,-1.9863,-1.9727,-1.9531,-1.9795,-1.999,-1.9551,-1.9414,-1.9514,-1.9355,-1.9141,-1.8984,-1.9053,-1.9092,-1.8965,-1.8857,-1.835,-1.7803,-1.7633,-1.7633,-1.7652,-1.7744,-1.7842,-1.7852,-1.7939,-1.8008,-1.8008,-1.8008,-1.7935,-1.7793,-1.7402,-1.7227,-1.7158,-1.6777,-1.658,-1.6697,-1.6736,-1.6697,-1.6697,-1.6726,-1.6914,-1.7207,-1.7519,-1.751,-1.7236,-1.7207,-1.7373,-1.7549,-1.7217,-1.6953,-1.6914,-1.6709,-1.6562,-1.6551,-1.6658,-1.6863,-1.7178,-1.7207,-1.7217,-1.7207,-1.7293,-1.7193,-1.6894,-1.6658,-1.6475,-1.6238,-1.6257,-1.6447,-1.6859,-1.7514,-1.7894,-1.7651,-1.7605,-1.7605,-1.7605,-1.7567,-1.7545,-1.7595,-1.7772,-1.8104,-1.8521,-1.8833,-1.9111,-1.9359,-1.9657,-1.9605,-1.9747,-1.9747,-1.9786,-1.9748,-1.9673,-1.956,-1.9459,-1.8882,-1.8078,-1.7463,-1.6835,-1.6644,-1.671,-1.6921,-1.7201,-1.7034,-1.6858,-1.6942,-1.716,-1.7123,-1.7212,-1.7165,-1.7271,-1.7626,-2.0155,-2.0605,-2.0615,-2.0458,-2.0195,-2.0185,-2.0185,-2.0137,-1.9961,-2.0116,-2.0419,-2.0106,-1.9853,-1.9893,-1.9853,-1.96,-1.9346,-1.9473,-1.9443,-1.9277,-1.9238,-1.8965,-1.8584,-1.8398,-1.8237,-1.8208,-1.8086,-1.8008,-1.7998,-1.8008,-1.8008,-1.8008,-1.8008,-1.8008,-1.7969,-1.7607,-1.749,-1.7529,-1.7236,-1.707,-1.7223,-1.7233,-1.7243,-1.7243,-1.7275,-1.7412,-1.7666,-1.7881,-1.7881,-1.7695,-1.7666,-1.7764,-1.793,-1.7617,-1.7416,-1.7363,-1.7129,-1.7002,-1.7051,-1.7148,-1.735,-1.7588,-1.7646,-1.7637,-1.7598,-1.751,-1.7236,-1.7044,-1.6602,-1.6396,-1.6377,-1.6525,-1.6631,-1.6815,-1.7431,-1.7699,-1.7286,-1.7177,-1.7214,-1.7204,-1.7233,-1.7233,-1.7212,-1.7352,-1.7632,-1.7941,-1.813,-1.8398,-1.8688,-1.9071,-1.9254,-1.9176,-1.9449,-1.9501,-1.9449,-1.9362,-1.9443,-1.9432,-1.9183,-1.8393,-1.7634,-1.6932,-1.6735,-1.6597,-1.6559,-1.6513,-1.6513,-1.6513,-1.6607,-1.6701,-1.6534,-1.6543,-1.6637,-1.6829,-1.71,-2.0556,-2.0615,-2.0615,-2.0615,-2.0586,-2.0605,-2.0566,-2.0595,-2.0537,-2.0556,-2.0586,-2.0605,-2.0293,-2.0019,-2.0321,-2.0165,-1.9529,-1.9844,-1.9746,-1.9609,-1.9531,-1.9453,-1.9394,-1.8906,-1.8637,-1.851,-1.8188,-1.8086,-1.8037,-1.8008,-1.8008,-1.8008,-1.8008,-1.8008,-1.7959,-1.7656,-1.7686,-1.7842,-1.7627,-1.7588,-1.7769,-1.7852,-1.7842,-1.7842,-1.7852,-1.7871,-1.7959,-1.8066,-1.8052,-1.8042,-1.8037,-1.7988,-1.7959,-1.7627,-1.75,-1.749,-1.7471,-1.7451,-1.748,-1.7734,-1.7939,-1.7949,-1.7959,-1.8008,-1.791,-1.7686,-1.75,-1.7451,-1.7019,-1.6804,-1.6804,-1.7129,-1.7187,-1.708,-1.7344,-1.7239,-1.6931,-1.6755,-1.6697,-1.6697,-1.6699,-1.6687,-1.6778,-1.6961,-1.7186,-1.7722,-1.7801,-1.7935,-1.8171,-1.8449,-1.836,-1.8097,-1.8528,-1.915,-1.9097,-1.8994,-1.9144,-1.9202,-1.9058,-1.8507,-1.7694,-1.7086,-1.687,-1.676,-1.6848,-1.6735,-1.6513,-1.6513,-1.6525,-1.6513,-1.6513,-1.6513,-1.6543,-1.6778,-1.7068,-2.0254,-2.0615,-2.0615,-2.0615,-2.0615,-2.0615,-2.0625,-2.0635,-2.0625,-2.0644,-2.0615,-2.0615,-2.0546,-2.042,-2.0546,-2.0478,-2.0273,-2.0342,-2.039,-2.0361,-2.0331,-2.0331,-2.0117,-1.9457,-1.8958,-1.8705,-1.8539,-1.8305,-1.8115,-1.8037,-1.8008,-1.8008,-1.8008,-1.8008,-1.7978,-1.791,-1.79,-1.7954,-1.79,-1.7891,-1.7959,-1.8008,-1.8008,-1.8008,-1.8008,-1.8018,-1.8086,-1.833,-1.8461,-1.8428,-1.8213,-1.8066,-1.7993,-1.792,-1.7832,-1.7832,-1.7842,-1.7861,-1.7891,-1.793,-1.8008,-1.8008,-1.8008,-1.8008,-1.8008,-1.793,-1.7861,-1.7803,-1.75,-1.7266,-1.7266,-1.7314,-1.7471,-1.7607,-1.7734,-1.7803,-1.7646,-1.7116,-1.6824,-1.6755,-1.6765,-1.6707,-1.6726,-1.6823,-1.7092,-1.7481,-1.7571,-1.7593,-1.768,-1.7807,-1.7545,-1.7219,-1.7852,-1.8421,-1.8194,-1.8197,-1.841,-1.8732,-1.8741,-1.8747,-1.7921,-1.772,-1.7658,-1.7451,-1.7225,-1.7036,-1.6789,-1.6622,-1.666,-1.6575,-1.6525,-1.6575,-1.6665,-1.6854,-1.6991,-2.0664,-2.0898,-2.1103,-2.1222,-2.1182,-2.1191,-2.1231,-2.1143,-2.0957,-2.0879,-2.083,-2.0713,-2.0615,-2.0615,-2.0615,-2.0605,-2.0615,-2.0615,-2.0684,-2.0752,-2.0693,-2.038,-2.0053,-1.9591,-1.9117,-1.9047,-1.8754,-1.8471,-1.8286,-1.81,-1.8008,-1.8008,-1.8027,-1.8008,-1.8008,-1.7983,-1.7998,-1.8008,-1.8008,-1.8008,-1.8008,-1.8008,-1.8008,-1.8008,-1.8018,-1.8076,-1.8286,-1.8471,-1.8578,-1.8549,-1.8403,-1.8276,-1.8208,-1.8115,-1.8018,-1.8008,-1.8008,-1.8008,-1.8008,-1.8008,-1.8008,-1.8008,-1.8008,-1.8008,-1.8008,-1.8008,-1.8008,-1.7969,-1.7822,-1.7676,-1.7686,-1.7686,-1.7822,-1.792,-1.8008,-1.8008,-1.793,-1.7564,-1.7301,-1.7301,-1.7383,-1.735,-1.7291,-1.7116,-1.7105,-1.7525,-1.685,-1.6824,-1.6838,-1.6919,-1.6726,-1.6687,-1.7302,-1.7578,-1.7274,-1.7313,-1.758,-1.799,-1.8386,-1.8533,-1.8358,-1.845,-1.8657,-1.8254,-1.7752,-1.7451,-1.7225,-1.7024,-1.6785,-1.6622,-1.6575,-1.6663,-1.6782,-1.6903,-1.7039,-2.12,-2.1229,-2.1709,-2.1936,-2.1936,-2.1906,-2.1836,-2.1797,-2.1494,-2.1229,-2.1092,-2.0692,-2.032,-2.0341,-2.002,-2.0059,-2.0085,-2.0139,-2.0114,-2.0251,-2.0086,-1.9687,-1.9259,-1.8968,-1.8855,-1.9402,-1.8848,-1.8493,-1.8353,-1.8339,-1.8379,-1.8252,-1.8242,-1.835,-1.8262,-1.7919,-1.7948,-1.8105,-1.7808,-1.7905,-1.81,-1.8154,-1.8184,-1.832,-1.833,-1.8457,-1.8676,-1.8822,-1.8851,-1.8792,-1.864,-1.8611,-1.8588,-1.8237,-1.8008,-1.8008,-1.8008,-1.8008,-1.8008,-1.8008,-1.8008,-1.8008,-1.8008,-1.8008,-1.8008,-1.8008,-1.8008,-1.8008,-1.7949,-1.7949,-1.8008,-1.7949,-1.7959,-1.8008,-1.8008,-1.8008,-1.8008,-1.8008,-1.792,-1.792,-1.7793,-1.7754,-1.7734,-1.7627,-1.7549,-1.7376,-1.6672,-1.6194,-1.6267,-1.6128,-1.6073,-1.5979,-1.65,-1.6687,-1.6443,-1.6793,-1.7003,-1.7291,-1.7816,-1.8251,-1.8498,-1.871,-1.8746,-1.8596,-1.8218,-1.7978,-1.7739,-1.7564,-1.7262,-1.6814,-1.6839,-1.7187,-1.7162,-1.7011,-1.7127,-2.12,-2.1229,-2.1699,-2.1894,-2.1894,-2.1894,-2.1851,-2.1875,-2.1629,-2.1522,-2.1028,-2.018,-1.9661,-1.9403,-1.8293,-1.8079,-1.8533,-1.879,-1.8888,-1.8956,-1.8853,-1.8549,-1.8246,-1.8046,-1.7917,-1.7877,-1.7949,-1.8021,-1.811,-1.8621,-1.8502,-1.887,-1.8814,-1.8805,-1.8392,-1.8054,-1.7616,-1.787,-1.7383,-1.7374,-1.7957,-1.8184,-1.8308,-1.8555,-1.8538,-1.8726,-1.9018,-1.9428,-1.9697,-1.9595,-1.8826,-1.8695,-1.8638,-1.8203,-1.7909,-1.7896,-1.7862,-1.7828,-1.7828,-1.794,-1.7974,-1.8008,-1.8008,-1.8008,-1.8008,-1.8008,-1.8008,-1.8008,-1.8008,-1.8008,-1.8008,-1.8008,-1.8008,-1.8008,-1.8008,-1.8008,-1.8008,-1.8008,-1.8008,-1.8008,-1.8008,-1.8008,-1.793,-1.7891,-1.7812,-1.7588,-1.707,-1.6689,-1.6656,-1.6225,-1.5733,-1.5624,-1.5575,-1.5661,-1.5584,-1.6189,-1.6595,-1.6715,-1.7196,-1.7947,-1.8248,-1.8596,-1.868,-1.8796,-1.8782,-1.8581,-1.838,-1.8129,-1.7903,-1.7589,-1.7664,-1.7765,-1.7618,-1.7483,-1.747,-2.1572,-2.1631,-2.2223,-2.2135,-2.1635,-2.1583,-2.1238,-2.0672,-2.0406,-2.0175,-1.9738,-1.9094,-1.8707,-1.8523,-1.7987,-1.7746,-1.7939,-1.8094,-1.8297,-1.8395,-1.8289,-1.7833,-1.7293,-1.7047,-1.6347,-1.6121,-1.6484,-1.7108,-1.715,-1.7333,-1.7774,-1.7553,-1.7599,-1.7599,-1.7498,-1.6922,-1.6872,-1.7068,-1.6689,-1.6581,-1.7222,-1.7322,-1.7465,-1.7546,-1.7673,-1.7707,-1.7959,-1.8085,-1.821,-1.8095,-1.7708,-1.7576,-1.7468,-1.7314,-1.7062,-1.7234,-1.7279,-1.7285,-1.7285,-1.7285,-1.7457,-1.794,-1.7974,-1.8008,-1.8008,-1.8008,-1.7944,-1.7993,-1.8008,-1.8008,-1.8008,-1.8027,-1.8008,-1.8008,-1.8008,-1.8008,-1.8008,-1.8008,-1.8008,-1.8008,-1.8008,-1.8008,-1.8008,-1.7988,-1.7998,-1.7764,-1.7402,-1.7197,-1.7031,-1.6473,-1.5849,-1.5752,-1.5723,-1.5605,-1.5625,-1.5949,-1.6253,-1.636,-1.6613,-1.7341,-1.7885,-1.8197,-1.8828,-1.9332,-1.9258,-1.8833,-1.8882,-1.8594,-1.848,-1.8329,-1.8216,-1.8118,-1.8035,-1.7987,-1.7974,-2.1524,-2.156,-2.2115,-2.181,-2.1025,-2.0935,-2.0423,-1.9567,-1.9175,-1.8988,-1.8594,-1.8064,-1.7771,-1.7738,-1.7565,-1.7415,-1.7639,-1.759,-1.7689,-1.7712,-1.7588,-1.7066,-1.6424,-1.59,-1.5326,-1.4734,-1.5032,-1.5759,-1.6389,-1.6626,-1.6384,-1.6619,-1.6398,-1.6258,-1.6415,-1.6234,-1.6023,-1.6051,-1.5787,-1.5787,-1.6059,-1.6217,-1.6258,-1.6258,-1.6258,-1.6585,-1.7052,-1.7158,-1.7136,-1.7009,-1.673,-1.6418,-1.6187,-1.596,-1.5955,-1.6178,-1.6316,-1.6377,-1.6332,-1.6324,-1.6567,-1.7044,-1.7329,-1.7401,-1.7483,-1.7367,-1.7579,-1.7837,-1.791,-1.8132,-1.8284,-1.8213,-1.8174,-1.8135,-1.8086,-1.8008,-1.8008,-1.8008,-1.8008,-1.8008,-1.8008,-1.8008,-1.8008,-1.8008,-1.8008,-1.7881,-1.7539,-1.7353,-1.7168,-1.6833,-1.6365,-1.6182,-1.6045,-1.5898,-1.5849,-1.5907,-1.6068,-1.6062,-1.629,-1.678,-1.7255,-1.7694,-1.8359,-1.8895,-1.8936,-1.8586,-1.8816,-1.9108,-1.9045,-1.8907,-1.8643,-1.8494,-1.8483,-1.8461,-1.8474,-2.0205,-2.0192,-2.0031,-1.9807,-1.9716,-1.9716,-1.9625,-1.9397,-1.9195,-1.9043,-1.8193,-1.7596,-1.7055,-1.6795,-1.6359,-1.5994,-1.5959,-1.6206,-1.632,-1.6306,-1.6123,-1.576,-1.4977,-1.4767,-1.469,-1.4218,-1.4313,-1.4887,-1.5655,-1.6483,-1.6871,-1.6806,-1.6645,-1.7016,-1.6429,-1.5688,-1.5866,-1.6188,-1.5389,-1.535,-1.6267,-1.6709,-1.683,-1.6863,-1.6863,-1.6774,-1.6701,-1.6718,-1.6806,-1.6823,-1.6195,-1.6113,-1.6356,-1.566,-1.516,-1.5088,-1.5295,-1.561,-1.5455,-1.5465,-1.5608,-1.5953,-1.5866,-1.5755,-1.6129,-1.6411,-1.6815,-1.7677,-1.766,-1.7889,-1.8303,-1.8498,-1.8498,-1.817,-1.776,-1.7773,-1.7862,-1.7647,-1.7681,-1.8008,-1.8008,-1.8008,-1.8008,-1.8008,-1.7988,-1.7852,-1.7705,-1.7529,-1.7334,-1.7038,-1.6843,-1.666,-1.6416,-1.6229,-1.6161,-1.6219,-1.6153,-1.5999,-1.6188,-1.6436,-1.6922,-1.7359,-1.7357,-1.7781,-1.7972,-1.8447,-1.8773,-1.9113,-1.9444,-1.9484,-1.9221,-1.907,-1.8945,-1.8958,-1.897,-1.8485,-1.9127,-1.9362,-1.9085,-1.8503,-1.8503,-1.8033,-1.7483,-1.739,-1.7242,-1.6894,-1.6404,-1.6067,-1.5937,-1.5799,-1.5752,-1.5685,-1.5772,-1.5772,-1.5645,-1.5585,-1.5398,-1.5129,-1.4843,-1.4616,-1.4362,-1.4238,-1.4421,-1.5085,-1.5273,-1.5477,-1.5609,-1.5519,-1.5365,-1.5718,-1.4966,-1.4909,-1.4941,-1.4657,-1.465,-1.5133,-1.543,-1.5519,-1.5553,-1.5553,-1.5594,-1.5594,-1.547,-1.547,-1.5428,-1.4936,-1.4935,-1.5095,-1.475,-1.4398,-1.4097,-1.4266,-1.4572,-1.4818,-1.4853,-1.5067,-1.5491,-1.5602,-1.5828,-1.5855,-1.591,-1.6062,-1.6644,-1.6728,-1.7055,-1.7386,-1.7087,-1.6981,-1.6848,-1.698,-1.7068,-1.7113,-1.7207,-1.7242,-1.7647,-1.7974,-1.794,-1.794,-1.8008,-1.8008,-1.7949,-1.7881,-1.7803,-1.7617,-1.7402,-1.7246,-1.7119,-1.6865,-1.659,-1.6551,-1.6551,-1.6551,-1.645,-1.643,-1.6667,-1.687,-1.7108,-1.7112,-1.7288,-1.7667,-1.8135,-1.8632,-1.8876,-1.9038,-1.9426,-1.9786,-1.9521,-1.9296,-1.9434,-1.9458,-1.6779,-1.7702,-1.8336,-1.8041,-1.7271,-1.7225,-1.6716,-1.592,-1.592,-1.5832,-1.5678,-1.5544,-1.5477,-1.5531,-1.5718,-1.5812,-1.5818,-1.5825,-1.5772,-1.5698,-1.5685,-1.5511,-1.5211,-1.499,-1.4836,-1.4623,-1.4355,-1.4475,-1.4512,-1.4511,-1.447,-1.4195,-1.4569,-1.4367,-1.4179,-1.4188,-1.4294,-1.4287,-1.4238,-1.4203,-1.4272,-1.4237,-1.4208,-1.4166,-1.413,-1.4088,-1.4088,-1.4208,-1.4208,-1.4208,-1.425,-1.4314,-1.4294,-1.4273,-1.408,-1.3898,-1.3988,-1.4109,-1.4298,-1.4384,-1.4676,-1.5042,-1.5389,-1.511,-1.5226,-1.5452,-1.5771,-1.5975,-1.6038,-1.6139,-1.6242,-1.622,-1.6209,-1.609,-1.5777,-1.5917,-1.6062,-1.6228,-1.6594,-1.7104,-1.7467,-1.7759,-1.7794,-1.7974,-1.8008,-1.8008,-1.8008,-1.8008,-1.7861,-1.7656,-1.7607,-1.75,-1.7402,-1.7165,-1.7135,-1.7067,-1.7009,-1.6879,-1.6882,-1.6824,-1.6947,-1.6981,-1.7009,-1.722,-1.7396,-1.7544,-1.7806,-1.8215,-1.8608,-1.898,-1.9333,-1.9592,-1.9619,-1.9759,-1.9962,-1.5298,-1.5621,-1.5967,-1.6103,-1.6015,-1.592,-1.592,-1.5825,-1.5825,-1.5691,-1.5524,-1.5431,-1.5571,-1.5732,-1.5738,-1.5825,-1.5825,-1.5825,-1.5705,-1.5551,-1.5411,-1.5364,-1.5197,-1.5135,-1.5022,-1.4934,-1.4643,-1.4676,-1.4861,-1.4703,-1.4549,-1.4489,-1.4509,-1.4329,-1.4222,-1.4195,-1.4122,-1.4102,-1.4088,-1.4088,-1.4088,-1.4088,-1.4088,-1.4088,-1.4088,-1.4088,-1.4088,-1.4088,-1.4088,-1.4088,-1.4088,-1.4088,-1.4088,-1.4088,-1.4028,-1.4001,-1.3981,-1.4053,-1.4104,-1.3865,-1.3479,-1.3539,-1.3788,-1.4203,-1.4284,-1.4276,-1.4663,-1.5442,-1.5442,-1.5942,-1.6412,-1.6794,-1.5863,-1.5478,-1.5058,-1.5065,-1.5237,-1.5314,-1.5752,-1.642,-1.6925,-1.732,-1.7647,-1.7794,-1.7974,-1.8008,-1.8008,-1.8008,-1.8008,-1.7871,-1.79,-1.7871,-1.7891,-1.7842,-1.7861,-1.773,-1.7525,-1.7385,-1.7337,-1.7087,-1.6883,-1.6905,-1.7049,-1.6839,-1.6949,-1.6977,-1.7019,-1.7356,-1.7823,-1.8441,-1.89,-1.9228,-1.9666,-1.9923,-2.0253,-1.5075,-1.517,-1.5631,-1.5825,-1.5825,-1.5825,-1.5825,-1.5825,-1.5825,-1.5778,-1.5658,-1.5665,-1.5671,-1.5758,-1.5825,-1.5825,-1.5825,-1.5825,-1.5738,-1.5705,-1.5638,-1.5585,-1.5458,-1.5311,-1.5269,-1.5209,-1.4963,-1.4943,-1.517,-1.505,-1.507,-1.5023,-1.4897,-1.4763,-1.4623,-1.4416,-1.4275,-1.4135,-1.4102,-1.4137,-1.4088,-1.4088,-1.4088,-1.4088,-1.4088,-1.4088,-1.4088,-1.4088,-1.4088,-1.4088,-1.4088,-1.4088,-1.4088,-1.4088,-1.4088,-1.4088,-1.4088,-1.4088,-1.4088,-1.3868,-1.3768,-1.3761,-1.3854,-1.3901,-1.3881,-1.4035,-1.4243,-1.4608,-1.4776,-1.5228,-1.5135,-1.5012,-1.4547,-1.4485,-1.4456,-1.4411,-1.4445,-1.4576,-1.4964,-1.5698,-1.6422,-1.7024,-1.7341,-1.7613,-1.7828,-1.8008,-1.8008,-1.8008,-1.8008,-1.8008,-1.8008,-1.8008,-1.8008,-1.8008,-1.8008,-1.7964,-1.7954,-1.7842,-1.7711,-1.7465,-1.719,-1.7149,-1.7189,-1.6846,-1.6621,-1.6755,-1.681,-1.6665,-1.7037,-1.7761,-1.8432,-1.9044,-1.9496,-1.9906,-2.0334,-1.5062,-1.5144,-1.5618,-1.5825,-1.5825,-1.5825,-1.5825,-1.5825,-1.5825,-1.5825,-1.5825,-1.5825,-1.5825,-1.5825,-1.5825,-1.5825,-1.5825,-1.5825,-1.5825,-1.5805,-1.5798,-1.5825,-1.5752,-1.5651,-1.5518,-1.5458,-1.5277,-1.5237,-1.5511,-1.5438,-1.5424,-1.5398,-1.5324,-1.5177,-1.4934,-1.4807,-1.4543,-1.4396,-1.4342,-1.4318,-1.4262,-1.4229,-1.4142,-1.4122,-1.4088,-1.4088,-1.4088,-1.4088,-1.4088,-1.4088,-1.4088,-1.4088,-1.4088,-1.4088,-1.4088,-1.4088,-1.4088,-1.4088,-1.4088,-1.4088,-1.4088,-1.4015,-1.4035,-1.4062,-1.4088,-1.4088,-1.4208,-1.4166,-1.4166,-1.4082,-1.4082,-1.4151,-1.4036,-1.406,-1.3853,-1.3804,-1.3841,-1.3939,-1.4426,-1.5012,-1.5613,-1.6137,-1.7237,-1.7568,-1.7895,-1.8022,-1.8008,-1.8008,-1.8008,-1.8008,-1.8008,-1.8008,-1.8008,-1.8008,-1.8008,-1.7998,-1.7964,-1.7954,-1.7852,-1.7818,-1.7629,-1.7584,-1.7519,-1.7393,-1.7139,-1.6816,-1.6699,-1.6657,-1.6829,-1.7138,-1.7793,-1.8447,-1.8804,-1.9251,-2.0076,-1.5169,-1.5411,-1.5705,-1.5825,-1.5825,-1.5825,-1.5825,-1.5825,-1.5825,-1.5825,-1.5825,-1.5825,-1.5825,-1.5825,-1.5825,-1.5825,-1.5825,-1.5825,-1.5825,-1.5825,-1.5825,-1.5825,-1.5818,-1.5772,-1.5725,-1.5732,-1.5565,-1.5524,-1.5772,-1.5585,-1.5598,-1.5705,-1.5651,-1.5464,-1.5023,-1.5015,-1.4995,-1.4975,-1.4928,-1.471,-1.4569,-1.4509,-1.4396,-1.4282,-1.4242,-1.4262,-1.4262,-1.4269,-1.4255,-1.4182,-1.4168,-1.4148,-1.4095,-1.4088,-1.4088,-1.4088,-1.4088,-1.4088,-1.4088,-1.4088,-1.4088,-1.4088,-1.4088,-1.4088,-1.4088,-1.4088,-1.4088,-1.4088,-1.4088,-1.4088,-1.4082,-1.4055,-1.3881,-1.3748,-1.3581,-1.346,-1.3538,-1.3574,-1.4093,-1.4424,-1.4539,-1.4977,-1.6444,-1.7546,-1.7927,-1.8056,-1.8037,-1.8008,-1.8027,-1.8008,-1.8008,-1.8008,-1.8008,-1.8008,-1.8008,-1.8008,-1.8008,-1.8008,-1.7998,-1.792,-1.792,-1.7837,-1.7822,-1.7832,-1.7617,-1.7266,-1.6985,-1.6713,-1.684,-1.6923,-1.7216,-1.771,-1.8066,-1.8679,-1.9597,-1.5137,-1.5424,-1.5664,-1.5825,-1.5825,-1.5825,-1.5825,-1.5825,-1.5825,-1.5825,-1.5825,-1.5825,-1.5825,-1.5825,-1.5825,-1.5825,-1.5825,-1.5825,-1.5825,-1.5825,-1.5825,-1.5825,-1.5825,-1.5825,-1.5825,-1.5805,-1.5712,-1.5685,-1.5812,-1.5685,-1.5712,-1.5771,-1.5805,-1.5618,-1.5351,-1.5231,-1.5177,-1.5042,-1.4988,-1.4948,-1.4874,-1.4854,-1.48,-1.468,-1.4666,-1.4653,-1.4646,-1.4633,-1.4529,-1.4402,-1.4376,-1.4309,-1.4188,-1.4148,-1.4128,-1.4115,-1.4108,-1.4088,-1.4088,-1.4088,-1.4088,-1.4095,-1.4088,-1.4088,-1.4088,-1.4088,-1.4088,-1.4088,-1.4088,-1.4088,-1.4082,-1.4082,-1.3981,-1.3935,-1.3794,-1.3586,-1.3575,-1.3568,-1.3782,-1.3947,-1.408,-1.5356,-1.6773,-1.7488,-1.7898,-1.8305,-1.8327,-1.8139,-1.8096,-1.8037,-1.8008,-1.8008,-1.8008,-1.8008,-1.8008,-1.8008,-1.8008,-1.8008,-1.8008,-1.7998,-1.8008,-1.8008,-1.7988,-1.792,-1.7832,-1.7705,-1.7285,-1.6936,-1.6725,-1.6769,-1.7015,-1.7363,-1.7869,-1.8494,-1.9258,-1.5224,-1.5418,-1.5705,-1.5825,-1.5825,-1.5825,-1.5825,-1.5825,-1.5825,-1.5825,-1.5825,-1.5825,-1.5825,-1.5825,-1.5825,-1.5825,-1.5825,-1.5825,-1.5825,-1.5825,-1.5825,-1.5825,-1.5825,-1.5825,-1.5825,-1.5825,-1.5825,-1.5825,-1.5825,-1.5825,-1.5825,-1.5771,-1.5825,-1.5725,-1.5585,-1.5518,-1.5478,-1.5351,-1.5331,-1.5251,-1.5164,-1.509,-1.5095,-1.5008,-1.4975,-1.4981,-1.5001,-1.4981,-1.4883,-1.473,-1.4636,-1.4583,-1.4429,-1.4425,-1.4432,-1.4396,-1.4396,-1.4452,-1.4472,-1.4472,-1.4422,-1.4275,-1.4162,-1.4095,-1.4088,-1.4088,-1.4088,-1.4088,-1.4095,-1.4088,-1.4088,-1.4088,-1.4068,-1.4015,-1.3961,-1.3753,-1.3733,-1.3761,-1.3748,-1.3886,-1.4024,-1.5466,-1.6731,-1.7453,-1.7944,-1.8309,-1.8665,-1.8408,-1.8163,-1.8091,-1.8047,-1.8008,-1.8008,-1.8008,-1.8008,-1.8008,-1.8008,-1.8008,-1.8037,-1.8066,-1.8008,-1.8008,-1.8008,-1.8008,-1.793,-1.7773,-1.7461,-1.7181,-1.6998,-1.6786,-1.6738,-1.7171,-1.7711,-1.8302,-1.8938,-1.5384,-1.5451,-1.5718,-1.5825,-1.5825,-1.5825,-1.5825,-1.5825,-1.5825,-1.5825,-1.5825,-1.5825,-1.5825,-1.5825,-1.5825,-1.5825,-1.5825,-1.5825,-1.5825,-1.5825,-1.5825,-1.5825,-1.5825,-1.5825,-1.5825,-1.5825,-1.5825,-1.5825,-1.5825,-1.5825,-1.5825,-1.5825,-1.5825,-1.5785,-1.5765,-1.5745,-1.5725,-1.5665,-1.5645,-1.5551,-1.5444,-1.5404,-1.5311,-1.5217,-1.5196,-1.5189,-1.5182,-1.5156,-1.5109,-1.5042,-1.5008,-1.5001,-1.4988,-1.5001,-1.5008,-1.4988,-1.4948,-1.4914,-1.4894,-1.4867,-1.4794,-1.4543,-1.4329,-1.4188,-1.4108,-1.4128,-1.4155,-1.4142,-1.4142,-1.4115,-1.4095,-1.4088,-1.4082,-1.4075,-1.4075,-1.4028,-1.4028,-1.4028,-1.4021,-1.4005,-1.3843,-1.4686,-1.5737,-1.6596,-1.744,-1.8033,-1.834,-1.8587,-1.8361,-1.8222,-1.8159,-1.8008,-1.8008,-1.8008,-1.8027,-1.8096,-1.8047,-1.8057,-1.8144,-1.8139,-1.8096,-1.8008,-1.8008,-1.8008,-1.8008,-1.7861,-1.7646,-1.7461,-1.7295,-1.7108,-1.7046,-1.7022,-1.7574,-1.7936,-1.8448,-1.5324,-1.5658,-1.5751,-1.5825,-1.5825,-1.5825,-1.5825,-1.5825,-1.5825,-1.5825,-1.5825,-1.5825,-1.5825,-1.5825,-1.5825,-1.5825,-1.5778,-1.5825,-1.5825,-1.5778,-1.5581,-1.573,-1.5778,-1.573,-1.5778,-1.5825,-1.5825,-1.5825,-1.5825,-1.5825,-1.5825,-1.5825,-1.5825,-1.5825,-1.5825,-1.5825,-1.5825,-1.5825,-1.5825,-1.5758,-1.5705,-1.5665,-1.5578,-1.5531,-1.5498,-1.5491,-1.5498,-1.5511,-1.5451,-1.5297,-1.5277,-1.5217,-1.5015,-1.5015,-1.5008,-1.5008,-1.5001,-1.5001,-1.5015,-1.5022,-1.4937,-1.4921,-1.478,-1.4442,-1.4302,-1.4255,-1.4309,-1.4295,-1.4315,-1.4342,-1.4229,-1.4162,-1.4122,-1.4088,-1.4088,-1.4088,-1.4088,-1.4088,-1.4088,-1.4055,-1.3908,-1.4255,-1.5253,-1.5855,-1.6661,-1.744,-1.8004,-1.8257,-1.8536,-1.8397,-1.8407,-1.8301,-1.8223,-1.8291,-1.8262,-1.8311,-1.8159,-1.8091,-1.8198,-1.8217,-1.8076,-1.8008,-1.8008,-1.8008,-1.8008,-1.7978,-1.79,-1.7734,-1.7588,-1.7715,-1.7674,-1.7484,-1.7409,-1.7805,-1.8059,-1.5404,-1.5805,-1.5825,-1.5825,-1.5825,-1.5825,-1.5581,-1.5194,-1.554,-1.5825,-1.5825,-1.5825,-1.5825,-1.5825,-1.5778,-1.5534,-1.4997,-1.5534,-1.5534,-1.4949,-1.5051,-1.5391,-1.5486,-1.5337,-1.5384,-1.5534,-1.5778,-1.5825,-1.5683,-1.5778,-1.5825,-1.5825,-1.5825,-1.5778,-1.5825,-1.5825,-1.5825,-1.5825,-1.5825,-1.5825,-1.5778,-1.573,-1.5778,-1.5683,-1.5683,-1.5683,-1.5683,-1.5683,-1.5617,-1.5538,-1.5571,-1.5504,-1.5324,-1.5324,-1.5324,-1.5351,-1.5351,-1.5364,-1.5371,-1.5351,-1.5303,-1.5216,-1.5176,-1.4934,-1.4696,-1.4609,-1.4589,-1.4563,-1.4609,-1.4609,-1.4416,-1.4249,-1.4168,-1.4095,-1.4088,-1.4088,-1.4088,-1.4088,-1.4088,-1.4088,-1.4188,-1.4384,-1.488,-1.5338,-1.5854,-1.6547,-1.7159,-1.7591,-1.8107,-1.8469,-1.8658,-1.8779,-1.8691,-1.8662,-1.8623,-1.8603,-1.8555,-1.8451,-1.8403,-1.8344,-1.8144,-1.8047,-1.8076,-1.8047,-1.8008,-1.8008,-1.8037,-1.7998,-1.792,-1.8037,-1.8076,-1.7891,-1.7715,-1.7762,-1.7971,-1.5538,-1.5778,-1.5683,-1.5439,-1.5439,-1.5296,-1.4711,-1.392,-1.4806,-1.5439,-1.5289,-1.5397,-1.5194,-1.4908,-1.4902,-1.4465,-1.4172,-1.4465,-1.437,-1.3728,-1.3734,-1.4124,-1.4418,-1.4411,-1.422,-1.5003,-1.5248,-1.4711,-1.5194,-1.5003,-1.4854,-1.5486,-1.5201,-1.4956,-1.4806,-1.4854,-1.4758,-1.4704,-1.4854,-1.4949,-1.5343,-1.554,-1.5588,-1.5296,-1.5242,-1.5248,-1.5296,-1.5391,-1.5534,-1.5581,-1.5568,-1.5488,-1.5711,-1.5698,-1.5752,-1.5752,-1.5698,-1.5691,-1.5678,-1.5671,-1.5598,-1.5504,-1.5424,-1.5284,-1.5144,-1.4983,-1.4923,-1.4881,-1.4901,-1.4823,-1.4663,-1.4569,-1.4489,-1.4376,-1.4309,-1.4275,-1.4242,-1.4182,-1.4088,-1.4088,-1.4124,-1.4328,-1.4405,-1.4852,-1.5054,-1.5703,-1.6341,-1.6838,-1.7293,-1.7995,-1.8434,-1.8762,-1.899,-1.8948,-1.9072,-1.9043,-1.9004,-1.8926,-1.8783,-1.8646,-1.8555,-1.8369,-1.8154,-1.8271,-1.8389,-1.8193,-1.8154,-1.8164,-1.8203,-1.8223,-1.8242,-1.8203,-1.8135,-1.8135,-1.8125,-1.5364,-1.5676,-1.4752,-1.3782,-1.2915,-1.2818,-1.2721,-1.2377,-1.2678,-1.2866,-1.2818,-1.2866,-1.2969,-1.3156,-1.3204,-1.2818,-1.2668,-1.3011,-1.2673,-1.2474,-1.2377,-1.2716,-1.2866,-1.277,-1.2721,-1.2673,-1.2818,-1.3156,-1.3253,-1.3108,-1.2915,-1.2963,-1.3108,-1.3253,-1.3258,-1.3204,-1.3253,-1.3349,-1.3349,-1.3686,-1.4076,-1.4118,-1.4022,-1.3397,-1.3011,-1.3156,-1.3156,-1.3011,-1.359,-1.407,-1.4268,-1.4848,-1.5676,-1.573,-1.5778,-1.5778,-1.5683,-1.5683,-1.5825,-1.5825,-1.5758,-1.5752,-1.5691,-1.5678,-1.5578,-1.5404,-1.5303,-1.5196,-1.5122,-1.5023,-1.495,-1.4928,-1.4841,-1.4663,-1.4543,-1.4482,-1.4416,-1.4275,-1.4135,-1.4108,-1.4108,-1.4124,-1.4166,-1.4243,-1.4412,-1.4894,-1.5579,-1.6096,-1.6359,-1.6884,-1.7506,-1.8008,-1.896,-1.9141,-1.9397,-1.9512,-1.9482,-1.9404,-1.9307,-1.915,-1.8975,-1.8818,-1.8682,-1.8779,-1.8828,-1.8545,-1.8344,-1.8442,-1.8461,-1.8403,-1.8603,-1.8652,-1.8785,-1.8815,-1.8672,-1.4075,-1.401,-1.3301,-1.2571,-1.1994,-1.1896,-1.1604,-1.1116,-1.1072,-1.073,-1.0485,-1.1263,-1.1896,-1.1848,-1.1896,-1.1361,-1.1263,-1.175,-1.1556,-1.1263,-1.1121,-1.156,-1.1512,-1.1317,-1.1707,-1.1707,-1.1848,-1.2042,-1.1702,-1.1945,-1.2042,-1.1799,-1.1799,-1.175,-1.1799,-1.1848,-1.1799,-1.1945,-1.1799,-1.1989,-1.2474,-1.2522,-1.2716,-1.1994,-1.1848,-1.1848,-1.1896,-1.1896,-1.2334,-1.2813,-1.2958,-1.3204,-1.374,-1.3842,-1.4316,-1.4704,-1.4949,-1.5201,-1.5534,-1.5635,-1.5635,-1.5683,-1.5778,-1.5657,-1.5765,-1.5605,-1.5591,-1.5498,-1.5504,-1.5464,-1.5257,-1.515,-1.5055,-1.4877,-1.4803,-1.4736,-1.4636,-1.4509,-1.4396,-1.4329,-1.4249,-1.4088,-1.4124,-1.4124,-1.425,-1.4292,-1.4936,-1.5061,-1.5379,-1.5869,-1.6445,-1.724,-1.8247,-1.9401,-2.001,-2.0077,-1.998,-1.9893,-1.9756,-1.9595,-1.937,-1.9294,-1.9228,-1.9228,-1.9072,-1.8656,-1.8568,-1.8715,-1.8627,-1.852,-1.8848,-1.9196,-1.9314,-1.9392,-1.9284,-1.2384,-1.1682,-1.1653,-1.1507,-1.1414,-1.1365,-1.073,-0.985,-0.9702,-0.9118,-0.8528,-1.0431,-1.1263,-1.1409,-1.1361,-1.0583,-1.0194,-1.0435,-1.0288,-0.9998,-0.9756,-1.0096,-1.0243,-1.0293,-1.0435,-1.0681,-1.0925,-1.0974,-1.0877,-1.0921,-1.0872,-1.1312,-1.1409,-1.1312,-1.1409,-1.1361,-1.1019,-1.0872,-1.073,-1.0534,-1.073,-1.0921,-1.1214,-1.1409,-1.1409,-1.1414,-1.1361,-1.1361,-1.1361,-1.1848,-1.1945,-1.2091,-1.2188,-1.2382,-1.2915,-1.3397,-1.3638,-1.4124,-1.4663,-1.4806,-1.5099,-1.5337,-1.5534,-1.5581,-1.5581,-1.5771,-1.5751,-1.5798,-1.5805,-1.5738,-1.5531,-1.5404,-1.5257,-1.515,-1.509,-1.4977,-1.485,-1.4743,-1.4656,-1.4569,-1.4396,-1.4202,-1.4155,-1.4148,-1.4108,-1.4102,-1.4095,-1.4088,-1.4328,-1.4977,-1.5591,-1.6492,-1.7539,-1.8749,-1.9954,-2.0439,-2.0321,-2.0225,-2.0049,-1.9936,-1.9826,-1.9821,-1.9754,-1.9588,-1.9326,-1.9026,-1.8939,-1.9036,-1.889,-1.8802,-1.9336,-1.9783,-1.9762,-1.983,-1.9793,-1.1117,-1.0391,-1.0386,-0.9752,-0.892,-0.8775,-0.8581,-0.8432,-0.8432,-0.8184,-0.8233,-0.8283,-0.8722,-0.8772,-0.8726,-0.8577,-0.892,-0.9118,-0.8825,-0.8382,-0.8627,-0.8726,-0.8821,-0.9069,-0.8676,-0.8924,-0.9164,-0.8871,-0.946,-0.9217,-0.8825,-0.9015,-0.892,-0.892,-0.8871,-0.897,-0.9164,-0.9213,-0.9213,-0.892,-0.9118,-0.9312,-0.9406,-0.9262,-0.8775,-0.8726,-0.8726,-0.8722,-0.941,-1.0293,-1.1121,-1.1116,-1.1068,-1.1116,-1.1702,-1.2091,-1.2285,-1.2624,-1.3113,-1.3253,-1.3542,-1.4172,-1.4364,-1.4752,-1.4997,-1.5534,-1.5622,-1.5771,-1.5818,-1.5818,-1.5691,-1.5691,-1.5591,-1.5531,-1.5471,-1.5237,-1.5057,-1.497,-1.4941,-1.4783,-1.4636,-1.4496,-1.4402,-1.4335,-1.4208,-1.4195,-1.4168,-1.4162,-1.4162,-1.4495,-1.4838,-1.576,-1.6772,-1.7948,-1.9097,-2.0294,-2.0498,-2.043,-2.0381,-2.0272,-2.0242,-2.0428,-2.0312,-2.0057,-1.9844,-1.9639,-1.958,-1.9368,-1.9465,-1.9521,-2.0029,-2.038,-2.0301,-2.0213,-2.0155]},{"header":{"parameterUnit":"m.s-1","parameterCategory":1,"la1":31.0,"la2":29.5877,"lo1":-88.7671,"lo2":-86.6584,"dy":0.0162,"dx":0.0185,"nx":115,"ny":88,"refTime":"2023-09-23T00:00:00:Z","depth":0,"parameterNumber":3,"parameterNumberName":"V-component_of_WINDS"},"data":[0.0,0.0,0.0,0.0,0.0,0.0,0.0,0.0,0.0,0.0,0.0,0.0,0.0,0.0,0.0,0.0,0.0,0.0,0.0,0.0,0.0,0.0,0.0,0.0,0.0,0.0,0.0,0.0,0.0,0.0,0.0,0.0,0.0,0.0,0.0,0.0,0.0,0.0,0.0,0.0,0.0,0.0,0.0,0.0,0.0,0.0,0.0,0.0,0.0,0.0,0.0,0.0,0.0,0.0,0.0,0.0,0.0,0.0,0.0,0.0,0.0,0.0,0.0,0.0,0.0,0.0,0.0,0.0,0.0,0.0,0.0,0.0,0.0,0.0,0.0,0.0,0.0,0.0,0.0,0.0,0.0,0.0,0.0,0.0,0.0,0.0,0.0,0.0,0.0,0.0,0.0,0.0,0.0,0.0,0.0,0.0,0.0,0.0,0.0,0.0,0.0,0.0,0.0,0.0,0.0,0.0,0.0,0.0,0.0,0.0,0.0,0.0,0.0,0.0,0.0,0.0,0.0,0.0,0.0,0.0,0.0,0.0,0.0,0.0,0.0,0.0,0.0,0.0,0.0,0.0,0.0,0.0,0.0,0.0,0.0,0.0,0.0,0.0,0.0,0.0,0.0,0.0,0.0,0.0,0.0,0.0,0.0,0.0,0.0,0.0,0.0,0.0,0.0,0.0,0.0,0.0,0.0,0.0,0.0,0.0,0.0,0.0,0.0,0.0,0.0,0.0,0.0,0.0,0.0,0.0,0.0,0.0,0.0,0.0,0.0,0.0,0.0,0.0,0.0,0.0,0.0,0.0,0.0,0.0,0.0,0.0,0.0,0.0,0.0,0.0,0.0,0.0,0.0,0.0,0.0,0.0,0.0,0.0,0.0,0.0,0.0,0.0,0.0,0.0,0.0,0.0,0.0,0.0,0.0,0.0,0.0,0.0,0.0,0.0,0.0,0.0,0.0,0.0,0.0,0.0,0.0,0.0,0.0,0.0,0.0,0.0,0.0,0.0,0.0,0.0,0.0,0.0,0.0,0.0,0.0,0.0,0.0,0.0,0.0,0.0,0.0,0.0,0.0,0.0,0.0,0.0,0.0,0.0,0.0,0.0,0.0,0.0,0.0,0.0,0.0,0.0,0.0,0.0,0.0,0.0,0.0,0.0,0.0,0.0,0.0,0.0,0.0,0.0,0.0,0.0,0.0,0.0,0.0,0.0,0.0,0.0,0.0,0.0,0.0,0.0,0.0,0.0,0.0,0.0,0.0,0.0,0.0,0.0,0.0,0.0,0.0,0.0,0.0,0.0,0.0,0.0,0.0,0.0,0.0,0.0,0.0,0.0,0.0,0.0,0.0,0.0,0.0,0.0,0.0,0.0,0.0,0.0,0.0,0.0,0.0,0.0,0.0,0.0,0.0,0.0,0.0,0.0,0.0,0.0,0.0,0.0,0.0,0.0,0.0,0.0,0.0,0.0,0.0,0.0,0.0,0.0,0.0,0.0,0.0,0.0,0.0,0.0,0.0,0.0,0.0,0.0,0.0,0.0,0.0,0.0,0.0,0.0,0.0,0.0,0.0,0.0,0.0,0.0,0.0,0.0,0.0,0.0,0.0,0.0,0.0,0.0,0.0,0.0,0.0,0.0,0.0,0.0,0.0,0.0,0.0,0.0,0.0,0.0,0.0,0.0,0.0,0.0,0.0,0.0,0.0,0.0,0.0,0.0,0.0,0.0,0.0,0.0,0.0,0.0,0.0,0.0,0.0,0.0,0.0,0.0,0.0,0.0,0.0,0.0,0.0,0.0,0.0,0.0,0.0,0.0,0.0,0.0,0.0,0.0,0.0,0.0,0.0,0.0,0.0,0.0,0.0,0.0,0.0,0.0,0.0,0.0,0.0,0.0,0.0,0.0,0.0,0.0,0.0,0.0,0.0,0.0,0.0,0.0,0.0,0.0,0.0,0.0,0.0,0.0,0.0,0.0,0.0,0.0,0.0,0.0,0.0,0.0,0.0,0.0,0.0,0.0,0.0,0.0,0.0,0.0,0.0,0.0,0.0,0.0,0.0,0.0,0.0,0.0,0.0,0.0,0.0,0.0,0.0,0.0,0.0,0.0,0.0,0.0,0.0,0.0,0.0,0.0,0.0,0.0,0.0,0.0,0.0,0.0,0.0,0.0,0.0,0.0,0.0,0.0,0.0,0.0,0.0,0.0,0.0,0.0,0.0,0.0,0.0,0.0,0.0,0.0,0.0,0.0,0.0,0.0,0.0,0.0,0.0,0.0,0.0,0.0,0.0,0.0,0.0,0.0,0.0,0.0,0.0,0.0,0.0,0.0,0.0,0.0,0.0,0.0,0.0,0.0,0.0,0.0,0.0,0.0,0.0,0.0,0.0,0.0,0.0,0.0,0.0,0.0,0.0,0.0,0.0,0.0,0.0,0.0,0.0,0.0,0.0,0.0,0.0,0.0,0.0,0.0,0.0,0.0,0.0,0.0,0.0,0.0,0.0,0.0,0.0,0.0,0.0,0.0,0.0,0.0,0.0,0.0,0.0,0.0,0.0,0.0,0.0,0.0,0.0,0.0,0.0,0.0,0.0,0.0,0.0,0.0,0.0,0.0,0.0,0.0,0.0,0.0,0.0,0.0,0.0,0.0,0.0,0.0,0.0,0.0,0.0,0.0,0.0,0.0,0.0,0.0,0.0,0.0,0.0,0.0,0.0,0.0,0.0,0.0,0.0,0.0,0.0,0.0,0.0,0.0,0.0,0.0,0.0,0.0,0.0,0.0,0.0,0.0,0.0,0.0,0.0,0.0,0.0,0.0,0.0,0.0,0.0,0.0,0.0,0.0,0.0,0.0,0.0,0.0,0.0,0.0,0.0,0.0,0.0,0.0,0.0,0.0,0.0,0.0,0.0,0.0,0.0,0.0,0.0,0.0,0.0,0.0,0.0,0.0,0.0,0.0,0.0,0.0,0.0,0.0,0.0,0.0,0.0,0.0,0.0,0.0,0.0,0.0,0.0,0.0,0.0,0.0,0.0,0.0,0.0,0.0,0.0,0.0,0.0,0.0,0.0,0.0,0.0,0.0,0.0,0.0,0.0,0.0,0.0,0.0,0.0,0.0,0.0,0.0,0.0,0.0,0.0,0.0,0.0,0.0,0.0,0.0,0.0,0.0,0.0,0.0,0.0,0.0,0.0,0.0,0.0,0.0,0.0,0.0,0.0,0.0,0.0,0.0,0.0,0.0,0.0,0.0,0.0,0.0,0.0,0.0,0.0,0.0,0.0,0.0,0.0,0.0,0.0,0.0,0.0,0.0,0.0,0.0,0.0,0.0,0.0,0.0,0.0,0.0,0.0,0.0,0.0,0.0,0.0,0.0,0.0,0.0,0.0,0.0,0.0,0.0,0.0,0.0,0.0,0.0,0.0,0.0,0.0,0.0,0.0,0.0,0.0,0.0,0.0,0.0,0.0,0.0,0.0,0.0,0.0,0.0,0.0,0.0,0.0,0.0,0.0,0.0,0.0,0.0,0.0,0.0,0.0,0.0,0.0,0.0,0.0,0.0,0.0,0.0,0.0,0.0,0.0,0.0,0.0,0.0,0.0,0.0,0.0,0.0,0.0,0.0,0.0,0.0,0.0,0.0,0.0,0.0,0.0,0.0,0.0,0.0,0.0,0.0,0.0,0.0,0.0,0.0,0.0,0.0,0.0,0.0,0.0,0.0,0.0,0.0,0.0,0.0,0.0,0.0,0.0,0.0,0.0,0.0,0.0,0.0,0.0,0.0,0.0,0.0,0.0,0.0,0.0,0.0,0.0,0.0,0.0,0.0,0.0,0.0,0.0,0.0,0.0,0.0,0.0,0.0,0.0,0.0,0.0,0.0,0.0,0.0,0.0,0.0,0.0,0.0,0.0,0.0,0.0,0.0,0.0,0.0,0.0,0.0,0.0,0.0,0.0,0.0,0.0,0.0,0.0,0.0,0.0,0.0,0.0,0.0,0.0,0.0,0.0,0.0,0.0,0.0,0.0,0.0,0.0,0.0,0.0,0.0,0.0,0.0,0.0,0.0,0.0,0.0,0.0,0.0,0.0,0.0,0.0,0.0,0.0,0.0,0.0,0.0,0.0,0.0,0.0,0.0,0.0,0.0,0.0,0.0,0.0,0.0,0.0,0.0,0.0,0.0,0.0,0.0,0.0,0.0,0.0,0.0,0.0,0.0,0.0,0.0,0.0,0.0,0.0,0.0,0.0,0.0,0.0,0.0,0.0,0.0,0.0,0.0,-1.0867,0.0,0.0,0.0,0.0,0.0,0.0,0.0,0.0,0.0,0.0,0.0,0.0,0.0,0.0,0.0,0.0,0.0,0.0,0.0,0.0,0.0,0.0,0.0,0.0,0.0,0.0,0.0,0.0,0.0,0.0,0.0,0.0,0.0,0.0,0.0,0.0,0.0,0.0,0.0,0.0,0.0,0.0,0.0,0.0,0.0,0.0,0.0,0.0,0.0,0.0,0.0,0.0,0.0,0.0,0.0,0.0,0.0,0.0,0.0,0.0,0.0,0.0,0.0,0.0,0.0,0.0,0.0,0.0,0.0,0.0,0.0,0.0,0.0,0.0,0.0,0.0,0.0,0.0,0.0,0.0,0.0,0.0,0.0,0.0,0.0,0.0,0.0,0.0,0.0,0.0,0.0,0.0,0.0,0.0,0.0,0.0,0.0,0.0,0.0,0.0,0.0,0.0,0.0,0.0,0.0,0.0,0.0,0.0,0.0,0.0,-1.0351,-1.1364,-1.0418,-1.0098,-1.0572,0.0,0.0,0.0,0.0,0.0,0.0,0.0,0.0,0.0,0.0,0.0,0.0,0.0,0.0,0.0,0.0,0.0,0.0,0.0,0.0,0.0,0.0,0.0,0.0,0.0,0.0,0.0,0.0,0.0,0.0,0.0,0.0,0.0,0.0,0.0,0.0,0.0,0.0,0.0,0.0,0.0,0.0,0.0,0.0,0.0,0.0,0.0,0.0,0.0,0.0,0.0,0.0,0.0,0.0,0.0,0.0,0.0,0.0,0.0,0.0,0.0,0.0,0.0,0.0,0.0,0.0,0.0,0.0,0.0,0.0,0.0,0.0,0.0,0.0,0.0,0.0,0.0,0.0,0.0,0.0,0.0,0.0,0.0,0.0,0.0,0.0,0.0,0.0,0.0,0.0,0.0,0.0,0.0,0.0,0.0,0.0,0.0,0.0,0.0,0.0,0.0,0.0,0.0,0.0,0.0,0.0,0.0,0.0,0.0,0.0,0.0,0.0,-1.0518,-0.9994,-1.04,0.0,0.0,0.0,0.0,0.0,0.0,0.0,0.0,0.0,0.0,0.0,0.0,0.0,0.0,0.0,0.0,0.0,0.0,0.0,0.0,0.0,0.0,0.0,0.0,0.0,0.0,0.0,0.0,0.0,0.0,0.0,0.0,0.0,0.0,0.0,0.0,0.0,0.0,0.0,0.0,0.0,0.0,0.0,0.0,0.0,0.0,0.0,0.0,0.0,0.0,0.0,0.0,0.0,0.0,0.0,0.0,0.0,0.0,0.0,0.0,0.0,0.0,0.0,0.0,0.0,0.0,0.0,0.0,0.0,0.0,0.0,0.0,0.0,0.0,0.0,0.0,0.0,0.0,0.0,0.0,0.0,0.0,0.0,0.0,0.0,0.0,0.0,0.0,0.0,0.0,0.0,0.0,0.0,0.0,0.0,0.0,0.0,0.0,0.0,0.0,0.0,0.0,0.0,0.0,0.0,0.0,0.0,0.0,0.0,0.0,-1.1141,-1.1678,-1.1095,0.0,-1.081,0.0,0.0,0.0,0.0,0.0,0.0,0.0,0.0,0.0,0.0,0.0,0.0,0.0,0.0,0.0,0.0,0.0,0.0,0.0,0.0,0.0,0.0,0.0,0.0,0.0,0.0,0.0,0.0,0.0,0.0,0.0,0.0,0.0,0.0,0.0,0.0,0.0,0.0,0.0,0.0,0.0,0.0,0.0,0.0,0.0,0.0,0.0,0.0,0.0,0.0,0.0,0.0,0.0,0.0,0.0,0.0,0.0,0.0,0.0,0.0,0.0,0.0,0.0,0.0,0.0,0.0,0.0,0.0,0.0,0.0,0.0,0.0,0.0,0.0,0.0,0.0,0.0,0.0,0.0,0.0,0.0,0.0,0.0,0.0,0.0,0.0,0.0,0.0,0.0,0.0,0.0,0.0,0.0,0.0,0.0,0.0,0.0,0.0,0.0,0.0,0.0,0.0,0.0,0.0,0.0,0.0,0.0,0.0,0.0,0.0,-1.0166,-1.1253,-1.0498,-1.0207,0.0,0.0,0.0,0.0,0.0,0.0,0.0,0.0,0.0,0.0,0.0,0.0,0.0,0.0,0.0,0.0,0.0,0.0,0.0,0.0,0.0,0.0,0.0,0.0,0.0,0.0,0.0,0.0,0.0,0.0,0.0,0.0,0.0,0.0,0.0,0.0,0.0,0.0,0.0,0.0,0.0,0.0,0.0,0.0,0.0,0.0,0.0,0.0,0.0,0.0,0.0,0.0,0.0,0.0,0.0,0.0,0.0,0.0,0.0,0.0,0.0,0.0,0.0,0.0,0.0,0.0,0.0,0.0,0.0,0.0,0.0,0.0,0.0,0.0,0.0,0.0,0.0,0.0,0.0,0.0,0.0,0.0,0.0,0.0,0.0,0.0,0.0,0.0,0.0,0.0,0.0,0.0,0.0,0.0,0.0,0.0,0.0,0.0,0.0,0.0,0.0,0.0,0.0,0.0,0.0,0.0,0.0,0.0,0.0,0.0,-0.9891,-0.9747,-1.0552,-0.9771,-0.9566,-1.0118,0.0,0.0,0.0,0.0,0.0,0.0,0.0,0.0,0.0,0.0,0.0,0.0,0.0,0.0,0.0,0.0,0.0,0.0,0.0,0.0,0.0,0.0,0.0,0.0,0.0,0.0,0.0,0.0,0.0,0.0,0.0,0.0,0.0,0.0,0.0,0.0,0.0,0.0,0.0,0.0,0.0,0.0,0.0,0.0,0.0,0.0,0.0,0.0,0.0,0.0,0.0,0.0,0.0,0.0,0.0,0.0,0.0,0.0,0.0,0.0,0.0,0.0,0.0,0.0,0.0,0.0,0.0,0.0,0.0,0.0,0.0,0.0,0.0,0.0,0.0,0.0,0.0,0.0,0.0,0.0,0.0,0.0,0.0,0.0,0.0,0.0,0.0,0.0,0.0,0.0,0.0,0.0,0.0,0.0,0.0,0.0,0.0,0.0,0.0,0.0,0.0,0.0,0.0,0.0,0.0,0.0,0.0,0.0,-1.0932,-1.0861,-1.0514,-0.9737,-0.9157,-0.912,0.0,0.0,0.0,0.0,0.0,0.0,0.0,0.0,0.0,0.0,0.0,0.0,0.0,0.0,0.0,0.0,0.0,0.0,0.0,0.0,0.0,0.0,0.0,0.0,0.0,0.0,0.0,0.0,0.0,0.0,0.0,0.0,0.0,0.0,0.0,0.0,0.0,0.0,0.0,0.0,0.0,0.0,0.0,0.0,0.0,0.0,0.0,0.0,0.0,0.0,0.0,0.0,0.0,0.0,0.0,0.0,0.0,0.0,0.0,0.0,0.0,0.0,0.0,0.0,0.0,0.0,0.0,0.0,0.0,0.0,0.0,0.0,0.0,0.0,0.0,0.0,0.0,0.0,0.0,0.0,0.0,0.0,0.0,0.0,0.0,0.0,0.0,0.0,0.0,0.0,0.0,0.0,0.0,0.0,0.0,0.0,0.0,0.0,0.0,0.0,0.0,0.0,0.0,0.0,0.0,0.0,0.0,0.0,0.0,-1.0569,-0.9767,-0.8793,-0.771,-0.7901,-0.8089,0.0,0.0,0.0,0.0,0.0,0.0,0.0,0.0,0.0,0.0,0.0,0.0,0.0,0.0,0.0,0.0,0.0,0.0,0.0,0.0,0.0,0.0,0.0,0.0,0.0,0.0,0.0,0.0,0.0,0.0,0.0,0.0,0.0,0.0,0.0,0.0,0.0,0.0,0.0,0.0,0.0,0.0,0.0,0.0,0.0,0.0,0.0,0.0,0.0,0.0,0.0,0.0,0.0,0.0,0.0,0.0,0.0,0.0,0.0,0.0,0.0,0.0,0.0,0.0,0.0,0.0,0.0,0.0,0.0,0.0,0.0,0.0,0.0,0.0,0.0,0.0,0.0,0.0,0.0,0.0,0.0,0.0,0.0,0.0,0.0,0.0,0.0,0.0,0.0,0.0,0.0,0.0,0.0,0.0,0.0,0.0,0.0,0.0,0.0,0.0,0.0,0.0,0.0,0.0,0.0,0.0,0.0,0.0,0.0,-0.9616,0.0,-0.7355,-0.6627,-0.6874,-0.7178,0.0,0.0,0.0,0.0,0.0,0.0,0.0,0.0,0.0,0.0,0.0,0.0,0.0,0.0,0.0,0.0,0.0,0.0,0.0,0.0,0.0,0.0,0.0,0.0,0.0,0.0,0.0,0.0,0.0,0.0,0.0,0.0,0.0,0.0,0.0,0.0,0.0,0.0,0.0,0.0,0.0,0.0,0.0,0.0,0.0,0.0,0.0,0.0,0.0,0.0,0.0,0.0,0.0,0.0,0.0,0.0,0.0,0.0,0.0,0.0,0.0,0.0,0.0,0.0,0.0,0.0,0.0,0.0,0.0,0.0,0.0,0.0,0.0,0.0,0.0,0.0,0.0,0.0,0.0,0.0,0.0,0.0,0.0,0.0,0.0,0.0,0.0,0.0,0.0,0.0,0.0,0.0,0.0,0.0,0.0,0.0,0.0,0.0,0.0,0.0,0.0,0.0,0.0,0.0,0.0,0.0,0.0,0.0,-1.0006,-0.8069,-0.6898,-0.6415,-0.6644,-0.6185,-0.6444,0.0,0.0,0.0,0.0,0.0,0.0,0.0,0.0,0.0,0.0,0.0,0.0,0.0,0.0,0.0,0.0,0.0,0.0,0.0,0.0,0.0,0.0,0.0,0.0,0.0,0.0,0.0,0.0,0.0,0.0,0.0,0.0,0.0,0.0,0.0,0.0,0.0,0.0,0.0,0.0,0.0,0.0,0.0,0.0,0.0,0.0,0.0,0.0,0.0,0.0,0.0,0.0,0.0,0.0,0.0,0.0,0.0,0.0,0.0,0.0,0.0,0.0,0.0,0.0,0.0,0.0,0.0,0.0,0.0,0.0,0.0,0.0,0.0,0.0,0.0,0.0,0.0,0.0,0.0,0.0,0.0,0.0,0.0,0.0,0.0,0.0,0.0,0.0,0.0,0.0,0.0,0.0,0.0,0.0,0.0,0.0,0.0,0.0,0.0,0.0,0.0,0.0,0.0,0.0,0.0,0.0,0.0,0.0,0.0,-0.7363,-0.6087,-0.5326,-0.5132,-0.5634,-0.5651,0.0,0.0,0.0,0.0,0.0,0.0,0.0,0.0,0.0,0.0,0.0,0.0,0.0,0.0,0.0,0.0,0.0,0.0,0.0,0.0,0.0,0.0,0.0,0.0,0.0,0.0,0.0,0.0,0.0,0.0,0.0,0.0,0.0,0.0,0.0,0.0,0.0,0.0,0.0,0.0,0.0,0.0,0.0,0.0,0.0,0.0,0.0,0.0,0.0,0.0,0.0,0.0,0.0,0.0,0.0,0.0,0.0,0.0,0.0,0.0,0.0,0.0,0.0,0.0,0.0,0.0,0.0,0.0,0.0,0.0,0.0,0.0,0.0,0.0,0.0,0.0,0.0,0.0,0.0,0.0,0.0,0.0,0.0,0.0,0.0,0.0,0.0,0.0,0.0,0.0,0.0,0.0,0.0,0.0,0.0,0.0,0.0,0.0,0.0,0.0,0.0,0.0,0.0,0.0,0.0,0.0,0.0,0.0,0.0,-0.6021,-0.4861,-0.4216,-0.4211,-0.4893,-0.4938,-0.4277,0.0,0.0,0.0,0.0,0.0,0.0,0.0,0.0,0.0,0.0,0.0,0.0,0.0,0.0,0.0,0.0,0.0,0.0,0.0,0.0,0.0,0.0,0.0,0.0,0.0,0.0,0.0,0.0,0.0,0.0,0.0,0.0,0.0,0.0,0.0,0.0,0.0,0.0,0.0,0.0,0.0,0.0,0.0,0.0,0.0,0.0,0.0,0.0,0.0,0.0,0.0,0.0,0.0,0.0,0.0,0.0,0.0,0.0,0.0,0.0,0.0,0.0,0.0,0.0,0.0,0.0,0.0,0.0,0.0,0.0,0.0,0.0,0.0,0.0,0.0,0.0,0.0,0.0,0.0,0.0,0.0,0.0,0.0,0.0,0.0,0.0,0.0,0.0,0.0,0.0,0.0,0.0,0.0,0.0,0.0,0.0,0.0,0.0,0.0,0.0,0.0,0.0,0.0,0.0,0.0,0.0,0.0,0.0,-0.4326,-0.332,-0.3164,-0.3843,-0.4063,-0.4273,0.0,0.0,0.0,0.0,0.0,0.0,0.0,0.0,0.0,0.0,0.0,0.0,0.0,0.0,0.0,0.0,0.0,0.0,0.0,0.0,0.0,0.0,0.0,0.0,0.0,0.0,0.0,0.0,0.0,0.0,0.0,0.0,0.0,0.0,0.0,0.0,0.0,0.0,0.0,0.0,0.0,0.0,0.0,0.0,0.0,0.0,0.0,0.0,0.0,0.0,0.0,0.0,0.0,0.0,0.0,0.0,0.0,0.0,0.0,0.0,0.0,0.0,0.0,0.0,0.0,0.0,0.0,0.0,0.0,0.0,0.0,0.0,0.0,0.0,0.0,0.0,0.0,0.0,0.0,0.0,0.0,0.0,0.0,0.0,0.0,0.0,0.0,0.0,0.0,0.0,0.0,0.0,0.0,0.0,0.0,0.0,0.0,0.0,0.0,0.0,0.0,0.0,0.0,0.0,0.0,0.0,0.0,0.0,0.0,-0.3278,-0.218,-0.2169,-0.3398,-0.3619,-0.3533,0.0,0.0,0.0,0.0,0.0,0.0,0.0,0.0,0.0,0.0,0.0,0.0,0.0,0.0,0.0,0.0,0.0,0.0,0.0,0.0,0.0,0.0,0.0,0.0,0.0,0.0,0.0,0.0,0.0,0.0,0.0,0.0,0.0,0.0,0.0,0.0,0.0,0.0,0.0,0.0,0.0,0.0,0.0,0.0,0.0,0.0,0.0,0.0,0.0,0.0,0.0,0.0,0.0,0.0,0.0,0.0,0.0,0.0,0.0,0.0,0.0,0.0,0.0,0.0,0.0,0.0,0.0,0.0,0.0,0.0,0.0,0.0,0.0,0.0,0.0,0.0,0.0,0.0,0.0,0.0,0.0,0.0,0.0,0.0,0.0,0.0,0.0,0.0,0.0,0.0,0.0,0.0,0.0,0.0,0.0,0.0,0.0,0.0,0.0,0.0,0.0,0.0,0.0,0.0,0.0,0.0,0.0,0.0,-0.2675,-0.1318,-0.0263,-0.0265,-0.1417,-0.2132,-0.2181,0.0,0.0,0.0,0.0,0.0,0.0,0.0,0.0,0.0,0.0,0.0,0.0,0.0,0.0,0.0,0.0,0.0,0.0,0.0,0.0,0.0,0.0,0.0,0.0,0.0,0.0,0.0,0.0,0.0,0.0,0.0,0.0,0.0,0.0,0.0,0.0,0.0,0.0,0.0,0.0,0.0,0.0,0.0,0.0,0.0,0.0,0.0,0.0,0.0,0.0,0.0,0.0,0.0,0.0,0.0,0.0,0.0,0.0,0.0,0.0,0.0,0.0,0.0,0.0,0.0,0.0,0.0,0.0,0.0,0.0,0.0,0.0,0.0,0.0,0.0,0.0,0.0,0.0,0.0,0.0,0.0,0.0,0.0,0.0,0.0,0.0,0.0,0.0,0.0,0.0,0.0,0.0,0.0,0.0,0.0,0.0,0.0,0.0,0.0,0.0,0.0,0.0,0.0,0.0,0.0,0.0,0.0,0.0,-0.088,0.098,0.1804,0.192,0.13,-0.0104,-0.0541,0.0,0.0,0.0,0.0,0.0,0.0,0.0,0.0,0.0,0.0,0.0,0.0,0.0,0.0,0.0,0.0,0.0,0.0,0.0,0.0,0.0,0.0,0.0,0.0,0.0,0.0,0.0,0.0,0.0,0.0,0.0,0.0,0.0,0.0,0.0,0.0,0.0,0.0,0.0,0.0,0.0,0.0,0.0,0.0,0.0,0.0,0.0,0.0,0.0,0.0,0.0,0.0,0.0,0.0,0.0,0.0,0.0,0.0,0.0,0.0,0.0,0.0,0.0,0.0,0.0,0.0,0.0,0.0,0.0,0.0,0.0,0.0,0.0,0.0,0.0,0.0,0.0,0.0,0.0,0.0,0.0,0.0,0.0,0.0,0.0,0.0,0.0,0.0,0.0,0.0,0.0,0.0,0.0,0.0,0.0,0.0,0.0,0.0,0.0,0.0,0.0,0.0,0.0,0.0,0.0,0.0,0.0,0.0,0.0339,0.1879,0.2102,0.2395,0.2809,0.1403,0.0499,0.0,0.0,0.0,0.0,0.0,0.0,0.0,0.0,0.0,0.0,0.0,0.0,0.0,0.0,0.0,0.0,0.0,0.0,0.0,0.0,0.0,0.0,0.0,0.0,0.0,0.0,0.0,0.0,0.0,0.0,0.0,0.0,0.0,0.0,0.0,0.0,0.0,0.0,0.0,0.0,0.0,0.0,0.0,0.0,0.0,0.0,0.0,0.0,0.1658,0.0,0.0,0.0,0.0,0.0,0.0,0.0,0.0,0.0,0.0,0.0,0.0,0.0,0.0,0.0,0.0,0.0,0.0,0.0,0.0,0.0,0.0,0.0,0.0,0.0,0.0,0.0,0.0,0.0,0.0,0.0,0.0,0.0,0.0,0.0,0.0,0.0,0.0,0.0,0.0,0.0,0.0,0.0,0.0,0.0,0.0,0.0,0.0,0.0,0.0,0.0,0.0,0.0,0.0,0.0,0.0,0.0,0.0,0.0,0.1609,0.309,0.3232,0.3619,0.4268,0.3533,0.2617,0.0,0.0,0.0,0.0,0.0,0.0,0.0,0.0,0.0,0.0,0.0,0.0,0.0,0.0,0.0,0.0,0.0,0.0,0.0,0.0,0.0,0.0,0.0,0.0,0.0,0.0,0.0,0.0,0.0,0.0,0.0,0.0,0.0,0.0,0.0,0.0,0.0,0.0,0.0,0.0,0.0,0.0,0.0,0.0,0.0,0.0,0.0,0.0,0.0,0.0,0.0,0.0,0.0,0.0,0.0,0.0,0.0,0.0,0.0,0.0,0.0,0.0,0.0,0.0,0.0,0.0,0.0,0.0,0.0,0.0,0.0,0.0,0.0,0.0,0.0,0.0,0.0,0.0,0.0,0.0,0.0,0.0,0.0,0.0,0.0,0.0,0.0,0.0,0.0,0.0,0.0,0.0,0.0,0.0,0.0,0.0,0.0,0.0,0.0,0.0,0.0,0.0,0.0,0.0,0.0,0.0,0.0,0.1282,0.2704,0.4187,0.4504,0.4921,0.5483,0.5474,0.4803,0.349,0.0,0.0,0.0,0.0,0.0,0.0,0.0,0.0,0.0,0.0,0.0,0.0,0.0,0.0,0.0,0.0,0.0,0.0,0.0,0.0,0.0,0.0,0.0,0.0,0.0,0.0,0.0,0.0,0.0,0.0,0.0,0.0,0.0,0.0,0.0,0.0,0.0,0.0,0.0583,0.1709,0.0,0.0,0.0,0.0,0.0,0.0,0.0,0.0,0.5109,0.0,0.0,0.0,0.0,0.0,0.0,0.0,0.0,0.0,0.0,0.0,0.0,0.0,0.0,0.0,0.0,0.0,0.0,0.0,0.0,0.0,0.0,0.0,0.0,0.0,0.0,0.0,0.0,0.0,0.0,0.0,0.0,0.0,0.0,0.0,0.0,0.0,0.0,0.0,0.0,0.0,0.0,0.0,0.0,0.0,0.0,0.0,0.0,0.0,0.0,0.0,0.0,0.0,0.0,0.0,0.0,0.2473,0.2653,0.3261,0.4436,0.5042,0.5406,0.5506,0.586,0.5661,0.4824,0.0,0.0,0.0,0.0,0.0,0.0,0.0,0.0,0.0,0.0,0.0,0.0,0.0,0.0,0.0,0.0,0.0,0.0,0.0,0.0,0.0,0.0,0.0,0.0,0.0,0.0,0.0,0.0,0.0,0.0,0.0,0.0,0.0,0.0,0.0,0.0,0.0,0.0,0.0,0.4165,0.4595,0.0,0.0,0.0,0.0,0.0,0.0,0.0,0.0,0.6204,0.0,0.0,0.0,0.0,0.0,0.0,0.0,0.0,0.0,0.0,0.0,0.0,0.0,0.0,0.0,0.0,0.0,0.0,0.0,0.0,0.0,0.0,0.0,0.0,0.0,0.0,0.0,0.0,0.0,0.0,0.0,0.0,0.0,0.0,0.0,0.0,0.0,0.0,0.0,0.0,0.0,0.0,0.0,0.0,0.0,0.0,0.0,0.0,0.0,0.0,0.0,0.0,0.0,0.0,0.0,0.3186,0.4219,0.501,0.5561,0.59,0.6253,0.6622,0.6555,0.6392,0.0,0.0,0.0,0.0,0.0,0.0,0.0,0.0,0.0,0.0,0.0,0.0,0.0,0.0,0.0,0.0,0.0,0.0,0.0,0.0,0.0,0.0,0.0,0.0,0.0,0.0,0.0,0.0,0.0,0.0,0.0,0.0,0.0,0.0,0.0,0.0,0.0,0.0,0.0,0.0,0.503,0.5336,0.5447,0.0,0.0,0.0,0.0,0.0,0.0,0.6615,0.675,0.0,0.0,0.0,0.0,0.0,0.0,0.0,0.0,0.0,0.0,0.0,0.0,0.0,0.0,0.0,0.0,0.0,0.0,0.0,0.0,0.0,0.0,0.0,0.0,0.0,0.0,0.0,0.0,0.0,0.0,0.0,0.0,0.0,0.0,0.0,0.0,0.0,0.0,0.0,0.0,0.0,0.0,0.0,0.0,0.0,0.0,0.0,0.0,0.0,0.0,0.0,0.0,0.0,0.0,0.0,0.3535,0.5282,0.6343,0.66,0.675,0.7101,0.7658,0.7375,0.7146,0.0,0.0,0.0,0.0,0.0,0.0,0.0,0.0,0.0,0.0,0.0,0.0,0.0,0.0,0.0,0.0,0.0,0.0,0.0,0.0,0.0,0.0,0.0,0.0,0.0,0.0,0.0,0.0,0.0,0.0,0.0,0.0,0.0,0.0,0.0,0.0,0.0,0.0,0.0,0.0,0.0,0.591,0.6876,0.6907,0.0,0.0,0.0,0.0,0.7992,0.7726,0.0,0.0,0.0,0.0,0.0,0.0,0.0,0.0,0.0,0.0,0.0,0.0,0.0,0.0,0.0,0.0,0.0,0.0,0.0,0.0,0.0,0.0,0.0,0.0,0.0,0.0,0.0,0.0,0.0,0.0,0.0,0.0,0.0,0.0,0.0,0.0,0.0,0.0,0.0,0.0,0.0,0.0,0.0,0.0,0.0,0.0,0.0,0.0,0.0,0.0,0.0,0.0,0.0,0.0,0.0,0.0,0.4094,0.5086,0.5945,0.659,0.7235,0.761,0.7691,0.8203,0.8038,0.0,0.0,0.0,0.0,0.0,0.0,0.0,0.0,0.0,0.0,0.0,0.0,0.0,0.0,0.0,0.0,0.0,0.0,0.0,0.0,0.0,0.0,0.0,0.0,0.0,0.0,0.0,0.0,0.0,0.0,0.0,0.0,0.0,0.0,0.0,0.0,0.0,0.0,0.0,0.0,0.0,0.6951,0.8258,0.7966,0.778,0.0,0.0,0.8698,0.9353,0.9941,0.0,0.0,0.0,0.0,0.0,0.0,0.0,0.0,0.0,0.0,0.0,0.0,0.0,0.0,0.0,0.0,0.0,0.0,0.0,0.0,0.0,0.0,0.0,0.0,0.0,0.0,0.0,0.0,0.0,0.0,0.0,0.0,0.0,0.0,0.0,0.0,0.0,0.0,0.0,0.0,0.0,0.0,0.0,0.0,0.0,0.0,0.0,0.0,0.0,0.0,0.0,0.0,0.0,0.0,0.0,0.5518,0.5882,0.6868,0.7534,0.7845,0.8156,0.8521,0.8876,0.8618,0.8358,0.0,0.0,0.0,0.0,0.0,0.0,0.0,0.0,0.0,0.0,0.0,0.0,0.0,0.0,0.0,0.0,0.0,0.0,0.0,0.0,0.0,0.0,0.0,0.0,0.0,0.0,0.0,0.0,0.0,0.0,0.0,0.0,0.0,0.0,0.0,0.0,0.0,0.0,0.0,0.0,0.0,0.0,0.9202,0.9072,0.0,0.0,0.0,0.9551,1.0197,0.0,0.0,0.0,0.0,0.0,0.0,0.0,0.0,0.0,0.0,0.0,0.0,0.0,0.0,0.0,0.0,0.0,0.0,0.0,0.0,0.0,0.0,0.0,0.0,0.0,0.0,0.0,0.0,0.0,0.0,0.0,0.0,0.0,0.0,0.0,0.0,0.0,0.0,0.0,0.0,0.0,0.0,0.0,0.0,0.0,0.0,0.0,0.0,0.0,0.0,0.0,0.0,0.0,0.0,0.0,0.0,0.0,0.7379,0.8484,0.9133,0.929,0.9283,0.9536,1.0023,0.9392,0.0,0.0,0.0,0.0,0.0,0.0,0.0,0.0,0.0,0.0,0.0,0.0,0.0,0.0,0.0,0.0,0.0,0.0,0.0,0.0,0.0,0.0,0.0,0.0,0.0,0.0,0.0,0.7719,0.0,0.0,0.0,0.0,0.0,0.0,0.0,0.0,0.0,0.0,0.0,0.0,0.0,0.0,0.9096,1.0159,1.0141,1.0346,0.0,0.0,1.0542,1.12,1.1334,1.1258,0.0,0.0,0.0,0.0,0.0,0.0,0.0,0.0,0.0,0.0,0.0,0.0,0.0,0.0,0.0,0.0,0.0,0.0,0.0,0.0,0.0,0.0,0.0,0.0,0.0,0.0,0.0,0.0,0.0,0.0,0.0,0.0,0.0,0.0,0.0,0.0,0.0,0.0,0.0,0.0,0.0,0.0,0.0,0.0,0.0,0.0,0.0,0.0,0.0,0.0,0.0,0.0,0.0,0.0,0.0,0.8048,0.9145,1.0012,1.0636,1.0661,1.0686,1.0737,1.0893,1.0568,0.0,0.0,0.0,0.0,0.0,0.0,0.0,0.0,0.0,0.0,0.0,0.0,0.0,0.0,0.0,0.0,0.0,0.0,0.0,0.0,0.0,0.0,0.0,0.0,0.0,0.0,0.0,0.0,0.0,0.0,0.0,0.0,0.0,0.0,0.0,0.0,0.0,0.0,0.0,0.0,0.0,0.9419,1.1408,1.1116,1.1225,0.0,0.0,1.1931,1.2642,1.2749,1.251,1.1848,0.0,0.0,0.0,0.0,0.0,0.0,0.0,0.0,0.0,0.0,0.0,0.0,0.0,0.0,0.0,0.0,0.0,0.0,0.0,0.0,0.0,0.0,0.0,0.0,0.0,0.0,0.0,0.0,0.0,0.0,0.0,0.0,0.0,0.0,0.0,0.0,0.0,0.0,0.0,0.0,0.0,0.0,0.0,0.0,0.0,0.0,0.0,0.0,0.0,0.0,0.0,0.0,0.0,0.8673,0.8617,0.981,1.0534,1.0788,1.0813,1.099,1.1416,1.1291,1.1085,0.0,0.0,0.0,0.0,0.0,0.0,0.0,0.0,0.0,0.0,0.0,0.0,0.0,0.0,0.0,0.0,0.0,0.0,0.0,0.0,0.0,0.0,0.0,0.0,0.0,0.0,0.0,0.0,1.0848,1.1063,1.0985,0.0,0.0,0.0,0.0,0.0,0.0,0.0,0.0,0.0,0.0,1.0914,1.1681,1.1591,0.0,0.0,1.227,1.2055,1.2774,1.2915,1.2798,1.2525,1.2471,0.0,0.0,0.0,0.0,0.0,0.0,0.0,0.0,0.0,0.0,0.0,0.0,0.0,0.0,0.0,0.0,0.0,0.0,0.0,0.0,0.0,0.0,0.0,0.0,0.0,0.0,0.0,0.0,0.0,0.0,0.0,0.0,0.0,0.0,0.0,0.0,0.0,0.0,0.0,0.0,0.0,0.0,0.0,0.0,0.0,0.0,0.0,0.0,0.0,0.0,0.0,0.0,0.9626,0.9482,1.0548,1.1216,1.1425,1.1434,1.1649,1.2095,1.1861,1.1789,0.0,0.0,0.0,0.0,0.0,0.0,0.0,0.0,0.0,0.0,0.0,0.0,0.0,0.0,0.0,0.0,0.0,0.0,0.0,0.0,0.0,0.0,0.0,0.0,0.0,0.0,0.0,0.0,1.207,1.2256,1.2381,0.0,0.0,0.0,0.0,0.0,0.0,0.0,0.0,0.0,0.0,1.1873,1.2104,1.2129,1.2329,1.2822,1.2476,1.232,1.2822,1.2915,1.2915,1.2915,0.0,0.0,0.0,0.0,0.0,0.0,0.0,0.0,0.0,0.0,0.0,0.0,0.0,0.0,0.0,0.0,0.0,0.0,0.0,0.0,0.0,0.0,0.0,0.0,0.0,0.0,0.0,0.0,0.0,0.0,1.4921,0.0,0.0,0.0,0.0,0.0,0.0,0.0,0.0,0.0,0.0,0.0,0.0,0.0,0.0,0.0,0.0,0.0,0.0,0.0,0.0,0.0,0.0,1.0058,1.0749,1.1441,1.2153,1.2822,1.2856,1.2856,1.2895,1.2871,1.2936,1.3065,0.0,0.0,0.0,0.0,0.0,0.0,0.0,0.0,0.0,0.0,0.0,0.0,0.0,0.0,0.0,0.0,0.0,0.0,0.0,0.0,0.0,0.0,0.0,0.0,0.0,0.0,1.251,1.2323,1.2616,0.0,0.0,0.0,0.0,0.0,0.0,0.0,0.0,0.0,0.0,1.1789,1.208,1.2764,1.2881,1.2856,1.2915,1.2881,1.2881,1.2915,1.2915,1.2915,0.0,0.0,0.0,0.0,0.0,0.0,0.0,0.0,0.0,0.0,0.0,0.0,0.0,0.0,0.0,0.0,0.0,0.0,0.0,0.0,0.0,0.0,0.0,0.0,0.0,0.0,0.0,1.6996,1.6465,0.0,0.0,0.0,0.0,0.0,0.0,0.0,0.0,0.0,0.0,0.0,1.4614,1.4434,0.0,0.0,0.0,0.0,0.0,0.0,0.0,0.0,0.0,0.0,0.0,0.0,1.1107,1.1443,1.254,1.345,1.4071,1.4084,1.4084,1.4084,1.4095,1.3984,1.3773,0.0,0.0,0.0,0.0,0.0,0.0,0.0,0.0,0.0,0.0,0.0,0.0,0.0,0.0,0.0,0.0,0.0,0.0,0.0,0.0,0.0,0.0,0.0,0.0,0.0,1.3972,0.0,0.0,0.0,0.0,0.0,0.0,0.0,0.0,0.0,0.0,0.0,1.288,1.3106,1.2783,1.2642,1.2856,1.2915,1.2915,0.0,0.0,0.0,0.0,0.0,0.0,0.0,0.0,0.0,0.0,0.0,0.0,0.0,0.0,1.2181,1.2206,1.2206,1.2049,1.155,0.0,0.0,0.0,0.0,0.0,0.0,0.0,0.0,0.0,0.0,0.0,0.0,0.0,0.0,1.7907,0.0,1.7202,0.0,0.0,0.0,0.0,0.0,0.0,0.0,0.0,1.5639,1.5629,1.5449,1.5273,1.5273,0.0,1.4917,1.4284,0.0,0.0,0.0,0.0,0.0,0.0,0.0,0.0,1.2043,1.2559,1.3369,1.4097,1.4663,1.4709,1.4709,1.4709,1.4903,1.4913,1.4624,1.4494,1.457,0.0,0.0,0.0,0.0,0.0,0.0,0.0,0.0,0.0,0.0,0.0,0.0,0.0,0.0,0.0,0.0,0.0,0.0,0.0,0.0,0.0,0.0,0.0,1.5096,0.0,0.0,0.0,0.0,0.0,0.0,0.0,0.0,0.0,1.3311,1.3711,1.4037,1.3815,1.3467,1.3128,1.2929,0.0,0.0,0.0,0.0,0.0,0.0,0.0,1.2915,1.2915,1.2915,1.2949,1.3075,1.31,1.3105,1.3096,0.0,0.0,1.2915,1.2915,1.2749,1.227,1.2178,1.2055,1.1609,1.1534,1.1534,0.0,0.0,0.0,0.0,0.0,0.0,0.0,0.0,1.8112,1.8125,0.0,1.8078,0.0,0.0,0.0,0.0,0.0,1.7007,0.0,0.0,1.6994,1.6993,1.6459,1.5969,1.5994,1.6459,1.5948,1.5677,1.5514,1.4213,0.0,0.0,0.0,0.0,0.0,0.0,1.287,1.4057,1.3952,1.4167,1.4755,1.4766,1.4778,1.4789,1.532,1.561,1.5608,1.5262,1.5492,1.6429,1.5562,0.0,0.0,0.0,0.0,0.0,0.0,0.0,0.0,0.0,0.0,0.0,0.0,0.0,0.0,0.0,0.0,0.0,0.0,0.0,0.0,1.561,0.0,0.0,0.0,0.0,0.0,0.0,0.0,0.0,0.0,0.0,1.4027,1.4376,1.4514,1.3956,0.0,0.0,0.0,0.0,1.2978,1.2978,1.2978,1.2978,1.2978,1.2978,1.2978,1.2968,0.0,0.0,1.3478,1.3545,1.3559,1.3543,1.3224,1.2929,1.2944,1.2929,1.2881,1.2881,1.2856,1.2891,1.2891,1.2759,1.2774,1.821,0.0,0.0,0.0,0.0,1.7867,1.7953,1.8112,1.8516,1.8458,1.8125,1.8496,0.0,0.0,0.0,0.0,0.0,0.0,1.6642,1.6502,1.6668,1.6659,1.6488,1.6337,1.6337,1.6509,1.6337,1.6273,1.6213,1.5822,1.5171,1.4328,0.0,0.0,0.0,0.0,1.3937,1.4693,1.4975,1.5377,1.5976,1.5976,1.5986,1.5998,1.6163,1.625,1.6225,1.6132,1.6197,1.6475,1.623,0.0,0.0,0.0,0.0,0.0,0.0,0.0,0.0,0.0,0.0,0.0,0.0,0.0,0.0,0.0,0.0,0.0,0.0,0.0,1.6216,1.5864,1.5842,0.0,0.0,0.0,0.0,0.0,0.0,0.0,0.0,0.0,1.5208,1.5231,1.5264,0.0,0.0,1.4399,1.4224,1.4177,1.4177,1.4177,1.4188,0.0,0.0,1.4177,1.4177,1.4177,1.4188,1.4253,1.4471,1.4426,1.4348,1.4346,1.391,1.3552,1.3505,1.3176,1.2929,1.2915,1.2915,1.2915,1.2915,1.2915,1.2915,1.9024,1.8688,1.8269,1.8243,1.8419,1.8419,1.8535,1.876,1.9095,1.9039,1.8746,1.908,1.8803,1.8072,1.7646,0.0,0.0,0.0,1.6616,1.6816,1.6607,1.6513,1.6513,1.6513,1.6513,1.6513,1.6513,1.6513,1.6513,1.6513,1.6129,1.5421,0.0,0.0,1.5018,1.4582,1.4757,1.5545,1.5586,1.5886,1.6479,1.6513,1.6513,1.6513,1.6513,1.6513,1.6513,1.6513,1.6513,1.6513,1.6513,1.6595,0.0,0.0,0.0,0.0,0.0,0.0,0.0,0.0,0.0,0.0,0.0,1.6513,0.0,0.0,0.0,0.0,1.6513,1.6513,1.6513,1.6173,0.0,0.0,0.0,0.0,0.0,0.0,0.0,1.6008,1.6281,1.6358,1.6008,1.5952,1.5864,1.5632,1.5276,1.4971,1.4721,0.0,1.4709,1.4709,1.4709,1.4709,1.4709,1.4709,1.4664,1.4494,1.474,1.509,1.5433,1.5181,1.5021,1.512,1.4484,1.3792,1.3792,1.33,1.2915,1.2915,1.2915,1.2915,1.2915,1.2915,1.2915,1.9723,1.9617,1.8631,1.8516,1.8949,1.8926,1.9188,1.9621,1.9636,1.9621,1.9639,1.9675,1.9169,1.8171,1.7105,0.0,1.7333,1.6816,1.6816,1.7209,1.6774,1.6552,1.6522,1.6513,1.6513,1.6513,1.6513,1.6513,1.6513,1.6513,1.6513,1.6479,1.593,1.5952,1.6389,1.5399,1.5389,1.6466,1.5952,1.593,1.6479,1.6513,1.6513,1.6513,1.6513,1.6513,1.6513,1.6513,1.6509,1.6552,1.6552,1.6816,1.7333,0.0,0.0,0.0,0.0,0.0,0.0,0.0,0.0,0.0,0.0,0.0,0.0,0.0,0.0,0.0,1.6513,0.0,1.6513,1.6513,0.0,0.0,0.0,1.6513,1.6513,1.6513,1.6513,1.6513,0.0,0.0,1.6513,0.0,1.6293,1.5754,1.5676,1.5454,1.4926,1.4892,1.4835,1.4915,1.4869,1.4858,1.4983,1.4949,1.4869,1.4552,1.4919,1.5628,1.6158,1.5869,1.5657,1.6073,1.4932,1.3897,1.3862,1.3382,1.2915,1.2915,1.2915,1.2915,1.2915,1.2915,1.2915,1.9723,1.969,1.9424,1.9406,1.9479,1.908,1.8968,1.908,1.908,1.908,1.9099,1.953,1.9548,1.9262,1.8204,1.7787,1.7887,1.736,1.6964,1.671,1.6972,1.6888,1.6522,1.6513,1.6513,1.6513,1.6513,1.6513,1.6513,1.6513,1.6513,1.65,1.6358,1.638,1.6479,1.6216,1.6216,1.6513,1.6346,1.6358,1.65,1.6513,1.6513,1.6513,1.6513,1.6513,1.6513,1.6513,1.6701,1.7084,1.7105,1.7353,1.7867,1.7907,0.0,0.0,0.0,0.0,0.0,0.0,0.0,0.0,0.0,1.6513,1.6513,0.0,1.6513,0.0,1.6513,1.6513,1.6513,1.6513,0.0,0.0,1.6513,1.6513,1.6513,1.6513,1.6513,1.6513,1.6513,1.6513,1.6513,1.6513,1.6457,1.6293,1.6293,1.6238,1.6086,1.6086,1.6064,1.6042,1.6042,1.6064,1.6042,1.6086,1.5996,1.5949,1.6083,1.6274,1.6443,1.6335,1.6274,1.6329,1.5394,1.4571,1.4491,1.3634,1.2978,1.2915,1.2915,1.2915,1.2915,1.2915,1.2915,1.9723,1.9723,1.9723,1.9723,1.9675,1.9387,1.9244,1.9262,1.9277,1.9262,1.9277,1.9317,1.9336,1.9281,1.8458,1.7953,1.7747,1.7686,1.736,1.6888,1.7167,1.7126,1.6837,1.6616,1.6513,1.6513,1.6513,1.6513,1.6513,1.6513,1.6513,1.6513,1.6513,1.6513,1.6513,1.6513,1.6513,1.6513,1.6513,1.6513,1.6513,1.6513,1.6513,1.6513,1.6513,1.6595,1.6858,1.6845,1.7105,1.7605,1.7666,1.7894,1.8419,1.8458,1.8631,0.0,0.0,0.0,0.0,0.0,0.0,0.0,0.0,0.0,0.0,0.0,1.6513,1.6513,1.6513,1.6513,1.6513,1.6513,1.6513,1.6513,1.6513,1.6513,1.6513,1.6513,1.6513,1.6513,1.6513,1.6513,1.6513,1.6513,1.6513,1.6513,1.6513,1.6513,1.6513,1.6513,1.6513,1.6513,1.6513,1.6513,1.6513,1.6513,1.6513,1.6513,1.6513,1.6507,1.6514,1.6514,1.6575,1.6757,1.59,1.5107,1.505,1.4387,1.3658,1.3396,1.3515,1.3501,1.3027,1.2915,1.2915,1.9869,1.9962,1.9872,1.9842,1.9828,1.9738,1.9723,1.9723,1.9723,1.9723,1.9657,1.9207,1.902,1.8983,1.8438,1.7933,1.7544,1.7987,1.7927,1.7415,1.7476,1.7463,1.7381,1.6942,1.6667,1.6595,1.668,1.6667,1.6607,1.668,1.671,1.6689,1.671,1.6689,1.6723,1.6701,1.6637,1.65,1.6513,1.6513,1.65,1.6573,1.6595,1.6616,1.6659,1.693,1.7374,1.7415,1.7646,1.8165,1.821,1.8438,1.8968,1.8987,1.9207,0.0,1.9723,0.0,0.0,0.0,0.0,0.0,0.0,0.0,0.0,1.671,1.6667,1.6616,1.6595,1.6586,1.6509,1.6513,1.6513,1.6513,1.6513,1.6513,1.6513,1.6513,1.6513,1.6513,1.6513,1.6513,1.6513,1.6513,1.6513,1.6513,1.6513,1.6513,1.6513,1.6513,1.6513,1.6513,1.6513,1.6513,1.6513,1.6513,1.6513,1.6513,1.6513,1.6514,1.6497,1.6501,1.6672,1.7017,1.63,1.5599,1.5598,1.5085,1.4514,1.4003,1.4294,1.4224,1.3234,1.3008,1.2973,2.0827,2.128,2.0752,2.0494,2.0468,1.9947,1.9723,1.9723,1.9723,1.9723,1.9708,1.9584,1.9548,1.9512,1.8987,1.8703,1.8612,1.8688,1.8458,1.7953,1.84,1.8361,1.7953,1.7847,1.7565,1.7188,1.7605,1.7565,1.7146,1.7585,1.7807,1.7807,1.7807,1.7807,1.7807,0.0,0.0,0.0,1.6513,1.6513,1.6522,1.693,1.716,1.7146,1.7565,0.0,1.7947,1.7933,1.819,1.8708,1.8746,0.0,0.0,0.0,0.0,0.0,0.0,0.0,0.0,0.0,0.0,0.0,1.7973,1.7787,1.7787,1.7807,1.7626,1.7188,1.7146,1.6972,1.6543,1.6513,1.6513,1.6513,1.65,1.6513,1.6513,1.6522,1.6513,1.6513,1.6513,1.6513,1.6525,1.6513,1.6513,1.6538,1.6513,1.6513,1.6513,1.6513,1.6513,1.6513,1.6513,1.6513,1.6513,1.6513,1.6513,1.6513,1.6513,1.6516,1.6523,1.651,1.6513,1.6688,1.6081,1.561,1.561,1.5107,1.4721,1.4537,1.4652,1.434,1.3186,1.3296,1.3478,2.1181,0.0,2.1181,2.1201,0.0,2.0827,2.0677,2.0632,1.9992,1.9723,1.9723,1.9723,1.9723,1.9675,1.9406,1.9151,1.8926,1.9169,1.9006,1.8516,1.8765,1.8765,1.8477,1.821,1.7947,1.7706,1.7953,1.7967,1.7727,1.7953,1.8092,1.8092,1.8092,1.8092,1.8092,1.8092,1.7827,1.7312,1.7291,1.7291,1.7291,1.7544,1.77,1.7706,0.0,0.0,0.0,0.0,0.0,0.0,0.0,0.0,0.0,0.0,0.0,1.9723,1.9723,1.9584,1.9299,1.9299,1.9188,1.8912,1.8893,1.865,1.8131,1.8092,1.7987,1.7727,1.7686,1.7497,1.6972,1.7126,1.7201,1.6951,1.7126,1.7291,1.7271,1.7055,1.6888,1.6866,1.6659,1.6588,1.6898,1.6651,1.666,1.6873,1.6685,1.6522,1.6513,1.6513,1.6513,1.6513,1.6513,1.6513,1.6513,1.6513,1.6513,1.6513,1.6513,1.6513,1.6513,1.6513,1.6513,1.6479,1.6238,1.6051,1.603,1.5788,1.5488,1.5265,1.5389,1.5152,1.4071,1.3813,1.3707,2.1784,2.1436,2.1859,2.2039,2.2024,2.1799,2.1695,2.162,0.0,0.0,0.0,2.0052,2.0052,2.0052,1.9914,1.9697,1.9429,1.9734,1.9638,1.9213,1.9232,1.9174,1.9039,1.8706,1.8439,1.8257,1.8453,1.8453,1.8243,1.8341,1.838,1.8394,1.8492,1.8604,1.8708,1.8512,1.8436,1.8534,1.8246,1.8092,1.8092,1.819,1.823,1.823,1.8341,1.8593,1.9024,1.9043,1.9244,1.9672,1.9723,1.9723,1.9723,1.9828,1.9869,1.9887,2.0007,1.9992,1.9902,1.9887,1.9809,1.9723,1.9723,1.9281,1.8308,1.8308,1.8341,1.8263,1.8243,1.8027,1.7483,1.7847,1.7988,1.7651,1.8031,1.8299,1.841,1.8092,1.7817,1.7587,1.7308,1.7098,1.7439,1.714,1.6909,1.72,1.6968,1.6573,1.6522,1.6513,1.6513,1.6513,1.6513,1.6513,1.6513,1.6513,1.6513,1.6513,1.6513,1.6513,1.6513,1.6513,1.6513,1.6513,1.6513,1.6479,1.65,1.6436,1.6337,1.5842,1.6139,1.6207,1.5266,1.4554,1.41,2.3573,2.4007,2.355,2.3325,2.3236,2.2158,2.1695,2.168,2.152,2.141,2.141,2.1425,2.1425,2.138,2.0827,2.0833,2.1252,2.0789,2.0535,2.0444,2.0459,2.015,1.9629,2.0105,1.9781,1.8927,1.983,1.9796,1.8931,1.9273,1.9479,1.9549,2.0053,2.0581,2.105,2.0057,1.9757,2.0286,1.8857,1.8092,1.8112,1.8554,1.8798,1.8803,1.9225,1.9497,1.9566,1.9584,1.9621,1.969,1.9723,1.9723,1.9723,2.0243,2.0554,2.0602,2.1096,2.1171,2.0632,2.0572,2.0318,1.9783,1.9723,1.9424,1.8874,1.9207,1.9295,1.8855,1.8827,1.8574,1.8086,1.812,1.84,1.8762,1.8906,1.9176,1.9712,1.9661,1.9376,1.8852,1.8797,1.8426,1.8058,1.7882,1.7666,1.7431,1.7319,1.7034,1.6723,1.6513,1.6513,1.6513,1.6513,1.6513,1.6513,1.6513,1.6513,1.6513,1.6513,1.6513,1.6513,1.6513,1.6513,1.6513,1.6513,1.6513,1.6513,1.6513,1.6445,1.6315,1.6436,1.6358,1.6107,1.5647,1.4983,2.4096,2.4111,2.4507,2.4455,2.4066,2.3131,2.2727,2.2727,2.2727,2.2308,2.171,2.1695,2.1695,2.1665,2.138,2.141,2.1665,2.1002,2.0897,2.1216,2.0853,2.0737,2.0812,2.1081,2.095,2.0474,2.095,2.095,2.0479,2.0657,2.0767,2.0816,2.1096,2.141,2.1635,2.11,2.0917,2.1196,1.9738,1.8968,1.8968,1.9207,1.9317,1.9336,1.9584,1.9723,1.9723,1.9723,1.9723,1.9723,1.9723,1.9872,2.0228,2.0543,2.0853,2.1231,2.153,2.156,2.1261,2.1246,2.1111,2.0812,2.0782,2.0691,2.043,1.9983,1.9748,1.9851,1.9876,1.9671,1.9137,1.9348,1.9521,1.9535,1.9764,2.0231,2.0752,2.0347,1.9869,1.9531,1.8937,1.8554,1.8528,1.8293,1.8178,1.8112,1.795,1.7619,1.7407,1.7353,1.7126,1.6637,1.6513,1.6513,1.6513,1.6513,1.6513,1.6513,1.6513,1.6513,1.6513,1.6513,1.6513,1.6513,1.6513,1.6513,1.6513,1.6513,1.6513,1.6513,1.6513,1.6513,1.6436,1.6017,1.532,2.4515,2.4163,2.533,2.5375,2.4575,2.4036,2.3744,2.361,2.358,2.3041,2.2203,2.2113,2.2128,2.2113,2.1999,2.2014,2.2024,2.1455,2.144,2.1849,2.1395,2.135,2.1695,2.1844,2.1844,2.1739,2.1844,2.1859,2.171,2.1695,2.1769,2.1874,2.1789,2.1844,2.2099,2.1829,2.1769,2.1849,2.0737,2.0082,1.9932,1.9783,1.9723,1.9723,1.9708,1.9723,1.9723,1.9857,1.9929,1.9944,2.0064,2.0378,2.0902,2.1081,2.138,2.1879,2.2054,2.2054,2.1919,2.1784,2.1695,2.1695,2.1695,2.168,2.1625,2.0752,2.0348,2.0842,2.0893,2.0724,2.0421,2.0646,2.0803,2.0571,2.0887,2.1351,2.1744,2.1088,2.0467,2.0248,1.9469,1.916,1.9332,1.9176,1.9099,1.9272,1.8767,1.8347,1.8319,1.8236,1.7686,1.7013,1.6667,1.6616,1.6565,1.6513,1.6513,1.6513,1.6513,1.6513,1.6513,1.6513,1.6513,1.6513,1.6513,1.6513,1.6513,1.6513,1.6513,1.6513,1.6513,1.6513,1.6479,1.616,1.5644,2.5465,2.5525,2.6168,2.5779,2.4664,2.453,2.4156,2.3684,2.361,2.355,2.3385,2.3415,2.337,2.334,2.2853,2.2882,2.3295,2.2793,2.2523,2.2583,2.2538,2.2239,2.1844,2.2328,2.2283,2.1874,2.2328,2.2328,2.1814,2.1789,2.2029,2.2463,2.2029,2.2293,2.3131,2.2278,2.2029,2.2583,2.1909,2.1216,2.0598,2.0022,1.9723,1.9723,1.9738,1.9723,1.9798,2.0288,2.0617,2.0662,2.1171,2.153,2.165,2.2158,2.2538,2.2613,2.3101,2.3212,2.2643,2.2059,2.1739,2.1695,2.1754,2.1769,2.1754,2.1605,2.153,2.1635,2.1635,2.155,2.153,2.1585,2.1794,2.2166,2.2327,2.2553,2.2568,2.2512,2.2202,2.1585,2.1243,2.1391,2.1198,2.1124,2.1048,2.0612,1.9792,1.9207,1.9145,1.8693,1.8163,1.7516,1.725,1.7034,1.6659,1.6513,1.6513,1.6513,1.6513,1.6513,1.6513,1.6513,1.6513,1.6513,1.6513,1.6513,1.6513,1.6513,1.6513,1.6513,1.6513,1.6513,1.6513,1.6436,1.6095,2.56,2.5674,2.6318,2.6063,2.5187,2.4769,2.4664,2.4762,2.435,2.4171,2.4126,2.3767,2.3595,2.358,2.3347,2.337,2.355,2.2972,2.2912,2.3182,2.2868,2.2733,2.2847,2.3107,2.3056,2.2847,2.3101,2.3086,2.2862,2.2817,2.2951,2.3176,2.2936,2.3101,2.3535,2.3086,2.2987,2.3191,2.2613,2.2149,2.1849,2.125,2.0891,2.0887,2.0872,2.0872,2.0921,2.1175,2.1291,2.1306,2.156,2.1894,2.2269,2.2553,2.2868,2.3191,2.3467,2.3505,2.3236,2.2966,2.2832,2.2817,2.2832,2.2817,2.2817,2.2817,2.2832,2.2787,2.2488,2.2283,2.2298,2.2298,2.2403,2.2658,2.2703,2.2838,2.3191,2.2897,2.2568,2.2298,2.1934,2.1695,2.1695,2.1695,2.1615,2.1385,2.0869,2.0616,2.0573,2.0079,1.9468,1.8939,1.8528,1.7754,1.685,1.6513,1.6522,1.6522,1.6513,1.6513,1.6543,1.6513,1.6513,1.6513,1.6513,1.6513,1.6513,1.6513,1.6513,1.6513,1.6513,1.6513,1.6513,1.6513,1.6358,2.56,2.5734,2.6497,2.6482,2.5839,2.5352,2.5307,2.5501,2.5083,2.4874,2.4829,2.4358,2.4044,2.3864,2.3684,2.3595,2.3535,2.3152,2.3161,2.352,2.3131,2.3182,2.3565,2.3595,2.3595,2.3595,2.358,2.3595,2.3595,2.3595,2.3595,2.3595,2.3595,2.3595,2.3595,2.3595,2.3595,2.355,2.3167,2.2957,2.2868,2.2621,2.2199,2.1759,2.1695,2.1695,2.1695,2.1859,2.1964,2.1964,2.2113,2.2428,2.2912,2.2942,2.3152,2.3535,2.3595,2.3595,2.3595,2.3595,2.3595,2.3595,2.3595,2.3595,2.3595,2.3595,2.3595,2.3535,2.3227,2.2942,2.2942,2.2942,2.2942,2.2957,2.2942,2.3101,2.3251,2.2927,2.2703,2.2658,2.2298,2.2039,2.2173,2.2263,2.2288,2.2252,2.2093,2.1964,2.1874,2.1351,2.0704,2.0034,1.9454,1.8604,1.7261,1.7013,1.693,1.6866,1.6921,1.6774,1.6689,1.6637,1.6513,1.6513,1.6513,1.6513,1.6513,1.6513,1.6513,1.6513,1.6513,1.6513,1.6513,1.6513,1.6513,2.56,2.5809,2.7001,2.7121,2.6551,2.6501,2.6201,2.5875,2.5655,2.5616,2.5648,2.5535,2.5159,2.4582,2.41,2.3631,2.3595,2.3578,2.3599,2.3659,2.3578,2.3586,2.3595,2.3595,2.3595,2.3595,2.3595,2.3616,2.3616,2.3638,2.3595,2.3638,2.3702,2.3638,2.3702,2.3702,2.3616,2.3709,2.3649,2.3584,2.3627,2.4014,2.3406,2.2079,2.1764,2.1884,2.1874,2.2349,2.2699,2.2679,2.3215,2.3554,2.3578,2.3578,2.3593,2.3616,2.3616,2.3595,2.3595,2.3595,2.3595,2.3595,2.3638,2.3595,2.3595,2.3659,2.3659,2.3595,2.3535,2.349,2.349,2.3445,2.3475,2.349,2.352,2.331,2.2853,2.2868,2.2718,2.2748,2.2703,2.2808,2.3355,2.352,2.3385,2.3266,2.2966,2.2658,2.2553,2.2069,2.1272,2.0434,1.9931,1.9421,1.8351,1.7787,1.7847,1.7767,1.7401,1.7271,1.7076,1.6909,1.6723,1.6543,1.6595,1.6595,1.6543,1.6513,1.6513,1.6513,1.6513,1.6513,1.6513,1.6513,1.6513,2.6243,2.6273,2.6737,2.701,2.7163,2.7171,2.7496,2.7966,2.7588,2.7384,2.729,2.6951,2.6606,2.6355,2.6162,2.5111,2.3726,2.3964,2.4116,2.4116,2.4116,2.4116,2.4074,2.3773,2.3595,2.3595,2.3595,2.3773,2.4122,2.445,2.4632,2.4632,2.4617,2.4617,2.4632,2.4617,2.4632,2.4632,2.4597,2.4632,2.4597,2.4796,2.4544,2.3983,2.3932,2.3951,2.3936,2.4167,2.4292,2.4292,2.4507,2.4617,2.4592,2.4287,2.4101,2.4074,2.3794,2.3595,2.3595,2.3595,2.3595,2.3616,2.3927,2.3948,2.3745,2.39,2.397,2.3702,2.3595,2.3595,2.3595,2.3595,2.3595,2.3595,2.3595,2.352,2.3362,2.3287,2.3287,2.3266,2.3266,2.337,2.349,2.3595,2.3595,2.358,2.34,2.3287,2.3182,2.2727,2.2127,2.1693,2.0956,2.0278,1.9938,1.8683,1.8106,1.8066,1.7887,1.7827,1.7706,1.7605,1.7456,1.6993,1.693,1.6752,1.668,1.6513,1.6513,1.6513,1.6513,1.6513,1.6513,1.6513,1.6513,2.7281,2.7769,2.7585,2.7875,2.8426,2.8465,2.8812,2.939,2.9185,2.8928,2.8672,2.8223,2.7944,2.7735,2.7724,2.6725,2.5006,2.5228,2.5241,2.5037,2.5022,2.4892,2.4628,2.4302,2.4116,2.4183,2.4367,2.4668,2.5033,2.5624,2.5894,2.591,2.5914,2.5785,2.5621,2.5573,2.5458,2.5266,2.5202,2.5202,2.5221,2.5373,2.5465,2.5503,2.5598,2.5505,2.524,2.5202,2.5202,2.5202,2.5202,2.5202,2.5163,2.4871,2.4657,2.4612,2.4328,2.4116,2.4116,2.4116,2.4122,2.4137,2.441,2.4491,2.4178,2.4302,2.4199,2.3943,2.3681,2.3638,2.3815,2.3858,2.3809,2.3659,2.3595,2.3595,2.3595,2.3595,2.358,2.3565,2.355,2.358,2.3595,2.3595,2.3595,2.3595,2.3595,2.3595,2.352,2.3281,2.2882,2.2673,2.1944,2.1336,2.0871,1.9904,1.9061,1.8889,1.8438,1.838,1.8322,1.8263,1.7993,1.7544,1.7209,1.6993,1.6774,1.6586,1.6543,1.6565,1.6513,1.6513,1.6513,1.6513,1.6509,2.8699,3.0153,2.9726,2.9729,3.0275,3.0314,3.0051,2.9772,3.018,3.0103,2.9786,2.9454,2.914,2.8673,2.8666,2.8067,2.7541,2.7485,2.7042,2.6383,2.6314,2.5958,2.5426,2.5329,2.527,2.5305,2.5934,2.6294,2.6346,2.6989,2.7357,2.7372,2.7336,2.7053,2.6374,2.6392,2.5992,2.558,2.5438,2.5316,2.5278,2.5744,2.5997,2.6033,2.6384,2.6226,2.5384,2.5313,2.5335,2.5316,2.5365,2.5272,2.5512,2.5388,2.525,2.5282,2.5195,2.5144,2.5125,2.5086,2.5028,2.5178,2.5227,2.5275,2.5132,2.4846,2.4594,2.4369,2.4053,2.3879,2.4307,2.441,2.422,2.3709,2.3687,2.3702,2.3595,2.3595,2.3595,2.3595,2.3595,2.3595,2.3595,2.3595,2.3595,2.3595,2.3595,2.3595,2.3595,2.3505,2.3295,2.2927,2.2508,2.2119,2.1635,2.1137,2.0475,1.9864,1.9272,1.8912,1.8836,1.8727,1.838,1.7933,1.7605,1.736,1.7188,1.7013,1.6921,1.69,1.6744,1.6629,1.6528,1.6532,1.6553,3.0209,3.1197,3.1013,3.0978,3.1122,3.1111,3.1177,3.132,3.1158,3.1408,3.1857,3.1071,3.0795,3.0895,3.0562,3.0196,3.0019,2.9966,2.9175,2.7853,2.7633,2.7467,2.7196,2.6888,2.6708,2.6816,2.7329,2.7598,2.7741,2.8207,2.8498,2.8498,2.8512,2.8398,2.8108,2.7627,2.7176,2.696,2.6478,2.6229,2.6229,2.6401,2.6487,2.6487,2.6641,2.6724,2.6928,2.6512,2.6245,2.626,2.671,2.7228,2.7524,2.6982,2.6512,2.6409,2.565,2.5202,2.5202,2.5269,2.5532,2.5908,2.6305,2.6305,2.6076,2.6102,2.5796,2.5139,2.4776,2.4796,2.491,2.4969,2.4732,2.422,2.4158,2.3991,2.3752,2.3659,2.3595,2.3595,2.3595,2.3595,2.3616,2.3638,2.3638,2.3638,2.3616,2.3595,2.3595,2.3595,2.358,2.3325,2.3032,2.2733,2.2343,2.1909,2.134,2.0692,2.0082,1.9545,1.9401,1.9151,1.8765,1.8361,1.8027,1.7767,1.7565,1.7463,1.7394,1.7476,1.7524,1.7202,1.6714,1.6615,1.6751,3.1808,3.262,3.239,3.2413,3.2523,3.2545,3.2605,3.2675,3.251,3.2814,3.3098,3.2422,3.2107,3.2242,3.207,3.1681,3.1258,3.1444,3.0799,2.9421,2.8979,2.8798,2.851,2.8177,2.8001,2.8125,2.8611,2.8896,2.8968,2.9501,2.982,2.9803,2.9822,2.9651,2.9364,2.8653,2.8229,2.8146,2.7486,2.7249,2.7503,2.7537,2.7554,2.7571,2.7537,2.7791,2.818,2.7791,2.7571,2.7639,2.8027,2.8501,2.8873,2.796,2.7378,2.7205,2.6706,2.6208,2.619,2.6576,2.6782,2.7268,2.7628,2.7684,2.7336,2.7352,2.6651,2.6081,2.5442,2.5278,2.5449,2.5521,2.5432,2.5449,2.4953,2.4588,2.4246,2.4184,2.4204,2.4246,2.4225,2.4199,2.4184,2.397,2.3921,2.3885,2.3709,2.3595,2.3595,2.3595,2.3595,2.3565,2.3325,2.3137,2.3032,2.2628,2.2149,2.153,2.0904,2.0395,2.0061,1.9675,1.9295,1.8741,1.8322,1.8027,1.7827,1.7894,1.7887,1.8072,1.8204,1.7859,1.7431,1.7133,1.7133,3.3317,3.4399,3.3808,3.3849,3.4293,3.431,3.3938,3.3626,3.3947,3.3947,3.3643,3.3301,3.3,3.2716,3.3,3.2544,3.1684,3.2036,3.2019,3.1269,3.0675,3.0049,2.9357,2.9216,2.9215,2.9288,2.9812,3.0121,3.0099,3.0664,3.119,3.1004,3.0937,3.0835,3.0142,2.9433,2.9061,2.8941,2.8281,2.823,2.8807,2.8874,2.8874,2.884,2.8824,2.8891,2.9027,2.9077,2.9077,2.9061,2.9008,2.9128,2.9008,2.8383,2.8041,2.8058,2.7924,2.7787,2.7974,2.8205,2.8747,2.8863,2.8915,2.9077,2.8846,2.8131,2.7528,2.717,2.6227,2.5691,2.6074,2.6198,2.6475,2.69,2.6031,2.5336,2.5179,2.5125,2.5008,2.5067,2.5182,2.5182,2.5047,2.4657,2.4455,2.4266,2.3948,2.3773,2.3595,2.3595,2.3595,2.3535,2.3482,2.3415,2.3281,2.3152,2.2718,2.2413,2.1705,2.1032,2.0464,1.9986,1.9672,1.9132,1.8722,1.84,1.8322,1.8477,1.8496,1.8574,1.8558,1.842,1.8268,1.7981,1.7673,3.4004,3.5267,3.5092,3.4844,3.4523,3.4489,3.4404,3.4167,3.3829,3.4286,3.4624,3.3863,3.3626,3.3884,3.3525,3.3152,3.2882,3.3,3.3068,3.2848,3.2662,3.1782,3.0835,3.0618,3.0618,3.0651,3.0734,3.0903,3.092,3.1072,3.119,3.119,3.119,3.1142,3.0818,3.0142,2.9837,2.9719,2.9059,2.879,2.8993,2.9061,2.8993,2.8993,2.9044,2.9296,2.9803,3.0345,3.0328,2.9854,2.9803,3.0091,3.0395,2.982,2.9364,2.9296,2.8941,2.8687,2.8739,2.8925,2.9281,2.9753,2.9803,2.982,2.9803,2.9505,2.9042,2.8538,2.7656,2.715,2.7293,2.7326,2.7714,2.8127,2.7098,2.5976,2.5503,2.5202,2.5202,2.5202,2.5323,2.541,2.5423,2.5204,2.4918,2.4634,2.4323,2.408,2.3906,2.3687,2.373,2.3638,2.3586,2.358,2.3535,2.3445,2.331,2.3191,2.2503,2.1545,2.0812,2.0064,1.9791,1.9479,1.9295,1.902,1.9169,1.935,1.9277,1.9058,1.9143,1.9116,1.9105,1.893,1.8493,3.4822,3.56,3.5616,3.5346,3.4979,3.4962,3.4962,3.4878,3.4573,3.4754,3.5278,3.4737,3.4387,3.4455,3.4387,3.3947,3.3508,3.3728,3.3677,3.3389,3.3322,3.2848,3.2188,3.1867,3.1667,3.1616,3.1326,3.119,3.1173,3.119,3.119,3.119,3.119,3.119,3.1123,3.0497,3.0294,3.0362,2.9854,2.9567,2.9907,2.9924,2.9941,2.9941,2.9922,3.0159,3.0598,3.097,3.097,3.0649,3.0598,3.0768,3.1055,3.0514,3.0089,3.0074,2.9668,2.9448,2.9533,2.9702,3.0127,3.0463,3.0565,3.0548,3.048,3.0328,2.9854,2.9447,2.8755,2.8399,2.8366,2.8551,2.8805,2.8834,2.8306,2.7583,2.6874,2.6897,2.6827,2.681,2.6792,2.6792,2.6759,2.6341,2.5895,2.5563,2.5069,2.4751,2.441,2.4137,2.3991,2.4053,2.3858,2.3815,2.3858,2.3803,2.3586,2.3468,2.2862,2.1969,2.1203,2.0314,1.9944,1.9779,1.9735,1.9723,1.9723,1.9723,1.9617,1.9512,1.9705,1.9672,1.9566,1.9402,1.9033,3.5515,3.5616,3.5616,3.5616,3.5566,3.56,3.5532,3.5583,3.5481,3.5515,3.5566,3.56,3.5148,3.4675,3.5109,3.4839,3.374,3.437,3.4201,3.3964,3.3829,3.3694,3.3592,3.2747,3.2361,3.2141,3.1582,3.1326,3.1241,3.119,3.119,3.119,3.119,3.119,3.1106,3.0581,3.0632,3.0903,3.0531,3.0463,3.0855,3.092,3.0903,3.0903,3.092,3.0954,3.1106,3.1292,3.1345,3.1328,3.1241,3.1157,3.1106,3.0531,3.0311,3.0294,3.026,3.0226,3.0277,3.0717,3.1072,3.1089,3.1106,3.119,3.1021,3.0632,3.0311,3.0226,2.9551,2.9179,2.9179,2.9668,2.977,2.9583,2.9814,2.9785,2.9399,2.9094,2.8993,2.8993,2.8924,2.8976,2.8697,2.8089,2.7238,2.6775,2.6205,2.5614,2.5183,2.4762,2.4755,2.4851,2.4532,2.4074,2.4116,2.4148,2.3853,2.3606,2.2915,2.2154,2.156,2.082,2.0239,1.9974,2.0079,1.9944,1.9723,1.9723,1.9738,1.9723,1.9723,1.9723,1.9672,1.9472,1.9165,3.5081,3.5616,3.5616,3.5616,3.5616,3.5616,3.5633,3.565,3.5633,3.5667,3.5616,3.5616,3.5498,3.5368,3.5498,3.538,3.5025,3.5233,3.5228,3.5177,3.5126,3.5126,3.4844,3.3872,3.2919,3.2479,3.2192,3.1785,3.1376,3.1241,3.119,3.119,3.119,3.119,3.114,3.1021,3.1004,3.1176,3.1004,3.0987,3.1106,3.119,3.119,3.119,3.119,3.1207,3.1326,3.1749,3.2056,3.1918,3.1546,3.1292,3.1244,3.1038,3.0886,3.0886,3.0903,3.0937,3.0987,3.1055,3.119,3.119,3.119,3.119,3.119,3.1055,3.0937,3.0835,3.0311,2.9905,2.9905,2.9989,3.026,3.0497,3.0717,3.0835,3.0565,2.9721,2.9213,2.9094,2.9111,2.901,2.9044,2.892,2.8375,2.7976,2.7317,2.658,2.6028,2.549,2.541,2.5468,2.5028,2.4612,2.4756,2.4705,2.4376,2.403,2.3351,2.2742,2.213,2.1639,2.1184,2.0797,2.0528,2.0303,2.0052,1.9809,1.9854,1.9798,1.9738,1.9798,1.9773,1.9561,1.9546,3.5791,3.6197,3.6552,3.6664,3.6688,3.6705,3.6681,3.662,3.6299,3.6163,3.6079,3.5785,3.5616,3.5616,3.5616,3.56,3.5616,3.5616,3.5825,3.5943,3.5842,3.5931,3.6271,3.5343,3.4311,3.3409,3.2564,3.2073,3.1752,3.143,3.119,3.119,3.1224,3.119,3.119,3.1227,3.1173,3.119,3.119,3.119,3.119,3.119,3.119,3.119,3.1207,3.1309,3.1752,3.2073,3.2259,3.2209,3.1955,3.1735,3.1616,3.1376,3.1207,3.119,3.119,3.119,3.119,3.119,3.119,3.119,3.119,3.119,3.119,3.119,3.119,3.1123,3.0869,3.0615,3.0632,3.0632,3.0869,3.1038,3.119,3.119,3.1055,3.0499,3.0042,3.0042,3.0108,3.0127,3.0025,2.9721,2.9479,2.9094,2.7905,2.7188,2.6881,2.6367,2.6003,2.5819,2.5411,2.5221,2.543,2.5309,2.4933,2.4591,2.4124,2.3615,2.3131,2.2682,2.2283,2.1754,2.1156,2.0797,2.0528,2.0288,2.0004,1.9809,1.9798,1.9902,1.9956,1.9879,1.9994,3.6812,3.6863,3.7601,3.7898,3.7898,3.7848,3.7821,3.7753,3.7229,3.6863,3.6717,3.6113,3.61,3.5953,3.5932,3.591,3.6142,3.6425,3.695,3.7298,3.6899,3.7025,3.7293,3.6828,3.6028,3.4823,3.3656,3.2937,3.2522,3.1924,3.1833,3.1613,3.1596,3.1782,3.163,3.1511,3.1562,3.1517,3.1395,3.1407,3.143,3.1444,3.1495,3.1732,3.1749,3.1968,3.2429,3.2682,3.2733,3.2632,3.2696,3.2646,3.2276,3.1667,3.119,3.119,3.119,3.119,3.119,3.119,3.119,3.119,3.119,3.119,3.119,3.119,3.119,3.119,3.1089,3.1089,3.119,3.1089,3.1106,3.119,3.119,3.119,3.119,3.119,3.1038,3.1038,3.0818,3.0751,3.0717,3.0531,3.0395,3.0021,2.8804,2.7908,2.7616,2.7108,2.6617,2.6332,2.5962,2.5819,2.5998,2.5797,2.5447,2.5277,2.4862,2.4275,2.3891,2.3575,2.3046,2.2309,2.1759,2.1425,2.1141,2.0932,2.0572,2.0082,2.0112,2.0483,2.0453,2.0273,2.0456,3.6812,3.6863,3.7584,3.7922,3.7922,3.7922,3.8038,3.7889,3.7939,3.7371,3.6978,3.707,3.7172,3.7174,3.6993,3.7273,3.779,3.8208,3.8725,3.8974,3.8655,3.8672,3.8254,3.8047,3.7459,3.6654,3.5418,3.4525,3.3882,3.3335,3.2954,3.3015,3.3002,3.2985,3.2926,3.2823,3.2529,3.2322,3.2099,3.2082,3.223,3.2304,3.2525,3.288,3.2934,3.3097,3.3358,3.3821,3.4117,3.4198,3.4583,3.4165,3.3281,3.2091,3.1494,3.1232,3.1252,3.1271,3.1271,3.123,3.121,3.119,3.119,3.119,3.119,3.119,3.119,3.119,3.119,3.119,3.119,3.119,3.119,3.119,3.119,3.119,3.119,3.119,3.119,3.119,3.119,3.119,3.1055,3.0987,3.0852,3.0463,2.9567,2.8907,2.8633,2.7822,2.691,2.6725,2.6573,2.6522,2.659,2.6226,2.5924,2.5987,2.5554,2.4646,2.4326,2.4234,2.3749,2.2903,2.2433,2.2194,2.1904,2.1605,2.1335,2.0961,2.1051,2.1171,2.109,2.0974,2.0959,3.7364,3.7466,3.8589,3.9224,3.9435,3.9442,3.9629,3.9817,3.9515,3.9172,3.8738,3.8297,3.8248,3.8403,3.8031,3.8274,3.9024,3.9361,3.9804,4.0017,3.9787,3.9587,3.9186,3.8974,3.851,3.7863,3.7023,3.607,3.5162,3.4482,3.4235,3.4173,3.4172,3.4172,3.4158,3.4033,3.384,3.3588,3.3473,3.3439,3.3619,3.3633,3.3911,3.4067,3.4222,3.438,3.4777,3.502,3.5263,3.5322,3.5518,3.506,3.4283,3.3528,3.2602,3.1824,3.1578,3.1507,3.1507,3.1507,3.1413,3.123,3.121,3.119,3.119,3.119,3.1317,3.1244,3.119,3.119,3.119,3.1224,3.119,3.119,3.119,3.119,3.119,3.119,3.119,3.119,3.119,3.119,3.119,3.1157,3.1173,3.0768,3.0142,2.9786,2.9499,2.8604,2.752,2.7283,2.7164,2.7029,2.7063,2.6874,2.6393,2.6373,2.633,2.5408,2.4787,2.4705,2.4153,2.3348,2.3053,2.2999,2.2553,2.2209,2.2024,2.1844,2.171,2.164,2.1733,2.1723,2.1708,3.8044,3.8204,3.9795,4.0696,4.1041,4.1087,4.13,4.1605,4.112,4.0604,4.0334,3.9524,3.9336,3.9608,3.9685,3.9815,4.0207,4.0335,4.0803,4.0857,4.057,4.0327,3.9896,3.9603,3.9032,3.8508,3.8162,3.7465,3.6488,3.5757,3.5439,3.5437,3.5368,3.5368,3.5403,3.5315,3.5261,3.5119,3.5046,3.5046,3.5137,3.5279,3.5368,3.5368,3.5368,3.5668,3.6054,3.6176,3.623,3.6268,3.629,3.6025,3.5315,3.5225,3.4411,3.2897,3.237,3.2142,3.1968,3.195,3.1825,3.1638,3.1506,3.1555,3.1867,3.2152,3.2126,3.1849,3.1898,3.1885,3.191,3.1546,3.1478,3.141,3.1326,3.119,3.119,3.119,3.119,3.119,3.119,3.119,3.119,3.119,3.119,3.097,3.0378,3.0057,2.9736,2.923,2.8417,2.8027,2.7791,2.7537,2.752,2.7622,2.7075,2.6601,2.6714,2.6339,2.5702,2.5211,2.4585,2.4076,2.402,2.3896,2.334,2.2873,2.2748,2.2532,2.2218,2.2089,2.2174,2.2345,2.241,3.8607,3.8789,4.0731,4.1643,4.1686,4.1686,4.1729,4.1835,4.1756,4.0837,4.0153,4.0588,4.067,4.0673,4.2068,4.2354,4.2263,4.2357,4.2376,4.2067,4.1866,4.1189,4.0191,3.9894,3.9422,3.893,3.8666,3.8281,3.7678,3.7131,3.6913,3.6878,3.6844,3.6911,3.6791,3.6625,3.6272,3.5936,3.5712,3.5729,3.6007,3.6558,3.6824,3.6895,3.6895,3.6914,3.7076,3.7111,3.7093,3.7128,3.747,3.7058,3.6203,3.634,3.6043,3.5119,3.4153,3.3192,3.2769,3.2699,3.2631,3.2529,3.2441,3.2755,3.3161,3.374,3.3911,3.3867,3.3744,3.3468,3.302,3.253,3.2283,3.1953,3.1713,3.1414,3.1252,3.1351,3.1332,3.119,3.119,3.119,3.119,3.119,3.1157,3.092,3.0666,3.0362,3.0023,2.9585,2.9247,2.8856,2.8433,2.818,2.8062,2.8163,2.7908,2.7161,2.7209,2.7219,2.6434,2.5797,2.5492,2.5102,2.4965,2.4592,2.3974,2.3603,2.3483,2.3221,2.2906,2.2727,2.2679,2.2846,2.3013,3.9416,3.9325,4.1054,4.2,4.2302,4.2302,4.2483,4.2734,4.2772,4.241,4.1814,4.1778,4.172,4.1791,4.2969,4.3277,4.3094,4.3332,4.3332,4.2983,4.2818,4.2304,4.1425,4.0781,4.0157,3.946,3.8985,3.8959,3.8665,3.8403,3.8068,3.8035,3.8051,3.8029,3.7948,3.7873,3.7727,3.7568,3.7449,3.743,3.7575,3.7834,3.8051,3.8016,3.8016,3.7999,3.7999,3.805,3.805,3.8066,3.8283,3.8158,3.7716,3.7685,3.7507,3.6723,3.6217,3.5399,3.449,3.4263,3.4041,3.3893,3.3842,3.4039,3.4392,3.4711,3.4942,3.4604,3.4585,3.449,3.4215,3.3534,3.3238,3.2889,3.2359,3.1848,3.1601,3.1528,3.1509,3.1351,3.121,3.123,3.123,3.119,3.119,3.1089,3.097,3.0835,3.0514,3.0142,2.9871,2.9651,2.9211,2.8807,2.8739,2.8739,2.8739,2.8278,2.8244,2.8015,2.6998,2.6407,2.6288,2.5751,2.523,2.4847,2.4502,2.4215,2.3988,2.3776,2.358,2.3368,2.3149,2.3212,2.3344,4.0383,4.035,4.1672,4.2501,4.2883,4.2902,4.3124,4.3444,4.3444,4.3352,4.3075,4.2563,4.2379,4.2671,4.3185,4.3442,4.3461,4.3479,4.3332,4.3276,4.3094,4.2616,4.1791,4.1185,4.0763,4.0175,3.9441,3.9502,3.9738,3.9467,3.8962,3.9001,3.8967,3.8813,3.8695,3.8588,3.8486,3.8468,3.8465,3.8499,3.8556,3.859,3.8643,3.8658,3.8692,3.8707,3.8707,3.8643,3.8643,3.8643,3.8627,3.8541,3.8486,3.8431,3.8294,3.7799,3.7537,3.7241,3.6414,3.5939,3.5652,3.5436,3.5499,3.5598,3.5654,3.5642,3.5737,3.5882,3.5811,3.5723,3.5332,3.4783,3.427,3.3829,3.3264,3.2634,3.2127,3.2109,3.1877,3.1584,3.143,3.131,3.1291,3.121,3.119,3.119,3.119,3.119,3.0937,3.0581,3.0497,3.0311,3.0142,2.9805,2.9754,2.9636,2.9534,2.9384,2.9314,2.9213,2.8485,2.7779,2.7419,2.6707,2.5913,2.5766,2.5847,2.5128,2.4471,2.4184,2.3927,2.3767,2.3642,2.3653,2.3738,4.1467,4.2201,4.299,4.3356,4.341,4.3444,4.3444,4.3479,4.3479,4.3112,4.2653,4.2396,4.2782,4.3222,4.3386,4.3479,4.3479,4.3479,4.3149,4.2727,4.2341,4.2213,4.1754,4.1444,4.1132,4.0893,4.023,4.0322,4.0691,4.0396,3.9974,3.9808,3.9863,3.9368,3.9074,3.9001,3.8799,3.8744,3.8707,3.8707,3.8707,3.8707,3.8707,3.8707,3.8707,3.8707,3.8707,3.8707,3.8707,3.8707,3.8707,3.8707,3.8707,3.8707,3.8542,3.8469,3.8414,3.8221,3.7848,3.7083,3.6413,3.6454,3.6757,3.7122,3.7091,3.793,3.8075,3.7512,3.728,3.7218,3.6863,3.6325,3.5525,3.497,3.4323,3.3443,3.2957,3.2748,3.2475,3.1967,3.1747,3.1734,3.1351,3.1291,3.121,3.119,3.119,3.119,3.119,3.0954,3.1004,3.0954,3.0987,3.0903,3.0937,3.0787,3.0431,3.0264,3.018,3.0433,3.0458,2.9729,2.8515,2.8094,2.7456,2.73,2.6974,2.6222,2.5454,2.4695,2.4246,2.4012,2.3857,2.3796,2.4029,4.1279,4.168,4.2947,4.3479,4.3479,4.3479,4.3479,4.3479,4.3479,4.3351,4.302,4.3039,4.3203,4.3441,4.3479,4.3479,4.3479,4.3479,4.324,4.3149,4.2965,4.2818,4.247,4.2066,4.1811,4.1645,4.1111,4.1056,4.168,4.135,4.1405,4.1277,4.0928,4.0561,4.0175,3.9606,3.9221,3.8836,3.8744,3.871,3.8707,3.8707,3.8707,3.8707,3.8707,3.8707,3.8707,3.8707,3.8707,3.8707,3.8707,3.8707,3.8707,3.8707,3.8707,3.8707,3.8707,3.8707,3.8707,3.8102,3.7826,3.7808,3.8065,3.8193,3.8138,3.856,3.8609,3.843,3.8366,3.8168,3.8058,3.7392,3.6694,3.6193,3.5447,3.4472,3.3928,3.3723,3.3317,3.2913,3.258,3.2357,3.1855,3.137,3.1271,3.119,3.119,3.119,3.119,3.119,3.119,3.119,3.119,3.119,3.119,3.1193,3.1176,3.106,3.091,3.1028,3.1092,3.0466,2.9475,2.9178,2.8789,2.8303,2.777,2.7194,2.636,2.5307,2.4628,2.4158,2.4022,2.3988,2.4395,4.1242,4.1607,4.291,4.3479,4.3479,4.3479,4.3479,4.3479,4.3479,4.3479,4.3479,4.3479,4.3479,4.3479,4.3479,4.3479,4.3479,4.3479,4.3479,4.3424,4.3406,4.3479,4.3277,4.3002,4.2635,4.247,4.1974,4.1864,4.2616,4.2415,4.2378,4.2304,4.2103,4.1699,4.0893,4.0545,3.9955,3.9551,3.9405,3.9205,3.9184,3.9093,3.8854,3.8799,3.8707,3.8707,3.8707,3.8707,3.8707,3.8707,3.8707,3.8707,3.8707,3.8707,3.8707,3.8707,3.8707,3.8707,3.8707,3.8707,3.8707,3.8505,3.856,3.8634,3.8707,3.8707,3.8643,3.8658,3.8658,3.8689,3.8689,3.8101,3.754,3.6988,3.6565,3.5727,3.5251,3.4939,3.4402,3.3916,3.3579,3.3178,3.2333,3.1775,3.139,3.1295,3.119,3.119,3.119,3.119,3.119,3.119,3.119,3.119,3.119,3.1173,3.1193,3.1176,3.1077,3.1097,3.1002,3.0533,3.0345,3.0125,2.9685,2.9127,2.8563,2.7998,2.6932,2.571,2.5118,2.4592,2.4616,2.4641,2.4959,4.1535,4.2341,4.3149,4.3479,4.3479,4.3479,4.3479,4.3479,4.3479,4.3479,4.3479,4.3479,4.3479,4.3479,4.3479,4.3479,4.3479,4.3479,4.3479,4.3479,4.3479,4.3479,4.3461,4.3332,4.3204,4.3222,4.2763,4.2653,4.3332,4.2818,4.2855,4.3149,4.3002,4.2488,4.1277,4.1113,4.1058,4.1003,4.0875,4.0414,4.0029,3.9863,3.9551,3.9239,3.9129,3.9184,3.9184,3.9203,3.9166,3.8964,3.8927,3.8872,3.8726,3.8707,3.8707,3.8707,3.8707,3.8707,3.8707,3.8707,3.8707,3.8707,3.8707,3.8707,3.8707,3.8707,3.8707,3.8707,3.8707,3.8707,3.8689,3.8615,3.8138,3.7771,3.7312,3.6857,3.6329,3.6065,3.555,3.5038,3.4567,3.4038,3.3071,3.2233,3.1686,3.1433,3.1241,3.119,3.1224,3.119,3.119,3.119,3.119,3.119,3.119,3.119,3.119,3.119,3.1173,3.1196,3.1196,3.0973,3.0869,3.0886,3.0514,2.9905,2.9345,2.8803,2.7751,2.6757,2.5705,2.5176,2.5211,2.5417,2.5829,4.1589,4.2378,4.3184,4.3479,4.3479,4.3479,4.3479,4.3479,4.3479,4.3479,4.3479,4.3479,4.3479,4.3479,4.3479,4.3479,4.3479,4.3479,4.3479,4.3479,4.3479,4.3479,4.3479,4.3479,4.3479,4.3424,4.3167,4.3094,4.3442,4.3094,4.3167,4.3478,4.3424,4.291,4.2176,4.1846,4.1699,4.1187,4.104,4.093,4.0728,4.0673,4.0526,4.0196,4.0159,4.0123,4.0104,4.0068,3.9918,3.957,3.9496,3.9313,3.8982,3.8872,3.8817,3.8781,3.8762,3.8707,3.8707,3.8707,3.8707,3.8726,3.8707,3.8707,3.8707,3.8707,3.8707,3.8707,3.8707,3.8707,3.8689,3.8689,3.8414,3.8285,3.79,3.7456,3.7044,3.7026,3.6738,3.6216,3.5745,3.5002,3.4106,3.3327,3.2708,3.219,3.2066,3.1498,3.1343,3.1241,3.119,3.119,3.119,3.119,3.119,3.119,3.119,3.119,3.119,3.1173,3.119,3.119,3.1157,3.1038,3.0886,3.0666,2.9939,2.9261,2.8751,2.7908,2.6838,2.617,2.6183,2.6535,2.6999,4.1827,4.2359,4.3149,4.3479,4.3479,4.3479,4.3479,4.3479,4.3479,4.3479,4.3479,4.3479,4.3479,4.3479,4.3479,4.3479,4.3479,4.3479,4.3479,4.3479,4.3479,4.3479,4.3479,4.3479,4.3479,4.3479,4.3479,4.3479,4.3479,4.3479,4.3479,4.3478,4.3479,4.3204,4.2818,4.2635,4.2525,4.2176,4.2121,4.1901,4.1662,4.146,4.1334,4.1095,4.1003,4.1022,4.1077,4.1022,4.0891,4.0469,4.0212,4.0065,3.9643,3.9499,3.9517,3.9551,3.9551,3.9572,3.9627,3.9627,3.9625,3.9221,3.8909,3.8726,3.8707,3.8707,3.8707,3.8707,3.8726,3.8707,3.8707,3.8707,3.8652,3.8505,3.8358,3.7915,3.786,3.7808,3.7771,3.7262,3.6772,3.5998,3.5276,3.4532,3.3837,3.3374,3.2907,3.2289,3.1619,3.1413,3.1258,3.119,3.119,3.119,3.119,3.119,3.119,3.119,3.1241,3.1292,3.119,3.119,3.119,3.119,3.1055,3.0784,3.0243,2.9683,2.9293,2.8783,2.7995,2.7479,2.7273,2.7586,2.8077,4.2268,4.2451,4.3185,4.3479,4.3479,4.3479,4.3479,4.3479,4.3479,4.3479,4.3479,4.3479,4.3479,4.3479,4.3479,4.3479,4.3479,4.3479,4.3479,4.3479,4.3479,4.3479,4.3479,4.3479,4.3479,4.3479,4.3479,4.3479,4.3479,4.3479,4.3479,4.3479,4.3479,4.3369,4.3314,4.3259,4.3204,4.3039,4.2983,4.2727,4.2433,4.2323,4.2066,4.1809,4.1609,4.159,4.1572,4.1499,4.137,4.1187,4.1095,4.1077,4.104,4.1077,4.1095,4.104,4.093,4.0838,4.0783,4.071,4.0508,3.9955,3.9368,3.8982,3.8762,3.8817,3.8891,3.8854,3.8854,3.8781,3.8726,3.8707,3.8689,3.867,3.867,3.8542,3.8542,3.8542,3.8524,3.8218,3.7778,3.7164,3.6519,3.5793,3.5171,3.4827,3.4312,3.3533,3.2787,3.1721,3.1532,3.119,3.119,3.119,3.1224,3.1343,3.1258,3.1275,3.1427,3.1498,3.1343,3.119,3.119,3.119,3.119,3.0937,3.0565,3.0243,2.9956,2.9409,2.9084,2.8826,2.8608,2.8704,2.9098,4.2103,4.3166,4.3423,4.3479,4.3479,4.3479,4.3479,4.3479,4.3479,4.3479,4.3479,4.3479,4.3479,4.3479,4.3479,4.3479,4.3496,4.3479,4.3479,4.3496,4.3546,4.3513,4.3496,4.3513,4.3496,4.3479,4.3479,4.3479,4.3479,4.3479,4.3479,4.3479,4.3479,4.3479,4.3479,4.3479,4.3479,4.3479,4.3479,4.3296,4.3149,4.3039,4.28,4.2671,4.258,4.2561,4.258,4.2616,4.2451,4.2029,4.1974,4.1809,4.1113,4.1113,4.1095,4.1095,4.1077,4.1077,4.1113,4.1132,4.1038,4.0857,4.0471,3.968,3.9294,3.9166,3.9313,3.9276,3.9331,3.9405,3.9093,3.8909,3.8799,3.8707,3.8707,3.8707,3.8707,3.8707,3.8707,3.8615,3.8212,3.8,3.74,3.7127,3.6558,3.6258,3.5719,3.4886,3.3873,3.2767,3.2043,3.1698,3.1562,3.1681,3.163,3.1715,3.1532,3.1413,3.1599,3.1633,3.1309,3.119,3.119,3.119,3.119,3.114,3.1004,3.0717,3.0463,3.0683,3.0458,3.0207,3.0002,2.9928,2.9981,4.2323,4.3424,4.3479,4.3479,4.3479,4.3479,4.3546,4.3662,4.3582,4.3479,4.3479,4.3479,4.3479,4.3479,4.3496,4.3563,4.371,4.3563,4.3563,4.3726,4.3712,4.3614,4.358,4.3612,4.3595,4.3563,4.3496,4.3479,4.3531,4.3496,4.3479,4.3479,4.3479,4.3496,4.3479,4.3479,4.3479,4.3479,4.3479,4.3479,4.3496,4.3513,4.3496,4.3531,4.3531,4.3531,4.3531,4.3531,4.3201,4.2835,4.2782,4.2598,4.2103,4.2103,4.2103,4.2176,4.2176,4.2213,4.2231,4.2176,4.1902,4.1664,4.1554,4.0893,4.0377,4.0139,4.0084,4.001,4.0139,4.0139,3.9606,3.9148,3.8927,3.8726,3.8707,3.8707,3.8707,3.8707,3.8707,3.8707,3.8588,3.8473,3.8263,3.8082,3.7807,3.7274,3.6694,3.5968,3.4876,3.3665,3.2978,3.2527,3.2374,3.2324,3.2256,3.2222,3.2138,3.2039,3.1955,3.1853,3.1427,3.1258,3.1309,3.1258,3.119,3.119,3.1241,3.1173,3.1038,3.1241,3.1309,3.0987,3.0683,3.061,3.0738,4.269,4.3496,4.3531,4.3597,4.3597,4.3647,4.3807,4.3982,4.3775,4.3597,4.3629,4.3632,4.3662,4.3761,4.3742,4.3868,4.3943,4.3868,4.3899,4.4043,4.4061,4.3958,4.3884,4.3865,4.3927,4.3728,4.3664,4.3807,4.3662,4.3728,4.3758,4.358,4.3681,4.3744,4.3775,4.3758,4.3791,4.3788,4.3758,4.3726,4.3631,4.3582,4.3565,4.3647,4.3646,4.3664,4.3647,4.3614,4.3563,4.3546,4.351,4.3435,4.3313,4.3276,4.3277,4.3277,4.313,4.3112,4.3075,4.3057,4.2855,4.2598,4.2378,4.1992,4.1607,4.1167,4.1001,4.0747,4.0802,4.0726,4.0286,4.0029,3.9808,3.9496,3.9313,3.9221,3.9129,3.8964,3.8707,3.8707,3.8673,3.8578,3.8528,3.8316,3.8216,3.7911,3.7471,3.6842,3.6155,3.4846,3.404,3.3502,3.3059,3.2903,3.3034,3.2983,3.2916,3.278,3.2615,3.2378,3.2138,3.1816,3.1444,3.1647,3.185,3.1512,3.1444,3.1461,3.1529,3.1562,3.1596,3.1529,3.141,3.141,3.1393,4.2213,4.3512,4.3772,4.4046,4.4308,4.4337,4.4364,4.4441,4.4397,4.4323,4.4337,4.4323,4.4313,4.4237,4.4223,4.4337,4.4359,4.428,4.4378,4.4414,4.4441,4.4346,4.4323,4.435,4.4364,4.4378,4.4337,4.4237,4.4209,4.4252,4.4308,4.4294,4.4252,4.4209,4.4227,4.4223,4.4209,4.418,4.418,4.4076,4.3974,4.394,4.3971,4.4165,4.428,4.4237,4.4237,4.428,4.4106,4.3955,4.3912,4.374,4.3512,4.3513,4.3496,4.3496,4.3531,4.3531,4.3479,4.3479,4.3296,4.3277,4.3112,4.3075,4.28,4.2323,4.1902,4.1609,4.1407,4.1277,4.1075,4.0875,4.0636,4.0286,3.9955,3.979,3.9606,3.9221,3.8836,3.8762,3.8762,3.8673,3.8658,3.8609,3.8546,3.83,3.7963,3.7577,3.7399,3.652,3.54,3.4686,3.3683,3.349,3.3681,3.3795,3.3744,3.3609,3.344,3.3169,3.2865,3.2594,3.2357,3.2527,3.2611,3.2121,3.1853,3.2022,3.2056,3.1955,3.2222,3.2307,3.2455,3.2506,3.2341,4.2372,4.3933,4.4194,4.4387,4.4567,4.4593,4.467,4.4793,4.4825,4.4908,4.4966,4.4757,4.4593,4.4606,4.4593,4.4732,4.4757,4.4631,4.4682,4.4757,4.4812,4.4701,4.4714,4.4763,4.4663,4.4663,4.4606,4.4553,4.4644,4.458,4.4553,4.4618,4.4618,4.4631,4.4618,4.4606,4.4618,4.458,4.4618,4.4548,4.4414,4.4401,4.4346,4.4567,4.4606,4.4606,4.4593,4.4593,4.4474,4.4318,4.4276,4.4223,4.408,4.4069,4.3896,4.3788,4.3726,4.3681,4.3563,4.3548,4.3548,4.3531,4.3496,4.3311,4.3314,4.2873,4.2837,4.258,4.2598,4.2488,4.1919,4.1625,4.1224,4.0873,4.0671,4.0487,4.0212,3.9863,3.9551,3.9368,3.9148,3.8707,3.8673,3.8673,3.8627,3.8611,3.8283,3.8234,3.8065,3.7843,3.6827,3.5942,3.4958,3.4466,3.4658,3.4687,3.4607,3.4455,3.4218,3.3769,3.3381,3.3334,3.3305,3.3305,3.3034,3.2395,3.2242,3.2496,3.2344,3.2158,3.2645,3.3165,3.3368,3.3503,3.3318,4.2835,4.4569,4.4657,4.4695,4.4739,4.4751,4.4908,4.5129,4.5161,4.5322,4.5457,4.4958,4.4757,4.472,4.4732,4.4943,4.5052,4.4977,4.5011,4.5096,4.5169,4.5074,4.5041,4.503,4.4977,4.4919,4.4861,4.4849,4.4872,4.4842,4.4853,4.4745,4.472,4.4745,4.472,4.4732,4.4818,4.4853,4.4908,4.4954,4.4908,4.4842,4.4769,4.472,4.472,4.4739,4.4732,4.4732,4.4732,4.4606,4.458,4.454,4.4514,4.446,4.4308,4.4165,4.4091,4.3958,4.3823,4.3775,4.3695,4.3612,4.3563,4.3546,4.3546,4.3478,4.3423,4.3406,4.3424,4.324,4.2671,4.2323,4.1919,4.1625,4.146,4.1148,4.0799,4.0506,4.0267,4.0029,3.9551,3.9019,3.8891,3.8872,3.8762,3.8744,3.8726,3.8707,3.8578,3.8267,3.7641,3.7041,3.6362,3.6017,3.5722,3.5312,3.5109,3.503,3.4726,3.4271,3.3997,3.4158,3.4129,3.3842,3.3474,3.3038,3.2886,3.3055,3.2801,3.2649,3.3491,3.418,3.4057,3.4175,3.4197,4.3182,4.5007,4.4988,4.515,4.5362,4.541,4.5467,4.5495,4.5495,4.554,4.5531,4.5522,4.54,4.5391,4.5419,4.5448,4.5362,4.5322,4.54,4.5504,4.5438,4.5419,4.5381,4.5332,4.5429,4.5381,4.5293,4.5371,4.5232,4.5302,4.54,4.5323,4.5362,4.5362,4.5371,4.5352,4.5293,4.5283,4.5283,4.5362,4.5322,4.5263,4.5223,4.5273,4.541,4.5419,4.5419,4.54,4.5243,4.503,4.4812,4.4793,4.4806,4.4793,4.4644,4.454,4.4487,4.4392,4.427,4.4209,4.4121,4.3943,4.3881,4.3772,4.371,4.3563,4.3511,4.3478,4.3461,4.3461,4.3112,4.3112,4.2837,4.2671,4.2506,4.1864,4.1368,4.113,4.0912,4.0616,4.0212,3.9827,3.957,3.9386,3.9038,3.9001,3.8927,3.8909,3.8909,3.864,3.8405,3.793,3.7451,3.6902,3.6298,3.5688,3.5414,3.5385,3.5301,3.4935,3.4884,3.5205,3.5092,3.4653,3.437,3.4015,3.3914,3.363,3.38,3.3812,3.4692,3.5211,3.4986,3.4834,3.4822]}]]